<?xml version="1.0" encoding="UTF-8" standalone="no" ?>
<gpx xmlns="http://www.topografix.com/GPX/1/1" xmlns:xsi="http://www.w3.org/2001/XMLSchema-instance" xsi:schemaLocation="http://www.topografix.com/GPX/1/1 http://www.topografix.com/GPX/1/1/gpx.xsd" version="1.1" creator="VisuGPX - https://www.visugpx.com">
  <metadata>
    <name>Plan de Baix par Tamé</name>
    <desc><![CDATA[2009-06-24_Plan de Baix par Tamé Dist.132Km Asc.1469m 5h53.gpx]]></desc>
  </metadata>
  <trk>
    <name><![CDATA[Plan de Baix par Tamé]]></name>
    <trkseg>
      <trkpt lat="45.11572" lon="4.96425">
        <ele>206.24899291992</ele>
        <time>2009-06-24T11:20:16Z</time>
      </trkpt>
      <trkpt lat="45.11572" lon="4.96425">
        <ele>206.24899291992</ele>
        <time>2009-06-24T11:20:17Z</time>
      </trkpt>
      <trkpt lat="45.11581" lon="4.9643">
        <ele>207.85499572754</ele>
        <time>2009-06-24T11:20:25Z</time>
      </trkpt>
      <trkpt lat="45.11581" lon="4.96446">
        <ele>207.04600524902</ele>
        <time>2009-06-24T11:20:30Z</time>
      </trkpt>
      <trkpt lat="45.11578" lon="4.96448">
        <ele>207.77299499512</ele>
        <time>2009-06-24T11:20:35Z</time>
      </trkpt>
      <trkpt lat="45.11581" lon="4.96451">
        <ele>207.72799682617</ele>
        <time>2009-06-24T11:20:39Z</time>
      </trkpt>
      <trkpt lat="45.1158" lon="4.96458">
        <ele>207.42399597168</ele>
        <time>2009-06-24T11:20:43Z</time>
      </trkpt>
      <trkpt lat="45.1158" lon="4.96477">
        <ele>206.67799377441</ele>
        <time>2009-06-24T11:20:48Z</time>
      </trkpt>
      <trkpt lat="45.11579" lon="4.96499">
        <ele>206.10899353027</ele>
        <time>2009-06-24T11:20:58Z</time>
      </trkpt>
      <trkpt lat="45.11598" lon="4.9655">
        <ele>205.90899658203</ele>
        <time>2009-06-24T11:21:06Z</time>
      </trkpt>
      <trkpt lat="45.11606" lon="4.96567">
        <ele>205.79299926758</ele>
        <time>2009-06-24T11:21:10Z</time>
      </trkpt>
      <trkpt lat="45.11658" lon="4.96698">
        <ele>206.80200195312</ele>
        <time>2009-06-24T11:21:30Z</time>
      </trkpt>
      <trkpt lat="45.11697" lon="4.96778">
        <ele>207.50900268555</ele>
        <time>2009-06-24T11:21:43Z</time>
      </trkpt>
      <trkpt lat="45.11729" lon="4.96821">
        <ele>208.07800292969</ele>
        <time>2009-06-24T11:21:51Z</time>
      </trkpt>
      <trkpt lat="45.11737" lon="4.96831">
        <ele>208.05099487305</ele>
        <time>2009-06-24T11:21:54Z</time>
      </trkpt>
      <trkpt lat="45.11746" lon="4.9687">
        <ele>208.25700378418</ele>
        <time>2009-06-24T11:21:58Z</time>
      </trkpt>
      <trkpt lat="45.11818" lon="4.96968">
        <ele>208.88499450684</ele>
        <time>2009-06-24T11:22:14Z</time>
      </trkpt>
      <trkpt lat="45.11871" lon="4.97045">
        <ele>208.81799316406</ele>
        <time>2009-06-24T11:22:26Z</time>
      </trkpt>
      <trkpt lat="45.11881" lon="4.97084">
        <ele>208.50700378418</ele>
        <time>2009-06-24T11:22:31Z</time>
      </trkpt>
      <trkpt lat="45.1188" lon="4.97122">
        <ele>208.03799438477</ele>
        <time>2009-06-24T11:22:35Z</time>
      </trkpt>
      <trkpt lat="45.11896" lon="4.97276">
        <ele>206.99200439453</ele>
        <time>2009-06-24T11:22:49Z</time>
      </trkpt>
      <trkpt lat="45.11925" lon="4.97437">
        <ele>206.81599426269</ele>
        <time>2009-06-24T11:23:05Z</time>
      </trkpt>
      <trkpt lat="45.11954" lon="4.97599">
        <ele>209.03799438477</ele>
        <time>2009-06-24T11:23:23Z</time>
      </trkpt>
      <trkpt lat="45.11957" lon="4.97617">
        <ele>209.13000488281</ele>
        <time>2009-06-24T11:23:25Z</time>
      </trkpt>
      <trkpt lat="45.11987" lon="4.97783">
        <ele>209.51300048828</ele>
        <time>2009-06-24T11:23:43Z</time>
      </trkpt>
      <trkpt lat="45.12019" lon="4.97952">
        <ele>211.31799316406</ele>
        <time>2009-06-24T11:24:02Z</time>
      </trkpt>
      <trkpt lat="45.12052" lon="4.98108">
        <ele>213.04400634766</ele>
        <time>2009-06-24T11:24:20Z</time>
      </trkpt>
      <trkpt lat="45.12063" lon="4.98265">
        <ele>213.65699768066</ele>
        <time>2009-06-24T11:24:38Z</time>
      </trkpt>
      <trkpt lat="45.1205" lon="4.98362">
        <ele>214.92700195312</ele>
        <time>2009-06-24T11:24:49Z</time>
      </trkpt>
      <trkpt lat="45.12048" lon="4.98378">
        <ele>215.2140045166</ele>
        <time>2009-06-24T11:24:51Z</time>
      </trkpt>
      <trkpt lat="45.12018" lon="4.98405">
        <ele>214.75700378418</ele>
        <time>2009-06-24T11:24:58Z</time>
      </trkpt>
      <trkpt lat="45.12001" lon="4.98396">
        <ele>214.17199707031</ele>
        <time>2009-06-24T11:25:01Z</time>
      </trkpt>
      <trkpt lat="45.11978" lon="4.98417">
        <ele>213.71800231934</ele>
        <time>2009-06-24T11:25:07Z</time>
      </trkpt>
      <trkpt lat="45.11997" lon="4.98394">
        <ele>214.74899291992</ele>
        <time>2009-06-24T11:25:11Z</time>
      </trkpt>
      <trkpt lat="45.12033" lon="4.98427">
        <ele>215.34599304199</ele>
        <time>2009-06-24T11:25:21Z</time>
      </trkpt>
      <trkpt lat="45.12032" lon="4.98449">
        <ele>215.14599609375</ele>
        <time>2009-06-24T11:25:27Z</time>
      </trkpt>
      <trkpt lat="45.12033" lon="4.98446">
        <ele>215.08099365234</ele>
        <time>2009-06-24T11:25:31Z</time>
      </trkpt>
      <trkpt lat="45.12039" lon="4.9844">
        <ele>215.27400207519</ele>
        <time>2009-06-24T11:26:25Z</time>
      </trkpt>
      <trkpt lat="45.12028" lon="4.9841">
        <ele>215.07600402832</ele>
        <time>2009-06-24T11:26:32Z</time>
      </trkpt>
      <trkpt lat="45.12042" lon="4.98436">
        <ele>215.02299499512</ele>
        <time>2009-06-24T11:26:38Z</time>
      </trkpt>
      <trkpt lat="45.12042" lon="4.98436">
        <ele>214.64900207519</ele>
        <time>2009-06-24T11:30:18Z</time>
      </trkpt>
      <trkpt lat="45.12042" lon="4.98436">
        <ele>213.88800048828</ele>
        <time>2009-06-24T11:37:33Z</time>
      </trkpt>
      <trkpt lat="45.12042" lon="4.98436">
        <ele>214.02400207519</ele>
        <time>2009-06-24T11:37:34Z</time>
      </trkpt>
      <trkpt lat="45.12042" lon="4.98436">
        <ele>213.78100585938</ele>
        <time>2009-06-24T11:37:35Z</time>
      </trkpt>
      <trkpt lat="45.12029" lon="4.98426">
        <ele>213.91999816894</ele>
        <time>2009-06-24T11:37:42Z</time>
      </trkpt>
      <trkpt lat="45.12028" lon="4.9843">
        <ele>213.60200500488</ele>
        <time>2009-06-24T11:37:44Z</time>
      </trkpt>
      <trkpt lat="45.12021" lon="4.98461">
        <ele>213.60699462891</ele>
        <time>2009-06-24T11:37:56Z</time>
      </trkpt>
      <trkpt lat="45.12017" lon="4.98524">
        <ele>213.49699401856</ele>
        <time>2009-06-24T11:38:07Z</time>
      </trkpt>
      <trkpt lat="45.12022" lon="4.98659">
        <ele>213.96099853516</ele>
        <time>2009-06-24T11:38:26Z</time>
      </trkpt>
      <trkpt lat="45.1203" lon="4.98701">
        <ele>213.70300292969</ele>
        <time>2009-06-24T11:38:32Z</time>
      </trkpt>
      <trkpt lat="45.12058" lon="4.98801">
        <ele>214.04899597168</ele>
        <time>2009-06-24T11:38:47Z</time>
      </trkpt>
      <trkpt lat="45.12082" lon="4.9886">
        <ele>215.15400695801</ele>
        <time>2009-06-24T11:38:56Z</time>
      </trkpt>
      <trkpt lat="45.12136" lon="4.98965">
        <ele>216.23500061035</ele>
        <time>2009-06-24T11:39:14Z</time>
      </trkpt>
      <trkpt lat="45.12164" lon="4.98999">
        <ele>217.63000488281</ele>
        <time>2009-06-24T11:39:22Z</time>
      </trkpt>
      <trkpt lat="45.12192" lon="4.99034">
        <ele>219.42100524902</ele>
        <time>2009-06-24T11:39:31Z</time>
      </trkpt>
      <trkpt lat="45.12206" lon="4.99049">
        <ele>220.03999328613</ele>
        <time>2009-06-24T11:39:35Z</time>
      </trkpt>
      <trkpt lat="45.12215" lon="4.9909">
        <ele>219.83399963379</ele>
        <time>2009-06-24T11:39:43Z</time>
      </trkpt>
      <trkpt lat="45.12191" lon="4.99193">
        <ele>219.44200134277</ele>
        <time>2009-06-24T11:39:56Z</time>
      </trkpt>
      <trkpt lat="45.12183" lon="4.99224">
        <ele>218.45100402832</ele>
        <time>2009-06-24T11:40:00Z</time>
      </trkpt>
      <trkpt lat="45.12171" lon="4.99268">
        <ele>218.5359954834</ele>
        <time>2009-06-24T11:40:08Z</time>
      </trkpt>
      <trkpt lat="45.12152" lon="4.9934">
        <ele>218.32600402832</ele>
        <time>2009-06-24T11:40:14Z</time>
      </trkpt>
      <trkpt lat="45.12125" lon="4.9943">
        <ele>217.53700256348</ele>
        <time>2009-06-24T11:40:26Z</time>
      </trkpt>
      <trkpt lat="45.12098" lon="4.99491">
        <ele>219.02299499512</ele>
        <time>2009-06-24T11:40:35Z</time>
      </trkpt>
      <trkpt lat="45.12083" lon="4.99516">
        <ele>219.6190032959</ele>
        <time>2009-06-24T11:40:39Z</time>
      </trkpt>
      <trkpt lat="45.12016" lon="4.99636">
        <ele>220.1130065918</ele>
        <time>2009-06-24T11:40:58Z</time>
      </trkpt>
      <trkpt lat="45.11951" lon="4.99748">
        <ele>219.95500183106</ele>
        <time>2009-06-24T11:41:15Z</time>
      </trkpt>
      <trkpt lat="45.11888" lon="4.99826">
        <ele>222.66499328613</ele>
        <time>2009-06-24T11:41:31Z</time>
      </trkpt>
      <trkpt lat="45.11867" lon="4.99841">
        <ele>223.80299377441</ele>
        <time>2009-06-24T11:41:36Z</time>
      </trkpt>
      <trkpt lat="45.11842" lon="4.99853">
        <ele>225.67399597168</ele>
        <time>2009-06-24T11:41:42Z</time>
      </trkpt>
      <trkpt lat="45.11823" lon="4.99861">
        <ele>227.24200439453</ele>
        <time>2009-06-24T11:41:49Z</time>
      </trkpt>
      <trkpt lat="45.11787" lon="4.99877">
        <ele>228.8390045166</ele>
        <time>2009-06-24T11:41:55Z</time>
      </trkpt>
      <trkpt lat="45.11758" lon="4.9989">
        <ele>230.30200195312</ele>
        <time>2009-06-24T11:42:02Z</time>
      </trkpt>
      <trkpt lat="45.11737" lon="4.99899">
        <ele>232.47300720215</ele>
        <time>2009-06-24T11:42:10Z</time>
      </trkpt>
      <trkpt lat="45.1172" lon="4.99908">
        <ele>232.95700073242</ele>
        <time>2009-06-24T11:42:12Z</time>
      </trkpt>
      <trkpt lat="45.11712" lon="4.99911">
        <ele>233.43099975586</ele>
        <time>2009-06-24T11:42:14Z</time>
      </trkpt>
      <trkpt lat="45.11684" lon="4.99924">
        <ele>235.10899353027</ele>
        <time>2009-06-24T11:42:21Z</time>
      </trkpt>
      <trkpt lat="45.11631" lon="4.99976">
        <ele>238.72300720215</ele>
        <time>2009-06-24T11:42:37Z</time>
      </trkpt>
      <trkpt lat="45.11574" lon="5.00055">
        <ele>241.83299255371</ele>
        <time>2009-06-24T11:42:54Z</time>
      </trkpt>
      <trkpt lat="45.11552" lon="5.00081">
        <ele>241.85400390625</ele>
        <time>2009-06-24T11:43:00Z</time>
      </trkpt>
      <trkpt lat="45.11498" lon="5.00133">
        <ele>241.9880065918</ele>
        <time>2009-06-24T11:43:12Z</time>
      </trkpt>
      <trkpt lat="45.11465" lon="5.00163">
        <ele>242.55099487305</ele>
        <time>2009-06-24T11:43:19Z</time>
      </trkpt>
      <trkpt lat="45.11399" lon="5.00221">
        <ele>242.48500061035</ele>
        <time>2009-06-24T11:43:32Z</time>
      </trkpt>
      <trkpt lat="45.11344" lon="5.0027">
        <ele>243</ele>
        <time>2009-06-24T11:43:43Z</time>
      </trkpt>
      <trkpt lat="45.11251" lon="5.0034">
        <ele>245.56199645996</ele>
        <time>2009-06-24T11:44:02Z</time>
      </trkpt>
      <trkpt lat="45.11163" lon="5.00385">
        <ele>249.46299743652</ele>
        <time>2009-06-24T11:44:21Z</time>
      </trkpt>
      <trkpt lat="45.11114" lon="5.00412">
        <ele>252.45500183106</ele>
        <time>2009-06-24T11:44:32Z</time>
      </trkpt>
      <trkpt lat="45.11084" lon="5.00429">
        <ele>254.15699768066</ele>
        <time>2009-06-24T11:44:39Z</time>
      </trkpt>
      <trkpt lat="45.11055" lon="5.00448">
        <ele>255.7440032959</ele>
        <time>2009-06-24T11:44:46Z</time>
      </trkpt>
      <trkpt lat="45.10961" lon="5.00512">
        <ele>260.4280090332</ele>
        <time>2009-06-24T11:45:09Z</time>
      </trkpt>
      <trkpt lat="45.10875" lon="5.00559">
        <ele>259.14599609375</ele>
        <time>2009-06-24T11:45:26Z</time>
      </trkpt>
      <trkpt lat="45.10847" lon="5.00564">
        <ele>257.43899536133</ele>
        <time>2009-06-24T11:45:30Z</time>
      </trkpt>
      <trkpt lat="45.10796" lon="5.00575">
        <ele>254.71899414062</ele>
        <time>2009-06-24T11:45:36Z</time>
      </trkpt>
      <trkpt lat="45.10746" lon="5.00586">
        <ele>251.20199584961</ele>
        <time>2009-06-24T11:45:41Z</time>
      </trkpt>
      <trkpt lat="45.10713" lon="5.00593">
        <ele>249.59399414062</ele>
        <time>2009-06-24T11:45:44Z</time>
      </trkpt>
      <trkpt lat="45.10645" lon="5.00614">
        <ele>246.15100097656</ele>
        <time>2009-06-24T11:45:50Z</time>
      </trkpt>
      <trkpt lat="45.10622" lon="5.00627">
        <ele>245.31599426269</ele>
        <time>2009-06-24T11:45:52Z</time>
      </trkpt>
      <trkpt lat="45.10611" lon="5.00634">
        <ele>244.66299438477</ele>
        <time>2009-06-24T11:45:53Z</time>
      </trkpt>
      <trkpt lat="45.10567" lon="5.00668">
        <ele>241.89300537109</ele>
        <time>2009-06-24T11:45:57Z</time>
      </trkpt>
      <trkpt lat="45.10524" lon="5.00705">
        <ele>239.77799987793</ele>
        <time>2009-06-24T11:46:01Z</time>
      </trkpt>
      <trkpt lat="45.10401" lon="5.00809">
        <ele>238.11999511719</ele>
        <time>2009-06-24T11:46:14Z</time>
      </trkpt>
      <trkpt lat="45.10319" lon="5.00879">
        <ele>239.19299316406</ele>
        <time>2009-06-24T11:46:25Z</time>
      </trkpt>
      <trkpt lat="45.1028" lon="5.00909">
        <ele>239.88900756836</ele>
        <time>2009-06-24T11:46:31Z</time>
      </trkpt>
      <trkpt lat="45.10212" lon="5.00973">
        <ele>241.10499572754</ele>
        <time>2009-06-24T11:46:43Z</time>
      </trkpt>
      <trkpt lat="45.10165" lon="5.01037">
        <ele>241.67599487305</ele>
        <time>2009-06-24T11:46:53Z</time>
      </trkpt>
      <trkpt lat="45.1014" lon="5.01081">
        <ele>242.9880065918</ele>
        <time>2009-06-24T11:46:59Z</time>
      </trkpt>
      <trkpt lat="45.10113" lon="5.0113">
        <ele>243.52299499512</ele>
        <time>2009-06-24T11:47:06Z</time>
      </trkpt>
      <trkpt lat="45.10087" lon="5.01207">
        <ele>244.0299987793</ele>
        <time>2009-06-24T11:47:15Z</time>
      </trkpt>
      <trkpt lat="45.10068" lon="5.01394">
        <ele>244.30499267578</ele>
        <time>2009-06-24T11:47:34Z</time>
      </trkpt>
      <trkpt lat="45.10056" lon="5.01549">
        <ele>243.94799804688</ele>
        <time>2009-06-24T11:47:49Z</time>
      </trkpt>
      <trkpt lat="45.10035" lon="5.01683">
        <ele>243.11399841309</ele>
        <time>2009-06-24T11:48:02Z</time>
      </trkpt>
      <trkpt lat="45.10017" lon="5.01739">
        <ele>243.64100646973</ele>
        <time>2009-06-24T11:48:08Z</time>
      </trkpt>
      <trkpt lat="45.10007" lon="5.01766">
        <ele>244.05900573731</ele>
        <time>2009-06-24T11:48:11Z</time>
      </trkpt>
      <trkpt lat="45.0999" lon="5.01816">
        <ele>245.05499267578</ele>
        <time>2009-06-24T11:48:17Z</time>
      </trkpt>
      <trkpt lat="45.09979" lon="5.01848">
        <ele>246.01400756836</ele>
        <time>2009-06-24T11:48:21Z</time>
      </trkpt>
      <trkpt lat="45.09955" lon="5.01918">
        <ele>247.71000671387</ele>
        <time>2009-06-24T11:48:30Z</time>
      </trkpt>
      <trkpt lat="45.09906" lon="5.02053">
        <ele>252.08200073242</ele>
        <time>2009-06-24T11:48:49Z</time>
      </trkpt>
      <trkpt lat="45.09884" lon="5.02113">
        <ele>254.92500305176</ele>
        <time>2009-06-24T11:48:59Z</time>
      </trkpt>
      <trkpt lat="45.09854" lon="5.02218">
        <ele>259.46600341797</ele>
        <time>2009-06-24T11:49:16Z</time>
      </trkpt>
      <trkpt lat="45.09852" lon="5.0223">
        <ele>259.87701416016</ele>
        <time>2009-06-24T11:49:18Z</time>
      </trkpt>
      <trkpt lat="45.09846" lon="5.02275">
        <ele>261.60598754883</ele>
        <time>2009-06-24T11:49:26Z</time>
      </trkpt>
      <trkpt lat="45.09868" lon="5.02367">
        <ele>265.15100097656</ele>
        <time>2009-06-24T11:49:42Z</time>
      </trkpt>
      <trkpt lat="45.09899" lon="5.02465">
        <ele>262.56399536133</ele>
        <time>2009-06-24T11:49:56Z</time>
      </trkpt>
      <trkpt lat="45.09916" lon="5.02507">
        <ele>260.27099609375</ele>
        <time>2009-06-24T11:50:00Z</time>
      </trkpt>
      <trkpt lat="45.09964" lon="5.02576">
        <ele>256.5419921875</ele>
        <time>2009-06-24T11:50:07Z</time>
      </trkpt>
      <trkpt lat="45.09982" lon="5.02627">
        <ele>254.05700683594</ele>
        <time>2009-06-24T11:50:11Z</time>
      </trkpt>
      <trkpt lat="45.09993" lon="5.02657">
        <ele>252.48199462891</ele>
        <time>2009-06-24T11:50:14Z</time>
      </trkpt>
      <trkpt lat="45.10018" lon="5.02688">
        <ele>250.11199951172</ele>
        <time>2009-06-24T11:50:19Z</time>
      </trkpt>
      <trkpt lat="45.10023" lon="5.02694">
        <ele>249.98899841309</ele>
        <time>2009-06-24T11:50:20Z</time>
      </trkpt>
      <trkpt lat="45.10045" lon="5.02721">
        <ele>248.53999328613</ele>
        <time>2009-06-24T11:50:26Z</time>
      </trkpt>
      <trkpt lat="45.10051" lon="5.02729">
        <ele>248.22300720215</ele>
        <time>2009-06-24T11:50:30Z</time>
      </trkpt>
      <trkpt lat="45.10059" lon="5.02743">
        <ele>246.73500061035</ele>
        <time>2009-06-24T11:50:36Z</time>
      </trkpt>
      <trkpt lat="45.10063" lon="5.02752">
        <ele>246.46699523926</ele>
        <time>2009-06-24T11:50:38Z</time>
      </trkpt>
      <trkpt lat="45.1006" lon="5.02808">
        <ele>242.64100646973</ele>
        <time>2009-06-24T11:50:45Z</time>
      </trkpt>
      <trkpt lat="45.10044" lon="5.02886">
        <ele>239.625</ele>
        <time>2009-06-24T11:50:53Z</time>
      </trkpt>
      <trkpt lat="45.10041" lon="5.02898">
        <ele>239.05799865723</ele>
        <time>2009-06-24T11:50:54Z</time>
      </trkpt>
      <trkpt lat="45.10011" lon="5.03006">
        <ele>234.41299438477</ele>
        <time>2009-06-24T11:51:04Z</time>
      </trkpt>
      <trkpt lat="45.10008" lon="5.03017">
        <ele>234.17900085449</ele>
        <time>2009-06-24T11:51:05Z</time>
      </trkpt>
      <trkpt lat="45.09998" lon="5.03052">
        <ele>232.72200012207</ele>
        <time>2009-06-24T11:51:08Z</time>
      </trkpt>
      <trkpt lat="45.09974" lon="5.03135">
        <ele>231.54899597168</ele>
        <time>2009-06-24T11:51:16Z</time>
      </trkpt>
      <trkpt lat="45.09957" lon="5.03194">
        <ele>229.77499389648</ele>
        <time>2009-06-24T11:51:22Z</time>
      </trkpt>
      <trkpt lat="45.09944" lon="5.0324">
        <ele>228.13200378418</ele>
        <time>2009-06-24T11:51:27Z</time>
      </trkpt>
      <trkpt lat="45.0992" lon="5.03326">
        <ele>224.48599243164</ele>
        <time>2009-06-24T11:51:35Z</time>
      </trkpt>
      <trkpt lat="45.09899" lon="5.03407">
        <ele>222.39300537109</ele>
        <time>2009-06-24T11:51:42Z</time>
      </trkpt>
      <trkpt lat="45.09865" lon="5.03465">
        <ele>222.44000244141</ele>
        <time>2009-06-24T11:51:48Z</time>
      </trkpt>
      <trkpt lat="45.0982" lon="5.0354">
        <ele>223.34700012207</ele>
        <time>2009-06-24T11:51:57Z</time>
      </trkpt>
      <trkpt lat="45.098" lon="5.03589">
        <ele>224.125</ele>
        <time>2009-06-24T11:52:03Z</time>
      </trkpt>
      <trkpt lat="45.09789" lon="5.0363">
        <ele>224.26499938965</ele>
        <time>2009-06-24T11:52:08Z</time>
      </trkpt>
      <trkpt lat="45.09796" lon="5.03707">
        <ele>223.09800720215</ele>
        <time>2009-06-24T11:52:16Z</time>
      </trkpt>
      <trkpt lat="45.09832" lon="5.03843">
        <ele>221.09100341797</ele>
        <time>2009-06-24T11:52:30Z</time>
      </trkpt>
      <trkpt lat="45.09858" lon="5.03911">
        <ele>220.68200683594</ele>
        <time>2009-06-24T11:52:38Z</time>
      </trkpt>
      <trkpt lat="45.09876" lon="5.03958">
        <ele>220.01699829102</ele>
        <time>2009-06-24T11:52:44Z</time>
      </trkpt>
      <trkpt lat="45.09884" lon="5.03981">
        <ele>220.05700683594</ele>
        <time>2009-06-24T11:52:47Z</time>
      </trkpt>
      <trkpt lat="45.09882" lon="5.04033">
        <ele>219.99699401856</ele>
        <time>2009-06-24T11:52:53Z</time>
      </trkpt>
      <trkpt lat="45.09853" lon="5.04136">
        <ele>219.96499633789</ele>
        <time>2009-06-24T11:53:06Z</time>
      </trkpt>
      <trkpt lat="45.09816" lon="5.04183">
        <ele>220.41799926758</ele>
        <time>2009-06-24T11:53:14Z</time>
      </trkpt>
      <trkpt lat="45.09725" lon="5.04281">
        <ele>221.59399414062</ele>
        <time>2009-06-24T11:53:33Z</time>
      </trkpt>
      <trkpt lat="45.09673" lon="5.04345">
        <ele>222.80400085449</ele>
        <time>2009-06-24T11:53:43Z</time>
      </trkpt>
      <trkpt lat="45.0963" lon="5.0444">
        <ele>222.12600708008</ele>
        <time>2009-06-24T11:53:57Z</time>
      </trkpt>
      <trkpt lat="45.09624" lon="5.04473">
        <ele>221.6130065918</ele>
        <time>2009-06-24T11:54:00Z</time>
      </trkpt>
      <trkpt lat="45.09616" lon="5.04513">
        <ele>220.6309967041</ele>
        <time>2009-06-24T11:54:05Z</time>
      </trkpt>
      <trkpt lat="45.09616" lon="5.04516">
        <ele>220.21800231934</ele>
        <time>2009-06-24T11:54:08Z</time>
      </trkpt>
      <trkpt lat="45.09615" lon="5.04521">
        <ele>220.21800231934</ele>
        <time>2009-06-24T11:54:12Z</time>
      </trkpt>
      <trkpt lat="45.09591" lon="5.04556">
        <ele>218.51899719238</ele>
        <time>2009-06-24T11:54:19Z</time>
      </trkpt>
      <trkpt lat="45.0958" lon="5.04578">
        <ele>218.03199768066</ele>
        <time>2009-06-24T11:54:22Z</time>
      </trkpt>
      <trkpt lat="45.09532" lon="5.04617">
        <ele>216.93200683594</ele>
        <time>2009-06-24T11:54:30Z</time>
      </trkpt>
      <trkpt lat="45.09462" lon="5.04653">
        <ele>215.28900146484</ele>
        <time>2009-06-24T11:54:40Z</time>
      </trkpt>
      <trkpt lat="45.09421" lon="5.04673">
        <ele>214.49800109863</ele>
        <time>2009-06-24T11:54:46Z</time>
      </trkpt>
      <trkpt lat="45.09381" lon="5.04693">
        <ele>213.3450012207</ele>
        <time>2009-06-24T11:54:51Z</time>
      </trkpt>
      <trkpt lat="45.09348" lon="5.04717">
        <ele>212.63200378418</ele>
        <time>2009-06-24T11:54:56Z</time>
      </trkpt>
      <trkpt lat="45.09335" lon="5.04728">
        <ele>212.28900146484</ele>
        <time>2009-06-24T11:54:58Z</time>
      </trkpt>
      <trkpt lat="45.09295" lon="5.04773">
        <ele>211.49499511719</ele>
        <time>2009-06-24T11:55:05Z</time>
      </trkpt>
      <trkpt lat="45.09296" lon="5.04872">
        <ele>211.65699768066</ele>
        <time>2009-06-24T11:55:14Z</time>
      </trkpt>
      <trkpt lat="45.09286" lon="5.04896">
        <ele>212.28900146484</ele>
        <time>2009-06-24T11:55:18Z</time>
      </trkpt>
      <trkpt lat="45.09257" lon="5.04952">
        <ele>213.90600585938</ele>
        <time>2009-06-24T11:55:27Z</time>
      </trkpt>
      <trkpt lat="45.09248" lon="5.0497">
        <ele>214.4109954834</ele>
        <time>2009-06-24T11:55:30Z</time>
      </trkpt>
      <trkpt lat="45.09236" lon="5.05009">
        <ele>215.89100646973</ele>
        <time>2009-06-24T11:55:36Z</time>
      </trkpt>
      <trkpt lat="45.09238" lon="5.05031">
        <ele>216.16499328613</ele>
        <time>2009-06-24T11:55:39Z</time>
      </trkpt>
      <trkpt lat="45.09247" lon="5.05057">
        <ele>216.96600341797</ele>
        <time>2009-06-24T11:55:43Z</time>
      </trkpt>
      <trkpt lat="45.09278" lon="5.05126">
        <ele>218.83399963379</ele>
        <time>2009-06-24T11:55:57Z</time>
      </trkpt>
      <trkpt lat="45.09312" lon="5.05189">
        <ele>217.96200561523</ele>
        <time>2009-06-24T11:56:04Z</time>
      </trkpt>
      <trkpt lat="45.09398" lon="5.05346">
        <ele>217.47599792481</ele>
        <time>2009-06-24T11:56:27Z</time>
      </trkpt>
      <trkpt lat="45.09425" lon="5.05474">
        <ele>218.59300231934</ele>
        <time>2009-06-24T11:56:44Z</time>
      </trkpt>
      <trkpt lat="45.0943" lon="5.05635">
        <ele>219.70700073242</ele>
        <time>2009-06-24T11:57:04Z</time>
      </trkpt>
      <trkpt lat="45.09418" lon="5.05731">
        <ele>217.94099426269</ele>
        <time>2009-06-24T11:57:15Z</time>
      </trkpt>
      <trkpt lat="45.09404" lon="5.05792">
        <ele>217.60200500488</ele>
        <time>2009-06-24T11:57:22Z</time>
      </trkpt>
      <trkpt lat="45.09374" lon="5.05964">
        <ele>217.36500549316</ele>
        <time>2009-06-24T11:57:42Z</time>
      </trkpt>
      <trkpt lat="45.09369" lon="5.06176">
        <ele>218.81900024414</ele>
        <time>2009-06-24T11:58:06Z</time>
      </trkpt>
      <trkpt lat="45.09369" lon="5.06279">
        <ele>219.77799987793</ele>
        <time>2009-06-24T11:58:18Z</time>
      </trkpt>
      <trkpt lat="45.0937" lon="5.0639">
        <ele>220.92799377441</ele>
        <time>2009-06-24T11:58:31Z</time>
      </trkpt>
      <trkpt lat="45.09375" lon="5.06602">
        <ele>222.57400512695</ele>
        <time>2009-06-24T11:58:55Z</time>
      </trkpt>
      <trkpt lat="45.09371" lon="5.06779">
        <ele>224.5950012207</ele>
        <time>2009-06-24T11:59:16Z</time>
      </trkpt>
      <trkpt lat="45.09378" lon="5.06966">
        <ele>226.6130065918</ele>
        <time>2009-06-24T11:59:38Z</time>
      </trkpt>
      <trkpt lat="45.09386" lon="5.07134">
        <ele>229.76600646973</ele>
        <time>2009-06-24T12:00:00Z</time>
      </trkpt>
      <trkpt lat="45.09383" lon="5.07146">
        <ele>230.07800292969</ele>
        <time>2009-06-24T12:00:02Z</time>
      </trkpt>
      <trkpt lat="45.09362" lon="5.07191">
        <ele>230.88499450684</ele>
        <time>2009-06-24T12:00:10Z</time>
      </trkpt>
      <trkpt lat="45.09353" lon="5.07199">
        <ele>230.83500671387</ele>
        <time>2009-06-24T12:00:12Z</time>
      </trkpt>
      <trkpt lat="45.09334" lon="5.07217">
        <ele>230.17199707031</ele>
        <time>2009-06-24T12:00:16Z</time>
      </trkpt>
      <trkpt lat="45.09288" lon="5.07313">
        <ele>229.49000549316</ele>
        <time>2009-06-24T12:00:28Z</time>
      </trkpt>
      <trkpt lat="45.09266" lon="5.07361">
        <ele>230.11599731445</ele>
        <time>2009-06-24T12:00:34Z</time>
      </trkpt>
      <trkpt lat="45.0923" lon="5.07434">
        <ele>231.03399658203</ele>
        <time>2009-06-24T12:00:44Z</time>
      </trkpt>
      <trkpt lat="45.0922" lon="5.07455">
        <ele>231.51800537109</ele>
        <time>2009-06-24T12:00:47Z</time>
      </trkpt>
      <trkpt lat="45.09195" lon="5.07505">
        <ele>232.6609954834</ele>
        <time>2009-06-24T12:00:54Z</time>
      </trkpt>
      <trkpt lat="45.09185" lon="5.07525">
        <ele>233.0890045166</ele>
        <time>2009-06-24T12:00:57Z</time>
      </trkpt>
      <trkpt lat="45.0914" lon="5.07617">
        <ele>234.67700195312</ele>
        <time>2009-06-24T12:01:11Z</time>
      </trkpt>
      <trkpt lat="45.09077" lon="5.07706">
        <ele>237.19900512695</ele>
        <time>2009-06-24T12:01:27Z</time>
      </trkpt>
      <trkpt lat="45.09026" lon="5.0775">
        <ele>237.74600219727</ele>
        <time>2009-06-24T12:01:37Z</time>
      </trkpt>
      <trkpt lat="45.08931" lon="5.07823">
        <ele>235.5119934082</ele>
        <time>2009-06-24T12:01:52Z</time>
      </trkpt>
      <trkpt lat="45.08902" lon="5.07837">
        <ele>234.54600524902</ele>
        <time>2009-06-24T12:01:56Z</time>
      </trkpt>
      <trkpt lat="45.08895" lon="5.07841">
        <ele>234.18600463867</ele>
        <time>2009-06-24T12:01:57Z</time>
      </trkpt>
      <trkpt lat="45.08869" lon="5.0787">
        <ele>232.77400207519</ele>
        <time>2009-06-24T12:02:01Z</time>
      </trkpt>
      <trkpt lat="45.08841" lon="5.0792">
        <ele>230.67300415039</ele>
        <time>2009-06-24T12:02:06Z</time>
      </trkpt>
      <trkpt lat="45.08829" lon="5.07971">
        <ele>228.65800476074</ele>
        <time>2009-06-24T12:02:10Z</time>
      </trkpt>
      <trkpt lat="45.08805" lon="5.08104">
        <ele>224.96299743652</ele>
        <time>2009-06-24T12:02:20Z</time>
      </trkpt>
      <trkpt lat="45.08783" lon="5.08249">
        <ele>220.24800109863</ele>
        <time>2009-06-24T12:02:30Z</time>
      </trkpt>
      <trkpt lat="45.08778" lon="5.0828">
        <ele>219.22300720215</ele>
        <time>2009-06-24T12:02:32Z</time>
      </trkpt>
      <trkpt lat="45.08754" lon="5.08452">
        <ele>213.25100708008</ele>
        <time>2009-06-24T12:02:43Z</time>
      </trkpt>
      <trkpt lat="45.08753" lon="5.08468">
        <ele>212.94799804688</ele>
        <time>2009-06-24T12:02:44Z</time>
      </trkpt>
      <trkpt lat="45.08746" lon="5.08545">
        <ele>210.9940032959</ele>
        <time>2009-06-24T12:02:49Z</time>
      </trkpt>
      <trkpt lat="45.08742" lon="5.08594">
        <ele>209.99299621582</ele>
        <time>2009-06-24T12:02:53Z</time>
      </trkpt>
      <trkpt lat="45.08706" lon="5.08756">
        <ele>206.51499938965</ele>
        <time>2009-06-24T12:03:08Z</time>
      </trkpt>
      <trkpt lat="45.08666" lon="5.08894">
        <ele>204.68200683594</ele>
        <time>2009-06-24T12:03:22Z</time>
      </trkpt>
      <trkpt lat="45.08595" lon="5.09054">
        <ele>203.14500427246</ele>
        <time>2009-06-24T12:03:40Z</time>
      </trkpt>
      <trkpt lat="45.08586" lon="5.09084">
        <ele>202.6190032959</ele>
        <time>2009-06-24T12:03:43Z</time>
      </trkpt>
      <trkpt lat="45.08554" lon="5.09185">
        <ele>201.36799621582</ele>
        <time>2009-06-24T12:03:53Z</time>
      </trkpt>
      <trkpt lat="45.0853" lon="5.09239">
        <ele>200.74899291992</ele>
        <time>2009-06-24T12:03:59Z</time>
      </trkpt>
      <trkpt lat="45.08475" lon="5.09355">
        <ele>199.55700683594</ele>
        <time>2009-06-24T12:04:11Z</time>
      </trkpt>
      <trkpt lat="45.08453" lon="5.09513">
        <ele>199.87300109863</ele>
        <time>2009-06-24T12:04:25Z</time>
      </trkpt>
      <trkpt lat="45.08451" lon="5.09523">
        <ele>199.67100524902</ele>
        <time>2009-06-24T12:04:26Z</time>
      </trkpt>
      <trkpt lat="45.0846" lon="5.09572">
        <ele>199.56599426269</ele>
        <time>2009-06-24T12:04:31Z</time>
      </trkpt>
      <trkpt lat="45.08514" lon="5.09709">
        <ele>200.63600158691</ele>
        <time>2009-06-24T12:04:47Z</time>
      </trkpt>
      <trkpt lat="45.08557" lon="5.09835">
        <ele>201.20899963379</ele>
        <time>2009-06-24T12:05:02Z</time>
      </trkpt>
      <trkpt lat="45.08598" lon="5.09985">
        <ele>201.78100585938</ele>
        <time>2009-06-24T12:05:19Z</time>
      </trkpt>
      <trkpt lat="45.08635" lon="5.10133">
        <ele>203.43299865723</ele>
        <time>2009-06-24T12:05:38Z</time>
      </trkpt>
      <trkpt lat="45.08673" lon="5.10303">
        <ele>202.54100036621</ele>
        <time>2009-06-24T12:05:59Z</time>
      </trkpt>
      <trkpt lat="45.08713" lon="5.10448">
        <ele>201.9880065918</ele>
        <time>2009-06-24T12:06:16Z</time>
      </trkpt>
      <trkpt lat="45.08738" lon="5.10556">
        <ele>201.10800170898</ele>
        <time>2009-06-24T12:06:28Z</time>
      </trkpt>
      <trkpt lat="45.08778" lon="5.1075">
        <ele>200.92300415039</ele>
        <time>2009-06-24T12:06:50Z</time>
      </trkpt>
      <trkpt lat="45.08785" lon="5.10919">
        <ele>201.29499816894</ele>
        <time>2009-06-24T12:07:09Z</time>
      </trkpt>
      <trkpt lat="45.08808" lon="5.1108">
        <ele>201.62600708008</ele>
        <time>2009-06-24T12:07:28Z</time>
      </trkpt>
      <trkpt lat="45.08829" lon="5.11249">
        <ele>202.42399597168</ele>
        <time>2009-06-24T12:07:49Z</time>
      </trkpt>
      <trkpt lat="45.08849" lon="5.11444">
        <ele>203.92399597168</ele>
        <time>2009-06-24T12:08:13Z</time>
      </trkpt>
      <trkpt lat="45.08864" lon="5.11615">
        <ele>205.32200622559</ele>
        <time>2009-06-24T12:08:34Z</time>
      </trkpt>
      <trkpt lat="45.08879" lon="5.11835">
        <ele>205.39300537109</ele>
        <time>2009-06-24T12:09:00Z</time>
      </trkpt>
      <trkpt lat="45.08895" lon="5.12065">
        <ele>206.44799804688</ele>
        <time>2009-06-24T12:09:27Z</time>
      </trkpt>
      <trkpt lat="45.08904" lon="5.12244">
        <ele>208.85200500488</ele>
        <time>2009-06-24T12:09:49Z</time>
      </trkpt>
      <trkpt lat="45.08911" lon="5.12381">
        <ele>210.83200073242</ele>
        <time>2009-06-24T12:10:07Z</time>
      </trkpt>
      <trkpt lat="45.08913" lon="5.12456">
        <ele>212.14399719238</ele>
        <time>2009-06-24T12:10:17Z</time>
      </trkpt>
      <trkpt lat="45.08908" lon="5.12522">
        <ele>212.84899902344</ele>
        <time>2009-06-24T12:10:26Z</time>
      </trkpt>
      <trkpt lat="45.08871" lon="5.12633">
        <ele>212.82499694824</ele>
        <time>2009-06-24T12:10:41Z</time>
      </trkpt>
      <trkpt lat="45.08836" lon="5.12749">
        <ele>211.46000671387</ele>
        <time>2009-06-24T12:10:54Z</time>
      </trkpt>
      <trkpt lat="45.0882" lon="5.12814">
        <ele>210.97799682617</ele>
        <time>2009-06-24T12:11:01Z</time>
      </trkpt>
      <trkpt lat="45.08809" lon="5.12861">
        <ele>210.39300537109</ele>
        <time>2009-06-24T12:11:06Z</time>
      </trkpt>
      <trkpt lat="45.08803" lon="5.12918">
        <ele>209.78199768066</ele>
        <time>2009-06-24T12:11:12Z</time>
      </trkpt>
      <trkpt lat="45.08794" lon="5.12965">
        <ele>208.49800109863</ele>
        <time>2009-06-24T12:11:17Z</time>
      </trkpt>
      <trkpt lat="45.08794" lon="5.1301">
        <ele>207.91999816894</ele>
        <time>2009-06-24T12:11:21Z</time>
      </trkpt>
      <trkpt lat="45.08798" lon="5.13027">
        <ele>207.70599365234</ele>
        <time>2009-06-24T12:11:25Z</time>
      </trkpt>
      <trkpt lat="45.08791" lon="5.13068">
        <ele>208.08500671387</ele>
        <time>2009-06-24T12:11:28Z</time>
      </trkpt>
      <trkpt lat="45.08782" lon="5.13109">
        <ele>208.00900268555</ele>
        <time>2009-06-24T12:11:33Z</time>
      </trkpt>
      <trkpt lat="45.08779" lon="5.13123">
        <ele>208.21299743652</ele>
        <time>2009-06-24T12:11:35Z</time>
      </trkpt>
      <trkpt lat="45.08771" lon="5.13153">
        <ele>208.57200622559</ele>
        <time>2009-06-24T12:11:39Z</time>
      </trkpt>
      <trkpt lat="45.08723" lon="5.1325">
        <ele>208.5950012207</ele>
        <time>2009-06-24T12:11:52Z</time>
      </trkpt>
      <trkpt lat="45.08667" lon="5.13379">
        <ele>208.85499572754</ele>
        <time>2009-06-24T12:12:10Z</time>
      </trkpt>
      <trkpt lat="45.08637" lon="5.13448">
        <ele>208.78799438477</ele>
        <time>2009-06-24T12:12:20Z</time>
      </trkpt>
      <trkpt lat="45.0863" lon="5.13465">
        <ele>208.89399719238</ele>
        <time>2009-06-24T12:12:24Z</time>
      </trkpt>
      <trkpt lat="45.08575" lon="5.13587">
        <ele>208.50999450684</ele>
        <time>2009-06-24T12:12:39Z</time>
      </trkpt>
      <trkpt lat="45.08503" lon="5.13686">
        <ele>208.74600219727</ele>
        <time>2009-06-24T12:12:54Z</time>
      </trkpt>
      <trkpt lat="45.08398" lon="5.13828">
        <ele>209.16400146484</ele>
        <time>2009-06-24T12:13:16Z</time>
      </trkpt>
      <trkpt lat="45.08367" lon="5.13878">
        <ele>209.11399841309</ele>
        <time>2009-06-24T12:13:23Z</time>
      </trkpt>
      <trkpt lat="45.08309" lon="5.14038">
        <ele>207.98199462891</ele>
        <time>2009-06-24T12:13:40Z</time>
      </trkpt>
      <trkpt lat="45.08253" lon="5.14219">
        <ele>210.47399902344</ele>
        <time>2009-06-24T12:14:01Z</time>
      </trkpt>
      <trkpt lat="45.08228" lon="5.14309">
        <ele>211.10499572754</ele>
        <time>2009-06-24T12:14:12Z</time>
      </trkpt>
      <trkpt lat="45.08208" lon="5.14377">
        <ele>211.26600646973</ele>
        <time>2009-06-24T12:14:20Z</time>
      </trkpt>
      <trkpt lat="45.08195" lon="5.14421">
        <ele>211.51699829102</ele>
        <time>2009-06-24T12:14:25Z</time>
      </trkpt>
      <trkpt lat="45.08159" lon="5.14535">
        <ele>211.21699523926</ele>
        <time>2009-06-24T12:14:39Z</time>
      </trkpt>
      <trkpt lat="45.08137" lon="5.14602">
        <ele>209.28799438477</ele>
        <time>2009-06-24T12:14:46Z</time>
      </trkpt>
      <trkpt lat="45.08105" lon="5.14693">
        <ele>208.26499938965</ele>
        <time>2009-06-24T12:14:55Z</time>
      </trkpt>
      <trkpt lat="45.08093" lon="5.14722">
        <ele>207.79899597168</ele>
        <time>2009-06-24T12:14:58Z</time>
      </trkpt>
      <trkpt lat="45.08043" lon="5.14891">
        <ele>208.10499572754</ele>
        <time>2009-06-24T12:15:15Z</time>
      </trkpt>
      <trkpt lat="45.0801" lon="5.15024">
        <ele>210.50700378418</ele>
        <time>2009-06-24T12:15:30Z</time>
      </trkpt>
      <trkpt lat="45.08001" lon="5.15055">
        <ele>211.52099609375</ele>
        <time>2009-06-24T12:15:34Z</time>
      </trkpt>
      <trkpt lat="45.07995" lon="5.15078">
        <ele>211.9109954834</ele>
        <time>2009-06-24T12:15:37Z</time>
      </trkpt>
      <trkpt lat="45.07977" lon="5.15232">
        <ele>210.13000488281</ele>
        <time>2009-06-24T12:15:53Z</time>
      </trkpt>
      <trkpt lat="45.07943" lon="5.15364">
        <ele>211.47599792481</ele>
        <time>2009-06-24T12:16:08Z</time>
      </trkpt>
      <trkpt lat="45.07906" lon="5.15518">
        <ele>211.03799438477</ele>
        <time>2009-06-24T12:16:26Z</time>
      </trkpt>
      <trkpt lat="45.07878" lon="5.15653">
        <ele>208.64599609375</ele>
        <time>2009-06-24T12:16:39Z</time>
      </trkpt>
      <trkpt lat="45.0786" lon="5.15745">
        <ele>207.28199768066</ele>
        <time>2009-06-24T12:16:48Z</time>
      </trkpt>
      <trkpt lat="45.07817" lon="5.15914">
        <ele>206.16400146484</ele>
        <time>2009-06-24T12:17:05Z</time>
      </trkpt>
      <trkpt lat="45.07781" lon="5.16062">
        <ele>202.16000366211</ele>
        <time>2009-06-24T12:17:20Z</time>
      </trkpt>
      <trkpt lat="45.07763" lon="5.161">
        <ele>199.79800415039</ele>
        <time>2009-06-24T12:17:26Z</time>
      </trkpt>
      <trkpt lat="45.07727" lon="5.1616">
        <ele>198.04100036621</ele>
        <time>2009-06-24T12:17:30Z</time>
      </trkpt>
      <trkpt lat="45.07688" lon="5.16227">
        <ele>196.46800231934</ele>
        <time>2009-06-24T12:17:38Z</time>
      </trkpt>
      <trkpt lat="45.0767" lon="5.16257">
        <ele>196.27000427246</ele>
        <time>2009-06-24T12:17:45Z</time>
      </trkpt>
      <trkpt lat="45.0767" lon="5.16257">
        <ele>196.25300598144</ele>
        <time>2009-06-24T12:17:46Z</time>
      </trkpt>
      <trkpt lat="45.0767" lon="5.16258">
        <ele>196.16499328613</ele>
        <time>2009-06-24T12:18:12Z</time>
      </trkpt>
      <trkpt lat="45.07666" lon="5.16266">
        <ele>196.49600219727</ele>
        <time>2009-06-24T12:18:16Z</time>
      </trkpt>
      <trkpt lat="45.07674" lon="5.16308">
        <ele>196.22200012207</ele>
        <time>2009-06-24T12:18:25Z</time>
      </trkpt>
      <trkpt lat="45.07677" lon="5.16321">
        <ele>196.77099609375</ele>
        <time>2009-06-24T12:18:27Z</time>
      </trkpt>
      <trkpt lat="45.07706" lon="5.16445">
        <ele>196.98599243164</ele>
        <time>2009-06-24T12:18:45Z</time>
      </trkpt>
      <trkpt lat="45.07724" lon="5.16534">
        <ele>196.74699401856</ele>
        <time>2009-06-24T12:18:57Z</time>
      </trkpt>
      <trkpt lat="45.0774" lon="5.16609">
        <ele>196.77499389648</ele>
        <time>2009-06-24T12:19:07Z</time>
      </trkpt>
      <trkpt lat="45.0777" lon="5.16745">
        <ele>195.95899963379</ele>
        <time>2009-06-24T12:19:23Z</time>
      </trkpt>
      <trkpt lat="45.07806" lon="5.16887">
        <ele>194.58200073242</ele>
        <time>2009-06-24T12:19:39Z</time>
      </trkpt>
      <trkpt lat="45.07869" lon="5.1706">
        <ele>193.36399841309</ele>
        <time>2009-06-24T12:19:58Z</time>
      </trkpt>
      <trkpt lat="45.07953" lon="5.17216">
        <ele>190.65699768066</ele>
        <time>2009-06-24T12:20:17Z</time>
      </trkpt>
      <trkpt lat="45.07969" lon="5.17244">
        <ele>189.08999633789</ele>
        <time>2009-06-24T12:20:20Z</time>
      </trkpt>
      <trkpt lat="45.08032" lon="5.17336">
        <ele>184.75799560547</ele>
        <time>2009-06-24T12:20:30Z</time>
      </trkpt>
      <trkpt lat="45.08045" lon="5.17357">
        <ele>184.0890045166</ele>
        <time>2009-06-24T12:20:32Z</time>
      </trkpt>
      <trkpt lat="45.08164" lon="5.17548">
        <ele>179.85899353027</ele>
        <time>2009-06-24T12:20:51Z</time>
      </trkpt>
      <trkpt lat="45.08249" lon="5.17672">
        <ele>178.35499572754</ele>
        <time>2009-06-24T12:21:05Z</time>
      </trkpt>
      <trkpt lat="45.08364" lon="5.17817">
        <ele>176.6130065918</ele>
        <time>2009-06-24T12:21:23Z</time>
      </trkpt>
      <trkpt lat="45.08451" lon="5.17974">
        <ele>171.98599243164</ele>
        <time>2009-06-24T12:21:39Z</time>
      </trkpt>
      <trkpt lat="45.08514" lon="5.18131">
        <ele>169.52499389648</ele>
        <time>2009-06-24T12:21:53Z</time>
      </trkpt>
      <trkpt lat="45.08558" lon="5.18282">
        <ele>167.09599304199</ele>
        <time>2009-06-24T12:22:06Z</time>
      </trkpt>
      <trkpt lat="45.08567" lon="5.18344">
        <ele>164.82000732422</ele>
        <time>2009-06-24T12:22:11Z</time>
      </trkpt>
      <trkpt lat="45.0857" lon="5.18536">
        <ele>160.96200561523</ele>
        <time>2009-06-24T12:22:25Z</time>
      </trkpt>
      <trkpt lat="45.0857" lon="5.18675">
        <ele>161.4049987793</ele>
        <time>2009-06-24T12:22:37Z</time>
      </trkpt>
      <trkpt lat="45.08565" lon="5.18739">
        <ele>161.7200012207</ele>
        <time>2009-06-24T12:22:43Z</time>
      </trkpt>
      <trkpt lat="45.08562" lon="5.18782">
        <ele>162.2140045166</ele>
        <time>2009-06-24T12:22:51Z</time>
      </trkpt>
      <trkpt lat="45.0856" lon="5.18874">
        <ele>162.79400634766</ele>
        <time>2009-06-24T12:22:58Z</time>
      </trkpt>
      <trkpt lat="45.08553" lon="5.18984">
        <ele>162.40699768066</ele>
        <time>2009-06-24T12:23:10Z</time>
      </trkpt>
      <trkpt lat="45.0854" lon="5.19138">
        <ele>163.25999450684</ele>
        <time>2009-06-24T12:23:26Z</time>
      </trkpt>
      <trkpt lat="45.08529" lon="5.19288">
        <ele>164.14199829102</ele>
        <time>2009-06-24T12:23:42Z</time>
      </trkpt>
      <trkpt lat="45.08519" lon="5.1943">
        <ele>165.47300720215</ele>
        <time>2009-06-24T12:23:59Z</time>
      </trkpt>
      <trkpt lat="45.08513" lon="5.19581">
        <ele>169.30299377441</ele>
        <time>2009-06-24T12:24:16Z</time>
      </trkpt>
      <trkpt lat="45.08511" lon="5.19711">
        <ele>169.3869934082</ele>
        <time>2009-06-24T12:24:31Z</time>
      </trkpt>
      <trkpt lat="45.08507" lon="5.19898">
        <ele>170.59199523926</ele>
        <time>2009-06-24T12:24:52Z</time>
      </trkpt>
      <trkpt lat="45.08508" lon="5.20063">
        <ele>170.88400268555</ele>
        <time>2009-06-24T12:25:10Z</time>
      </trkpt>
      <trkpt lat="45.08511" lon="5.20256">
        <ele>171.24099731445</ele>
        <time>2009-06-24T12:25:30Z</time>
      </trkpt>
      <trkpt lat="45.08514" lon="5.20427">
        <ele>171.8869934082</ele>
        <time>2009-06-24T12:25:47Z</time>
      </trkpt>
      <trkpt lat="45.08517" lon="5.20634">
        <ele>172.30299377441</ele>
        <time>2009-06-24T12:26:08Z</time>
      </trkpt>
      <trkpt lat="45.08519" lon="5.20833">
        <ele>171.47200012207</ele>
        <time>2009-06-24T12:26:28Z</time>
      </trkpt>
      <trkpt lat="45.08517" lon="5.21014">
        <ele>173.51499938965</ele>
        <time>2009-06-24T12:26:46Z</time>
      </trkpt>
      <trkpt lat="45.08503" lon="5.21071">
        <ele>175.4049987793</ele>
        <time>2009-06-24T12:26:53Z</time>
      </trkpt>
      <trkpt lat="45.08488" lon="5.2112">
        <ele>177.06500244141</ele>
        <time>2009-06-24T12:27:00Z</time>
      </trkpt>
      <trkpt lat="45.08476" lon="5.21194">
        <ele>180.23899841309</ele>
        <time>2009-06-24T12:27:11Z</time>
      </trkpt>
      <trkpt lat="45.08441" lon="5.21268">
        <ele>181.54899597168</ele>
        <time>2009-06-24T12:27:24Z</time>
      </trkpt>
      <trkpt lat="45.08432" lon="5.21303">
        <ele>183.875</ele>
        <time>2009-06-24T12:27:30Z</time>
      </trkpt>
      <trkpt lat="45.08415" lon="5.2137">
        <ele>186.04699707031</ele>
        <time>2009-06-24T12:27:43Z</time>
      </trkpt>
      <trkpt lat="45.08386" lon="5.21441">
        <ele>185.9700012207</ele>
        <time>2009-06-24T12:27:55Z</time>
      </trkpt>
      <trkpt lat="45.08384" lon="5.21471">
        <ele>186.44099426269</ele>
        <time>2009-06-24T12:28:00Z</time>
      </trkpt>
      <trkpt lat="45.08387" lon="5.21482">
        <ele>186.62800598144</ele>
        <time>2009-06-24T12:28:02Z</time>
      </trkpt>
      <trkpt lat="45.08384" lon="5.21513">
        <ele>187.02499389648</ele>
        <time>2009-06-24T12:28:07Z</time>
      </trkpt>
      <trkpt lat="45.08372" lon="5.21542">
        <ele>187.61099243164</ele>
        <time>2009-06-24T12:28:12Z</time>
      </trkpt>
      <trkpt lat="45.08362" lon="5.21557">
        <ele>187.24699401856</ele>
        <time>2009-06-24T12:28:15Z</time>
      </trkpt>
      <trkpt lat="45.08376" lon="5.2161">
        <ele>187.97500610352</ele>
        <time>2009-06-24T12:28:24Z</time>
      </trkpt>
      <trkpt lat="45.08391" lon="5.21619">
        <ele>189.15800476074</ele>
        <time>2009-06-24T12:28:27Z</time>
      </trkpt>
      <trkpt lat="45.08405" lon="5.21636">
        <ele>190.16200256348</ele>
        <time>2009-06-24T12:28:31Z</time>
      </trkpt>
      <trkpt lat="45.08431" lon="5.21707">
        <ele>194.42300415039</ele>
        <time>2009-06-24T12:28:46Z</time>
      </trkpt>
      <trkpt lat="45.08433" lon="5.21729">
        <ele>196.18400573731</ele>
        <time>2009-06-24T12:28:51Z</time>
      </trkpt>
      <trkpt lat="45.08433" lon="5.21736">
        <ele>197.03999328613</ele>
        <time>2009-06-24T12:28:53Z</time>
      </trkpt>
      <trkpt lat="45.08435" lon="5.21771">
        <ele>199.125</ele>
        <time>2009-06-24T12:29:01Z</time>
      </trkpt>
      <trkpt lat="45.08467" lon="5.21809">
        <ele>198.88900756836</ele>
        <time>2009-06-24T12:29:13Z</time>
      </trkpt>
      <trkpt lat="45.08512" lon="5.2184">
        <ele>198.33599853516</ele>
        <time>2009-06-24T12:29:24Z</time>
      </trkpt>
      <trkpt lat="45.0852" lon="5.21843">
        <ele>198.69799804688</ele>
        <time>2009-06-24T12:29:26Z</time>
      </trkpt>
      <trkpt lat="45.08521" lon="5.21859">
        <ele>199.22599792481</ele>
        <time>2009-06-24T12:29:32Z</time>
      </trkpt>
      <trkpt lat="45.08518" lon="5.21864">
        <ele>199.01800537109</ele>
        <time>2009-06-24T12:29:34Z</time>
      </trkpt>
      <trkpt lat="45.08517" lon="5.21867">
        <ele>199.26800537109</ele>
        <time>2009-06-24T12:29:35Z</time>
      </trkpt>
      <trkpt lat="45.08493" lon="5.21914">
        <ele>200.06399536133</ele>
        <time>2009-06-24T12:29:46Z</time>
      </trkpt>
      <trkpt lat="45.08481" lon="5.21948">
        <ele>200.66900634766</ele>
        <time>2009-06-24T12:29:52Z</time>
      </trkpt>
      <trkpt lat="45.0845" lon="5.22035">
        <ele>201.10099792481</ele>
        <time>2009-06-24T12:30:07Z</time>
      </trkpt>
      <trkpt lat="45.0845" lon="5.22035">
        <ele>201.25900268555</ele>
        <time>2009-06-24T12:30:08Z</time>
      </trkpt>
      <trkpt lat="45.0838" lon="5.22156">
        <ele>201.01499938965</ele>
        <time>2009-06-24T12:30:28Z</time>
      </trkpt>
      <trkpt lat="45.08341" lon="5.22265">
        <ele>200.39100646973</ele>
        <time>2009-06-24T12:30:43Z</time>
      </trkpt>
      <trkpt lat="45.08323" lon="5.22382">
        <ele>200.19200134277</ele>
        <time>2009-06-24T12:30:58Z</time>
      </trkpt>
      <trkpt lat="45.08301" lon="5.2247">
        <ele>199.79200744629</ele>
        <time>2009-06-24T12:31:09Z</time>
      </trkpt>
      <trkpt lat="45.08291" lon="5.22489">
        <ele>199.23199462891</ele>
        <time>2009-06-24T12:31:12Z</time>
      </trkpt>
      <trkpt lat="45.08231" lon="5.22576">
        <ele>199.47599792481</ele>
        <time>2009-06-24T12:31:27Z</time>
      </trkpt>
      <trkpt lat="45.08161" lon="5.22675">
        <ele>202.43600463867</ele>
        <time>2009-06-24T12:31:47Z</time>
      </trkpt>
      <trkpt lat="45.08154" lon="5.22687">
        <ele>203.69700622559</ele>
        <time>2009-06-24T12:31:53Z</time>
      </trkpt>
      <trkpt lat="45.08125" lon="5.22731">
        <ele>205.07400512695</ele>
        <time>2009-06-24T12:31:59Z</time>
      </trkpt>
      <trkpt lat="45.08106" lon="5.22763">
        <ele>206.50300598144</ele>
        <time>2009-06-24T12:32:06Z</time>
      </trkpt>
      <trkpt lat="45.0809" lon="5.22798">
        <ele>207.68299865723</ele>
        <time>2009-06-24T12:32:13Z</time>
      </trkpt>
      <trkpt lat="45.0807" lon="5.22848">
        <ele>208.09399414062</ele>
        <time>2009-06-24T12:32:22Z</time>
      </trkpt>
      <trkpt lat="45.08036" lon="5.22958">
        <ele>209.19799804688</ele>
        <time>2009-06-24T12:32:39Z</time>
      </trkpt>
      <trkpt lat="45.08003" lon="5.23083">
        <ele>210.30999755859</ele>
        <time>2009-06-24T12:32:57Z</time>
      </trkpt>
      <trkpt lat="45.07969" lon="5.23183">
        <ele>211.40400695801</ele>
        <time>2009-06-24T12:33:12Z</time>
      </trkpt>
      <trkpt lat="45.0794" lon="5.23267">
        <ele>210.95799255371</ele>
        <time>2009-06-24T12:33:26Z</time>
      </trkpt>
      <trkpt lat="45.07922" lon="5.23312">
        <ele>210.64799499512</ele>
        <time>2009-06-24T12:33:30Z</time>
      </trkpt>
      <trkpt lat="45.07884" lon="5.23394">
        <ele>211.375</ele>
        <time>2009-06-24T12:33:42Z</time>
      </trkpt>
      <trkpt lat="45.07867" lon="5.23435">
        <ele>211.67399597168</ele>
        <time>2009-06-24T12:33:48Z</time>
      </trkpt>
      <trkpt lat="45.07837" lon="5.23557">
        <ele>212</ele>
        <time>2009-06-24T12:34:04Z</time>
      </trkpt>
      <trkpt lat="45.07798" lon="5.23696">
        <ele>211.90699768066</ele>
        <time>2009-06-24T12:34:22Z</time>
      </trkpt>
      <trkpt lat="45.07767" lon="5.23799">
        <ele>211.72599792481</ele>
        <time>2009-06-24T12:34:34Z</time>
      </trkpt>
      <trkpt lat="45.07735" lon="5.23908">
        <ele>214.27499389648</ele>
        <time>2009-06-24T12:34:47Z</time>
      </trkpt>
      <trkpt lat="45.07727" lon="5.23934">
        <ele>212.22500610352</ele>
        <time>2009-06-24T12:34:50Z</time>
      </trkpt>
      <trkpt lat="45.07708" lon="5.23988">
        <ele>211.57699584961</ele>
        <time>2009-06-24T12:34:57Z</time>
      </trkpt>
      <trkpt lat="45.07667" lon="5.24023">
        <ele>210.59800720215</ele>
        <time>2009-06-24T12:35:05Z</time>
      </trkpt>
      <trkpt lat="45.0761" lon="5.24031">
        <ele>209.58999633789</ele>
        <time>2009-06-24T12:35:13Z</time>
      </trkpt>
      <trkpt lat="45.07511" lon="5.24042">
        <ele>209.13000488281</ele>
        <time>2009-06-24T12:35:27Z</time>
      </trkpt>
      <trkpt lat="45.07394" lon="5.24054">
        <ele>208.83999633789</ele>
        <time>2009-06-24T12:35:44Z</time>
      </trkpt>
      <trkpt lat="45.07229" lon="5.24068">
        <ele>204.83099365234</ele>
        <time>2009-06-24T12:36:06Z</time>
      </trkpt>
      <trkpt lat="45.07212" lon="5.24069">
        <ele>203.82000732422</ele>
        <time>2009-06-24T12:36:08Z</time>
      </trkpt>
      <trkpt lat="45.07195" lon="5.24068">
        <ele>202.70199584961</ele>
        <time>2009-06-24T12:36:10Z</time>
      </trkpt>
      <trkpt lat="45.07143" lon="5.24053">
        <ele>201.13900756836</ele>
        <time>2009-06-24T12:36:16Z</time>
      </trkpt>
      <trkpt lat="45.07115" lon="5.24054">
        <ele>200.83299255371</ele>
        <time>2009-06-24T12:36:20Z</time>
      </trkpt>
      <trkpt lat="45.07099" lon="5.24088">
        <ele>200.71099853516</ele>
        <time>2009-06-24T12:36:24Z</time>
      </trkpt>
      <trkpt lat="45.07083" lon="5.24151">
        <ele>200.90100097656</ele>
        <time>2009-06-24T12:36:31Z</time>
      </trkpt>
      <trkpt lat="45.07067" lon="5.24222">
        <ele>201.45399475098</ele>
        <time>2009-06-24T12:36:39Z</time>
      </trkpt>
      <trkpt lat="45.07035" lon="5.24318">
        <ele>200.92900085449</ele>
        <time>2009-06-24T12:36:51Z</time>
      </trkpt>
      <trkpt lat="45.06992" lon="5.24382">
        <ele>200.34199523926</ele>
        <time>2009-06-24T12:37:02Z</time>
      </trkpt>
      <trkpt lat="45.06957" lon="5.24392">
        <ele>199.45799255371</ele>
        <time>2009-06-24T12:37:09Z</time>
      </trkpt>
      <trkpt lat="45.06937" lon="5.24384">
        <ele>198.1609954834</ele>
        <time>2009-06-24T12:37:12Z</time>
      </trkpt>
      <trkpt lat="45.06888" lon="5.24365">
        <ele>196.07099914551</ele>
        <time>2009-06-24T12:37:19Z</time>
      </trkpt>
      <trkpt lat="45.06836" lon="5.24344">
        <ele>193.19000244141</ele>
        <time>2009-06-24T12:37:27Z</time>
      </trkpt>
      <trkpt lat="45.06662" lon="5.24282">
        <ele>189.38900756836</ele>
        <time>2009-06-24T12:37:46Z</time>
      </trkpt>
      <trkpt lat="45.06594" lon="5.24256">
        <ele>189.29699707031</ele>
        <time>2009-06-24T12:37:54Z</time>
      </trkpt>
      <trkpt lat="45.06573" lon="5.24242">
        <ele>189.52799987793</ele>
        <time>2009-06-24T12:37:57Z</time>
      </trkpt>
      <trkpt lat="45.0655" lon="5.2421">
        <ele>191.68299865723</ele>
        <time>2009-06-24T12:38:02Z</time>
      </trkpt>
      <trkpt lat="45.0654" lon="5.2417">
        <ele>193.04200744629</ele>
        <time>2009-06-24T12:38:07Z</time>
      </trkpt>
      <trkpt lat="45.06536" lon="5.24157">
        <ele>193.10099792481</ele>
        <time>2009-06-24T12:38:09Z</time>
      </trkpt>
      <trkpt lat="45.06524" lon="5.24111">
        <ele>194.68299865723</ele>
        <time>2009-06-24T12:38:19Z</time>
      </trkpt>
      <trkpt lat="45.0649" lon="5.24128">
        <ele>195.57899475098</ele>
        <time>2009-06-24T12:38:28Z</time>
      </trkpt>
      <trkpt lat="45.06478" lon="5.24135">
        <ele>195.84800720215</ele>
        <time>2009-06-24T12:38:32Z</time>
      </trkpt>
      <trkpt lat="45.06423" lon="5.24169">
        <ele>196.71000671387</ele>
        <time>2009-06-24T12:38:46Z</time>
      </trkpt>
      <trkpt lat="45.06404" lon="5.24181">
        <ele>196.7140045166</ele>
        <time>2009-06-24T12:38:51Z</time>
      </trkpt>
      <trkpt lat="45.06374" lon="5.24199">
        <ele>197.07699584961</ele>
        <time>2009-06-24T12:38:58Z</time>
      </trkpt>
      <trkpt lat="45.06304" lon="5.24239">
        <ele>197.23500061035</ele>
        <time>2009-06-24T12:39:13Z</time>
      </trkpt>
      <trkpt lat="45.06226" lon="5.24254">
        <ele>195.81799316406</ele>
        <time>2009-06-24T12:39:26Z</time>
      </trkpt>
      <trkpt lat="45.06176" lon="5.2426">
        <ele>194.95199584961</ele>
        <time>2009-06-24T12:39:34Z</time>
      </trkpt>
      <trkpt lat="45.06106" lon="5.24269">
        <ele>193.07099914551</ele>
        <time>2009-06-24T12:39:46Z</time>
      </trkpt>
      <trkpt lat="45.06092" lon="5.24271">
        <ele>192.67100524902</ele>
        <time>2009-06-24T12:39:50Z</time>
      </trkpt>
      <trkpt lat="45.06067" lon="5.24281">
        <ele>192.40400695801</ele>
        <time>2009-06-24T12:39:57Z</time>
      </trkpt>
      <trkpt lat="45.06065" lon="5.24282">
        <ele>192.51100158691</ele>
        <time>2009-06-24T12:40:03Z</time>
      </trkpt>
      <trkpt lat="45.06056" lon="5.24286">
        <ele>191.5359954834</ele>
        <time>2009-06-24T12:40:21Z</time>
      </trkpt>
      <trkpt lat="45.06033" lon="5.24313">
        <ele>188.99800109863</ele>
        <time>2009-06-24T12:40:25Z</time>
      </trkpt>
      <trkpt lat="45.06008" lon="5.24395">
        <ele>182.64300537109</ele>
        <time>2009-06-24T12:40:31Z</time>
      </trkpt>
      <trkpt lat="45.06008" lon="5.24412">
        <ele>181.4700012207</ele>
        <time>2009-06-24T12:40:32Z</time>
      </trkpt>
      <trkpt lat="45.05997" lon="5.24501">
        <ele>181.71099853516</ele>
        <time>2009-06-24T12:40:38Z</time>
      </trkpt>
      <trkpt lat="45.06" lon="5.24537">
        <ele>184.72500610352</ele>
        <time>2009-06-24T12:40:42Z</time>
      </trkpt>
      <trkpt lat="45.06002" lon="5.24547">
        <ele>185.68899536133</ele>
        <time>2009-06-24T12:40:44Z</time>
      </trkpt>
      <trkpt lat="45.05991" lon="5.24556">
        <ele>185.96499633789</ele>
        <time>2009-06-24T12:40:48Z</time>
      </trkpt>
      <trkpt lat="45.05988" lon="5.24557">
        <ele>185.90400695801</ele>
        <time>2009-06-24T12:40:53Z</time>
      </trkpt>
      <trkpt lat="45.05983" lon="5.24569">
        <ele>185.56900024414</ele>
        <time>2009-06-24T12:41:00Z</time>
      </trkpt>
      <trkpt lat="45.05987" lon="5.24609">
        <ele>184.72999572754</ele>
        <time>2009-06-24T12:41:08Z</time>
      </trkpt>
      <trkpt lat="45.05989" lon="5.24629">
        <ele>183.66299438477</ele>
        <time>2009-06-24T12:41:11Z</time>
      </trkpt>
      <trkpt lat="45.06002" lon="5.24666">
        <ele>182.65299987793</ele>
        <time>2009-06-24T12:41:16Z</time>
      </trkpt>
      <trkpt lat="45.06019" lon="5.24684">
        <ele>182.34700012207</ele>
        <time>2009-06-24T12:41:20Z</time>
      </trkpt>
      <trkpt lat="45.06031" lon="5.24689">
        <ele>181.89100646973</ele>
        <time>2009-06-24T12:41:23Z</time>
      </trkpt>
      <trkpt lat="45.06058" lon="5.24702">
        <ele>181.55400085449</ele>
        <time>2009-06-24T12:41:29Z</time>
      </trkpt>
      <trkpt lat="45.06058" lon="5.24742">
        <ele>180.72500610352</ele>
        <time>2009-06-24T12:41:32Z</time>
      </trkpt>
      <trkpt lat="45.06054" lon="5.24767">
        <ele>180.41200256348</ele>
        <time>2009-06-24T12:41:37Z</time>
      </trkpt>
      <trkpt lat="45.06037" lon="5.2483">
        <ele>179.09899902344</ele>
        <time>2009-06-24T12:41:50Z</time>
      </trkpt>
      <trkpt lat="45.06033" lon="5.24842">
        <ele>178.98899841309</ele>
        <time>2009-06-24T12:41:52Z</time>
      </trkpt>
      <trkpt lat="45.06024" lon="5.24869">
        <ele>178.23300170898</ele>
        <time>2009-06-24T12:41:56Z</time>
      </trkpt>
      <trkpt lat="45.05968" lon="5.24963">
        <ele>177.73500061035</ele>
        <time>2009-06-24T12:42:11Z</time>
      </trkpt>
      <trkpt lat="45.05904" lon="5.25028">
        <ele>178.19799804688</ele>
        <time>2009-06-24T12:42:25Z</time>
      </trkpt>
      <trkpt lat="45.05881" lon="5.25051">
        <ele>178.93600463867</ele>
        <time>2009-06-24T12:42:30Z</time>
      </trkpt>
      <trkpt lat="45.05877" lon="5.25055">
        <ele>178.97399902344</ele>
        <time>2009-06-24T12:42:31Z</time>
      </trkpt>
      <trkpt lat="45.05869" lon="5.25063">
        <ele>179.4640045166</ele>
        <time>2009-06-24T12:42:33Z</time>
      </trkpt>
      <trkpt lat="45.05856" lon="5.25076">
        <ele>180.20300292969</ele>
        <time>2009-06-24T12:42:36Z</time>
      </trkpt>
      <trkpt lat="45.05842" lon="5.25102">
        <ele>181.125</ele>
        <time>2009-06-24T12:42:41Z</time>
      </trkpt>
      <trkpt lat="45.0584" lon="5.25115">
        <ele>181.50900268555</ele>
        <time>2009-06-24T12:42:43Z</time>
      </trkpt>
      <trkpt lat="45.05835" lon="5.25141">
        <ele>181.78199768066</ele>
        <time>2009-06-24T12:42:47Z</time>
      </trkpt>
      <trkpt lat="45.05834" lon="5.25155">
        <ele>182.16299438477</ele>
        <time>2009-06-24T12:42:49Z</time>
      </trkpt>
      <trkpt lat="45.05832" lon="5.25181">
        <ele>182.58700561523</ele>
        <time>2009-06-24T12:42:53Z</time>
      </trkpt>
      <trkpt lat="45.05829" lon="5.25258">
        <ele>182.82099914551</ele>
        <time>2009-06-24T12:43:04Z</time>
      </trkpt>
      <trkpt lat="45.05839" lon="5.25382">
        <ele>179.14700317383</ele>
        <time>2009-06-24T12:43:17Z</time>
      </trkpt>
      <trkpt lat="45.0584" lon="5.25393">
        <ele>178.66200256348</ele>
        <time>2009-06-24T12:43:18Z</time>
      </trkpt>
      <trkpt lat="45.05827" lon="5.25459">
        <ele>176.70199584961</ele>
        <time>2009-06-24T12:43:24Z</time>
      </trkpt>
      <trkpt lat="45.05803" lon="5.25534">
        <ele>177.03999328613</ele>
        <time>2009-06-24T12:43:31Z</time>
      </trkpt>
      <trkpt lat="45.05767" lon="5.25632">
        <ele>180.53799438477</ele>
        <time>2009-06-24T12:43:44Z</time>
      </trkpt>
      <trkpt lat="45.05766" lon="5.25651">
        <ele>181.53799438477</ele>
        <time>2009-06-24T12:43:47Z</time>
      </trkpt>
      <trkpt lat="45.05764" lon="5.2567">
        <ele>181.69500732422</ele>
        <time>2009-06-24T12:43:50Z</time>
      </trkpt>
      <trkpt lat="45.05764" lon="5.2574">
        <ele>184.87300109863</ele>
        <time>2009-06-24T12:44:01Z</time>
      </trkpt>
      <trkpt lat="45.05753" lon="5.25771">
        <ele>187.22599792481</ele>
        <time>2009-06-24T12:44:06Z</time>
      </trkpt>
      <trkpt lat="45.05747" lon="5.25762">
        <ele>187.08399963379</ele>
        <time>2009-06-24T12:44:07Z</time>
      </trkpt>
      <trkpt lat="45.05748" lon="5.25748">
        <ele>187.46099853516</ele>
        <time>2009-06-24T12:44:09Z</time>
      </trkpt>
      <trkpt lat="45.05748" lon="5.25715">
        <ele>188.79600524902</ele>
        <time>2009-06-24T12:44:12Z</time>
      </trkpt>
      <trkpt lat="45.05743" lon="5.25697">
        <ele>189.64100646973</ele>
        <time>2009-06-24T12:44:14Z</time>
      </trkpt>
      <trkpt lat="45.05737" lon="5.2568">
        <ele>190.40800476074</ele>
        <time>2009-06-24T12:44:16Z</time>
      </trkpt>
      <trkpt lat="45.05733" lon="5.25672">
        <ele>190.88499450684</ele>
        <time>2009-06-24T12:44:17Z</time>
      </trkpt>
      <trkpt lat="45.05733" lon="5.25672">
        <ele>190.88499450684</ele>
        <time>2009-06-24T12:44:18Z</time>
      </trkpt>
      <trkpt lat="45.05726" lon="5.25656">
        <ele>191.92799377441</ele>
        <time>2009-06-24T12:44:19Z</time>
      </trkpt>
      <trkpt lat="45.05722" lon="5.2565">
        <ele>192.20300292969</ele>
        <time>2009-06-24T12:44:20Z</time>
      </trkpt>
      <trkpt lat="45.05691" lon="5.25608">
        <ele>194.42999267578</ele>
        <time>2009-06-24T12:44:27Z</time>
      </trkpt>
      <trkpt lat="45.0564" lon="5.25601">
        <ele>197.62899780273</ele>
        <time>2009-06-24T12:44:34Z</time>
      </trkpt>
      <trkpt lat="45.05588" lon="5.25615">
        <ele>200.9109954834</ele>
        <time>2009-06-24T12:44:43Z</time>
      </trkpt>
      <trkpt lat="45.05514" lon="5.25695">
        <ele>206.00900268555</ele>
        <time>2009-06-24T12:45:01Z</time>
      </trkpt>
      <trkpt lat="45.05452" lon="5.25791">
        <ele>210.04100036621</ele>
        <time>2009-06-24T12:45:22Z</time>
      </trkpt>
      <trkpt lat="45.05442" lon="5.25837">
        <ele>210.94900512695</ele>
        <time>2009-06-24T12:45:29Z</time>
      </trkpt>
      <trkpt lat="45.05423" lon="5.25946">
        <ele>212.23599243164</ele>
        <time>2009-06-24T12:45:45Z</time>
      </trkpt>
      <trkpt lat="45.05403" lon="5.26061">
        <ele>213.61000061035</ele>
        <time>2009-06-24T12:46:01Z</time>
      </trkpt>
      <trkpt lat="45.05356" lon="5.26155">
        <ele>215.86999511719</ele>
        <time>2009-06-24T12:46:14Z</time>
      </trkpt>
      <trkpt lat="45.05342" lon="5.26178">
        <ele>216.84399414062</ele>
        <time>2009-06-24T12:46:18Z</time>
      </trkpt>
      <trkpt lat="45.05335" lon="5.26189">
        <ele>216.8390045166</ele>
        <time>2009-06-24T12:46:20Z</time>
      </trkpt>
      <trkpt lat="45.0533" lon="5.26221">
        <ele>217.91700744629</ele>
        <time>2009-06-24T12:46:24Z</time>
      </trkpt>
      <trkpt lat="45.05335" lon="5.26295">
        <ele>219.20500183106</ele>
        <time>2009-06-24T12:46:33Z</time>
      </trkpt>
      <trkpt lat="45.05352" lon="5.26429">
        <ele>221.82800292969</ele>
        <time>2009-06-24T12:46:51Z</time>
      </trkpt>
      <trkpt lat="45.05354" lon="5.26487">
        <ele>223.14399719238</ele>
        <time>2009-06-24T12:46:59Z</time>
      </trkpt>
      <trkpt lat="45.05343" lon="5.26529">
        <ele>224.20599365234</ele>
        <time>2009-06-24T12:47:05Z</time>
      </trkpt>
      <trkpt lat="45.05336" lon="5.26547">
        <ele>224.74499511719</ele>
        <time>2009-06-24T12:47:08Z</time>
      </trkpt>
      <trkpt lat="45.05328" lon="5.26561">
        <ele>225.125</ele>
        <time>2009-06-24T12:47:13Z</time>
      </trkpt>
      <trkpt lat="45.05334" lon="5.2655">
        <ele>224.77200317383</ele>
        <time>2009-06-24T12:47:16Z</time>
      </trkpt>
      <trkpt lat="45.05344" lon="5.26526">
        <ele>224.30700683594</ele>
        <time>2009-06-24T12:47:20Z</time>
      </trkpt>
      <trkpt lat="45.05354" lon="5.26487">
        <ele>223.4640045166</ele>
        <time>2009-06-24T12:47:25Z</time>
      </trkpt>
      <trkpt lat="45.05352" lon="5.26428">
        <ele>221.83299255371</ele>
        <time>2009-06-24T12:47:31Z</time>
      </trkpt>
      <trkpt lat="45.05349" lon="5.26403">
        <ele>221.74000549316</ele>
        <time>2009-06-24T12:47:35Z</time>
      </trkpt>
      <trkpt lat="45.0535" lon="5.26417">
        <ele>221.66900634766</ele>
        <time>2009-06-24T12:47:37Z</time>
      </trkpt>
      <trkpt lat="45.05354" lon="5.2648">
        <ele>222.96899414062</ele>
        <time>2009-06-24T12:47:45Z</time>
      </trkpt>
      <trkpt lat="45.05344" lon="5.26527">
        <ele>224.08200073242</ele>
        <time>2009-06-24T12:47:50Z</time>
      </trkpt>
      <trkpt lat="45.05326" lon="5.26562">
        <ele>225.27900695801</ele>
        <time>2009-06-24T12:47:55Z</time>
      </trkpt>
      <trkpt lat="45.05256" lon="5.26628">
        <ele>227.3630065918</ele>
        <time>2009-06-24T12:48:11Z</time>
      </trkpt>
      <trkpt lat="45.0518" lon="5.267">
        <ele>227.64300537109</ele>
        <time>2009-06-24T12:48:28Z</time>
      </trkpt>
      <trkpt lat="45.05141" lon="5.26744">
        <ele>227.87699890137</ele>
        <time>2009-06-24T12:48:37Z</time>
      </trkpt>
      <trkpt lat="45.05105" lon="5.26793">
        <ele>228.14500427246</ele>
        <time>2009-06-24T12:48:46Z</time>
      </trkpt>
      <trkpt lat="45.05085" lon="5.26822">
        <ele>228.50399780273</ele>
        <time>2009-06-24T12:48:51Z</time>
      </trkpt>
      <trkpt lat="45.05084" lon="5.26894">
        <ele>228.6130065918</ele>
        <time>2009-06-24T12:49:00Z</time>
      </trkpt>
      <trkpt lat="45.05105" lon="5.26985">
        <ele>229.14999389648</ele>
        <time>2009-06-24T12:49:11Z</time>
      </trkpt>
      <trkpt lat="45.0511" lon="5.27026">
        <ele>229.54400634766</ele>
        <time>2009-06-24T12:49:16Z</time>
      </trkpt>
      <trkpt lat="45.05083" lon="5.27196">
        <ele>231.58599853516</ele>
        <time>2009-06-24T12:49:37Z</time>
      </trkpt>
      <trkpt lat="45.05073" lon="5.27324">
        <ele>229.96000671387</ele>
        <time>2009-06-24T12:49:52Z</time>
      </trkpt>
      <trkpt lat="45.05073" lon="5.27407">
        <ele>227.75799560547</ele>
        <time>2009-06-24T12:50:00Z</time>
      </trkpt>
      <trkpt lat="45.05073" lon="5.27476">
        <ele>226.73199462891</ele>
        <time>2009-06-24T12:50:06Z</time>
      </trkpt>
      <trkpt lat="45.05073" lon="5.27488">
        <ele>226.57299804688</ele>
        <time>2009-06-24T12:50:07Z</time>
      </trkpt>
      <trkpt lat="45.05091" lon="5.27555">
        <ele>224.66900634766</ele>
        <time>2009-06-24T12:50:13Z</time>
      </trkpt>
      <trkpt lat="45.05109" lon="5.27579">
        <ele>223.55200195312</ele>
        <time>2009-06-24T12:50:16Z</time>
      </trkpt>
      <trkpt lat="45.05146" lon="5.27617">
        <ele>222.16400146484</ele>
        <time>2009-06-24T12:50:21Z</time>
      </trkpt>
      <trkpt lat="45.05162" lon="5.27633">
        <ele>220.95100402832</ele>
        <time>2009-06-24T12:50:23Z</time>
      </trkpt>
      <trkpt lat="45.05194" lon="5.27666">
        <ele>219.13299560547</ele>
        <time>2009-06-24T12:50:27Z</time>
      </trkpt>
      <trkpt lat="45.05225" lon="5.27703">
        <ele>217.76100158691</ele>
        <time>2009-06-24T12:50:31Z</time>
      </trkpt>
      <trkpt lat="45.05265" lon="5.27725">
        <ele>218.49299621582</ele>
        <time>2009-06-24T12:50:36Z</time>
      </trkpt>
      <trkpt lat="45.05281" lon="5.27722">
        <ele>218.69900512695</ele>
        <time>2009-06-24T12:50:38Z</time>
      </trkpt>
      <trkpt lat="45.05289" lon="5.27719">
        <ele>218.75900268555</ele>
        <time>2009-06-24T12:50:39Z</time>
      </trkpt>
      <trkpt lat="45.05336" lon="5.27687">
        <ele>219.87800598144</ele>
        <time>2009-06-24T12:50:46Z</time>
      </trkpt>
      <trkpt lat="45.05398" lon="5.2769">
        <ele>220.42799377441</ele>
        <time>2009-06-24T12:50:55Z</time>
      </trkpt>
      <trkpt lat="45.05483" lon="5.27761">
        <ele>220.13800048828</ele>
        <time>2009-06-24T12:51:08Z</time>
      </trkpt>
      <trkpt lat="45.0551" lon="5.27822">
        <ele>220.16600036621</ele>
        <time>2009-06-24T12:51:15Z</time>
      </trkpt>
      <trkpt lat="45.05515" lon="5.2794">
        <ele>220.2619934082</ele>
        <time>2009-06-24T12:51:29Z</time>
      </trkpt>
      <trkpt lat="45.05515" lon="5.28144">
        <ele>220.27499389648</ele>
        <time>2009-06-24T12:51:48Z</time>
      </trkpt>
      <trkpt lat="45.05516" lon="5.28313">
        <ele>220.05000305176</ele>
        <time>2009-06-24T12:52:05Z</time>
      </trkpt>
      <trkpt lat="45.05508" lon="5.28557">
        <ele>220.68099975586</ele>
        <time>2009-06-24T12:52:30Z</time>
      </trkpt>
      <trkpt lat="45.05506" lon="5.28567">
        <ele>220.76600646973</ele>
        <time>2009-06-24T12:52:31Z</time>
      </trkpt>
      <trkpt lat="45.0549" lon="5.28621">
        <ele>221.02699279785</ele>
        <time>2009-06-24T12:52:37Z</time>
      </trkpt>
      <trkpt lat="45.05442" lon="5.28722">
        <ele>222.4880065918</ele>
        <time>2009-06-24T12:52:50Z</time>
      </trkpt>
      <trkpt lat="45.05371" lon="5.28881">
        <ele>223.85200500488</ele>
        <time>2009-06-24T12:53:11Z</time>
      </trkpt>
      <trkpt lat="45.05329" lon="5.28979">
        <ele>224.39999389648</ele>
        <time>2009-06-24T12:53:24Z</time>
      </trkpt>
      <trkpt lat="45.05296" lon="5.29056">
        <ele>224.90600585938</ele>
        <time>2009-06-24T12:53:35Z</time>
      </trkpt>
      <trkpt lat="45.05228" lon="5.292">
        <ele>225.97799682617</ele>
        <time>2009-06-24T12:53:56Z</time>
      </trkpt>
      <trkpt lat="45.05221" lon="5.29214">
        <ele>226.22599792481</ele>
        <time>2009-06-24T12:53:58Z</time>
      </trkpt>
      <trkpt lat="45.05148" lon="5.29277">
        <ele>227.3450012207</ele>
        <time>2009-06-24T12:54:12Z</time>
      </trkpt>
      <trkpt lat="45.05076" lon="5.29329">
        <ele>228.44900512695</ele>
        <time>2009-06-24T12:54:25Z</time>
      </trkpt>
      <trkpt lat="45.05022" lon="5.29372">
        <ele>229.40800476074</ele>
        <time>2009-06-24T12:54:35Z</time>
      </trkpt>
      <trkpt lat="45.04916" lon="5.29449">
        <ele>229.9640045166</ele>
        <time>2009-06-24T12:54:54Z</time>
      </trkpt>
      <trkpt lat="45.04906" lon="5.29459">
        <ele>230.10000610352</ele>
        <time>2009-06-24T12:54:56Z</time>
      </trkpt>
      <trkpt lat="45.0489" lon="5.29474">
        <ele>229.90400695801</ele>
        <time>2009-06-24T12:54:59Z</time>
      </trkpt>
      <trkpt lat="45.04839" lon="5.29522">
        <ele>229.62100219727</ele>
        <time>2009-06-24T12:55:08Z</time>
      </trkpt>
      <trkpt lat="45.04806" lon="5.29533">
        <ele>230.18699645996</ele>
        <time>2009-06-24T12:55:13Z</time>
      </trkpt>
      <trkpt lat="45.04683" lon="5.29622">
        <ele>233.21800231934</ele>
        <time>2009-06-24T12:55:35Z</time>
      </trkpt>
      <trkpt lat="45.04554" lon="5.29715">
        <ele>232.10800170898</ele>
        <time>2009-06-24T12:55:56Z</time>
      </trkpt>
      <trkpt lat="45.04538" lon="5.29726">
        <ele>231.95399475098</ele>
        <time>2009-06-24T12:55:58Z</time>
      </trkpt>
      <trkpt lat="45.04471" lon="5.29748">
        <ele>229.80299377441</ele>
        <time>2009-06-24T12:56:06Z</time>
      </trkpt>
      <trkpt lat="45.04385" lon="5.29747">
        <ele>229.94200134277</ele>
        <time>2009-06-24T12:56:17Z</time>
      </trkpt>
      <trkpt lat="45.04262" lon="5.29724">
        <ele>231.38900756836</ele>
        <time>2009-06-24T12:56:36Z</time>
      </trkpt>
      <trkpt lat="45.0419" lon="5.29713">
        <ele>234.05299377441</ele>
        <time>2009-06-24T12:56:49Z</time>
      </trkpt>
      <trkpt lat="45.04166" lon="5.29713">
        <ele>235.11099243164</ele>
        <time>2009-06-24T12:56:54Z</time>
      </trkpt>
      <trkpt lat="45.04156" lon="5.29713">
        <ele>235.31500244141</ele>
        <time>2009-06-24T12:56:56Z</time>
      </trkpt>
      <trkpt lat="45.04129" lon="5.29713">
        <ele>236.77299499512</ele>
        <time>2009-06-24T12:57:04Z</time>
      </trkpt>
      <trkpt lat="45.04028" lon="5.29715">
        <ele>238.93600463867</ele>
        <time>2009-06-24T12:57:20Z</time>
      </trkpt>
      <trkpt lat="45.03941" lon="5.29724">
        <ele>241.22399902344</ele>
        <time>2009-06-24T12:57:38Z</time>
      </trkpt>
      <trkpt lat="45.03854" lon="5.29731">
        <ele>240.03300476074</ele>
        <time>2009-06-24T12:57:52Z</time>
      </trkpt>
      <trkpt lat="45.03808" lon="5.29732">
        <ele>239.91200256348</ele>
        <time>2009-06-24T12:57:59Z</time>
      </trkpt>
      <trkpt lat="45.03783" lon="5.29733">
        <ele>240.47399902344</ele>
        <time>2009-06-24T12:58:04Z</time>
      </trkpt>
      <trkpt lat="45.03725" lon="5.29732">
        <ele>242.36599731445</ele>
        <time>2009-06-24T12:58:15Z</time>
      </trkpt>
      <trkpt lat="45.03661" lon="5.29678">
        <ele>242.18400573731</ele>
        <time>2009-06-24T12:58:28Z</time>
      </trkpt>
      <trkpt lat="45.03561" lon="5.29556">
        <ele>241.05299377441</ele>
        <time>2009-06-24T12:58:48Z</time>
      </trkpt>
      <trkpt lat="45.03502" lon="5.29452">
        <ele>238.21499633789</ele>
        <time>2009-06-24T12:59:01Z</time>
      </trkpt>
      <trkpt lat="45.03487" lon="5.29423">
        <ele>237.25500488281</ele>
        <time>2009-06-24T12:59:04Z</time>
      </trkpt>
      <trkpt lat="45.03476" lon="5.29402">
        <ele>236.6369934082</ele>
        <time>2009-06-24T12:59:06Z</time>
      </trkpt>
      <trkpt lat="45.03471" lon="5.29392">
        <ele>236.08999633789</ele>
        <time>2009-06-24T12:59:07Z</time>
      </trkpt>
      <trkpt lat="45.03407" lon="5.29327">
        <ele>234.53900146484</ele>
        <time>2009-06-24T12:59:16Z</time>
      </trkpt>
      <trkpt lat="45.03379" lon="5.29302">
        <ele>234.35299682617</ele>
        <time>2009-06-24T12:59:20Z</time>
      </trkpt>
      <trkpt lat="45.03334" lon="5.29264">
        <ele>234.85699462891</ele>
        <time>2009-06-24T12:59:27Z</time>
      </trkpt>
      <trkpt lat="45.03327" lon="5.29259">
        <ele>235.14500427246</ele>
        <time>2009-06-24T12:59:28Z</time>
      </trkpt>
      <trkpt lat="45.03233" lon="5.29182">
        <ele>234.55400085449</ele>
        <time>2009-06-24T12:59:44Z</time>
      </trkpt>
      <trkpt lat="45.03138" lon="5.29101">
        <ele>233.86799621582</ele>
        <time>2009-06-24T12:59:59Z</time>
      </trkpt>
      <trkpt lat="45.03062" lon="5.29031">
        <ele>234.72700500488</ele>
        <time>2009-06-24T13:00:13Z</time>
      </trkpt>
      <trkpt lat="45.02978" lon="5.28956">
        <ele>233.34199523926</ele>
        <time>2009-06-24T13:00:28Z</time>
      </trkpt>
      <trkpt lat="45.02944" lon="5.28941">
        <ele>232.61700439453</ele>
        <time>2009-06-24T13:00:33Z</time>
      </trkpt>
      <trkpt lat="45.02874" lon="5.2895">
        <ele>229.94599914551</ele>
        <time>2009-06-24T13:00:42Z</time>
      </trkpt>
      <trkpt lat="45.02848" lon="5.2895">
        <ele>228.41200256348</ele>
        <time>2009-06-24T13:00:45Z</time>
      </trkpt>
      <trkpt lat="45.02767" lon="5.28907">
        <ele>225.62300109863</ele>
        <time>2009-06-24T13:00:54Z</time>
      </trkpt>
      <trkpt lat="45.02668" lon="5.28825">
        <ele>226.27200317383</ele>
        <time>2009-06-24T13:01:08Z</time>
      </trkpt>
      <trkpt lat="45.02619" lon="5.2879">
        <ele>227.62300109863</ele>
        <time>2009-06-24T13:01:18Z</time>
      </trkpt>
      <trkpt lat="45.02596" lon="5.2879">
        <ele>228.80799865723</ele>
        <time>2009-06-24T13:01:23Z</time>
      </trkpt>
      <trkpt lat="45.02575" lon="5.2879">
        <ele>230.1549987793</ele>
        <time>2009-06-24T13:01:30Z</time>
      </trkpt>
      <trkpt lat="45.02554" lon="5.28782">
        <ele>230.54299926758</ele>
        <time>2009-06-24T13:01:33Z</time>
      </trkpt>
      <trkpt lat="45.02537" lon="5.2877">
        <ele>230.23100280762</ele>
        <time>2009-06-24T13:01:37Z</time>
      </trkpt>
      <trkpt lat="45.02523" lon="5.28747">
        <ele>229.41499328613</ele>
        <time>2009-06-24T13:01:41Z</time>
      </trkpt>
      <trkpt lat="45.0249" lon="5.28688">
        <ele>229.55400085449</ele>
        <time>2009-06-24T13:01:50Z</time>
      </trkpt>
      <trkpt lat="45.02434" lon="5.28666">
        <ele>229.64700317383</ele>
        <time>2009-06-24T13:02:00Z</time>
      </trkpt>
      <trkpt lat="45.02423" lon="5.28667">
        <ele>230.04499816894</ele>
        <time>2009-06-24T13:02:02Z</time>
      </trkpt>
      <trkpt lat="45.02364" lon="5.2872">
        <ele>231.37300109863</ele>
        <time>2009-06-24T13:02:16Z</time>
      </trkpt>
      <trkpt lat="45.0235" lon="5.28737">
        <ele>232.07600402832</ele>
        <time>2009-06-24T13:02:20Z</time>
      </trkpt>
      <trkpt lat="45.02324" lon="5.28768">
        <ele>232.74200439453</ele>
        <time>2009-06-24T13:02:27Z</time>
      </trkpt>
      <trkpt lat="45.02284" lon="5.28864">
        <ele>234.12899780273</ele>
        <time>2009-06-24T13:02:43Z</time>
      </trkpt>
      <trkpt lat="45.02278" lon="5.28882">
        <ele>234.65400695801</ele>
        <time>2009-06-24T13:02:46Z</time>
      </trkpt>
      <trkpt lat="45.02275" lon="5.28893">
        <ele>234.59599304199</ele>
        <time>2009-06-24T13:02:48Z</time>
      </trkpt>
      <trkpt lat="45.02262" lon="5.28911">
        <ele>235.64900207519</ele>
        <time>2009-06-24T13:02:52Z</time>
      </trkpt>
      <trkpt lat="45.02234" lon="5.2895">
        <ele>237.70100402832</ele>
        <time>2009-06-24T13:03:02Z</time>
      </trkpt>
      <trkpt lat="45.02206" lon="5.28991">
        <ele>239.60899353027</ele>
        <time>2009-06-24T13:03:12Z</time>
      </trkpt>
      <trkpt lat="45.02178" lon="5.2902">
        <ele>241.58700561523</ele>
        <time>2009-06-24T13:03:21Z</time>
      </trkpt>
      <trkpt lat="45.02165" lon="5.29033">
        <ele>242.31700134277</ele>
        <time>2009-06-24T13:03:25Z</time>
      </trkpt>
      <trkpt lat="45.02123" lon="5.29084">
        <ele>245.35299682617</ele>
        <time>2009-06-24T13:03:38Z</time>
      </trkpt>
      <trkpt lat="45.02081" lon="5.29133">
        <ele>246.83000183106</ele>
        <time>2009-06-24T13:03:52Z</time>
      </trkpt>
      <trkpt lat="45.02073" lon="5.29141">
        <ele>247.19200134277</ele>
        <time>2009-06-24T13:03:57Z</time>
      </trkpt>
      <trkpt lat="45.02047" lon="5.29129">
        <ele>246.92999267578</ele>
        <time>2009-06-24T13:04:05Z</time>
      </trkpt>
      <trkpt lat="45.02011" lon="5.2911">
        <ele>247.27499389648</ele>
        <time>2009-06-24T13:04:12Z</time>
      </trkpt>
      <trkpt lat="45.01917" lon="5.29062">
        <ele>247.22599792481</ele>
        <time>2009-06-24T13:04:27Z</time>
      </trkpt>
      <trkpt lat="45.01852" lon="5.29027">
        <ele>247.15699768066</ele>
        <time>2009-06-24T13:04:37Z</time>
      </trkpt>
      <trkpt lat="45.0182" lon="5.28992">
        <ele>248.35099792481</ele>
        <time>2009-06-24T13:04:43Z</time>
      </trkpt>
      <trkpt lat="45.01801" lon="5.28949">
        <ele>249.13299560547</ele>
        <time>2009-06-24T13:04:48Z</time>
      </trkpt>
      <trkpt lat="45.0174" lon="5.28917">
        <ele>249.85800170898</ele>
        <time>2009-06-24T13:04:57Z</time>
      </trkpt>
      <trkpt lat="45.01651" lon="5.28879">
        <ele>250.62300109863</ele>
        <time>2009-06-24T13:05:10Z</time>
      </trkpt>
      <trkpt lat="45.01589" lon="5.28852">
        <ele>251.60299682617</ele>
        <time>2009-06-24T13:05:20Z</time>
      </trkpt>
      <trkpt lat="45.01549" lon="5.28837">
        <ele>252.27400207519</ele>
        <time>2009-06-24T13:05:27Z</time>
      </trkpt>
      <trkpt lat="45.01538" lon="5.28834">
        <ele>252.27200317383</ele>
        <time>2009-06-24T13:05:29Z</time>
      </trkpt>
      <trkpt lat="45.01522" lon="5.28833">
        <ele>252.36099243164</ele>
        <time>2009-06-24T13:05:32Z</time>
      </trkpt>
      <trkpt lat="45.01509" lon="5.28833">
        <ele>252.32600402832</ele>
        <time>2009-06-24T13:05:34Z</time>
      </trkpt>
      <trkpt lat="45.01497" lon="5.28833">
        <ele>252.42799377441</ele>
        <time>2009-06-24T13:05:36Z</time>
      </trkpt>
      <trkpt lat="45.01445" lon="5.28833">
        <ele>253.39999389648</ele>
        <time>2009-06-24T13:05:45Z</time>
      </trkpt>
      <trkpt lat="45.01387" lon="5.28848">
        <ele>254.29800415039</ele>
        <time>2009-06-24T13:05:56Z</time>
      </trkpt>
      <trkpt lat="45.01347" lon="5.28854">
        <ele>254.79200744629</ele>
        <time>2009-06-24T13:06:03Z</time>
      </trkpt>
      <trkpt lat="45.0129" lon="5.2884">
        <ele>255.97500610352</ele>
        <time>2009-06-24T13:06:13Z</time>
      </trkpt>
      <trkpt lat="45.01253" lon="5.28854">
        <ele>256.92001342773</ele>
        <time>2009-06-24T13:06:22Z</time>
      </trkpt>
      <trkpt lat="45.01237" lon="5.28843">
        <ele>256.85598754883</ele>
        <time>2009-06-24T13:06:23Z</time>
      </trkpt>
      <trkpt lat="45.01207" lon="5.2883">
        <ele>255.54699707031</ele>
        <time>2009-06-24T13:06:28Z</time>
      </trkpt>
      <trkpt lat="45.01125" lon="5.28775">
        <ele>253.01699829102</ele>
        <time>2009-06-24T13:06:40Z</time>
      </trkpt>
      <trkpt lat="45.00997" lon="5.28671">
        <ele>252.31199645996</ele>
        <time>2009-06-24T13:06:57Z</time>
      </trkpt>
      <trkpt lat="45.00909" lon="5.28599">
        <ele>254.37199401856</ele>
        <time>2009-06-24T13:07:12Z</time>
      </trkpt>
      <trkpt lat="45.00899" lon="5.2859">
        <ele>254.39900207519</ele>
        <time>2009-06-24T13:07:14Z</time>
      </trkpt>
      <trkpt lat="45.00834" lon="5.28535">
        <ele>254.17999267578</ele>
        <time>2009-06-24T13:07:26Z</time>
      </trkpt>
      <trkpt lat="45.00734" lon="5.28453">
        <ele>254.46000671387</ele>
        <time>2009-06-24T13:07:42Z</time>
      </trkpt>
      <trkpt lat="45.00648" lon="5.28382">
        <ele>255.67500305176</ele>
        <time>2009-06-24T13:07:58Z</time>
      </trkpt>
      <trkpt lat="45.00562" lon="5.28306">
        <ele>256.90100097656</ele>
        <time>2009-06-24T13:08:13Z</time>
      </trkpt>
      <trkpt lat="45.0054" lon="5.28286">
        <ele>257.07800292969</ele>
        <time>2009-06-24T13:08:17Z</time>
      </trkpt>
      <trkpt lat="45.00514" lon="5.28222">
        <ele>258.25299072266</ele>
        <time>2009-06-24T13:08:26Z</time>
      </trkpt>
      <trkpt lat="45.00515" lon="5.28124">
        <ele>259.1669921875</ele>
        <time>2009-06-24T13:08:37Z</time>
      </trkpt>
      <trkpt lat="45.00517" lon="5.28105">
        <ele>259.39199829102</ele>
        <time>2009-06-24T13:08:39Z</time>
      </trkpt>
      <trkpt lat="45.00486" lon="5.28012">
        <ele>261.87200927734</ele>
        <time>2009-06-24T13:08:51Z</time>
      </trkpt>
      <trkpt lat="45.00481" lon="5.28006">
        <ele>262.1669921875</ele>
        <time>2009-06-24T13:08:52Z</time>
      </trkpt>
      <trkpt lat="45.00426" lon="5.27955">
        <ele>263.86700439453</ele>
        <time>2009-06-24T13:09:02Z</time>
      </trkpt>
      <trkpt lat="45.00338" lon="5.27878">
        <ele>266.57699584961</ele>
        <time>2009-06-24T13:09:18Z</time>
      </trkpt>
      <trkpt lat="45.00234" lon="5.27782">
        <ele>269.89099121094</ele>
        <time>2009-06-24T13:09:38Z</time>
      </trkpt>
      <trkpt lat="45.00132" lon="5.27687">
        <ele>274.09399414062</ele>
        <time>2009-06-24T13:10:00Z</time>
      </trkpt>
      <trkpt lat="45.00055" lon="5.27617">
        <ele>277.23901367188</ele>
        <time>2009-06-24T13:10:17Z</time>
      </trkpt>
      <trkpt lat="44.99987" lon="5.27554">
        <ele>279.76501464844</ele>
        <time>2009-06-24T13:10:33Z</time>
      </trkpt>
      <trkpt lat="44.99967" lon="5.27534">
        <ele>280.69799804688</ele>
        <time>2009-06-24T13:10:38Z</time>
      </trkpt>
      <trkpt lat="44.99918" lon="5.27472">
        <ele>283.1789855957</ele>
        <time>2009-06-24T13:10:52Z</time>
      </trkpt>
      <trkpt lat="44.99896" lon="5.27446">
        <ele>284.19400024414</ele>
        <time>2009-06-24T13:10:58Z</time>
      </trkpt>
      <trkpt lat="44.99884" lon="5.27434">
        <ele>284.34201049805</ele>
        <time>2009-06-24T13:11:01Z</time>
      </trkpt>
      <trkpt lat="44.99865" lon="5.27418">
        <ele>285.25601196289</ele>
        <time>2009-06-24T13:11:06Z</time>
      </trkpt>
      <trkpt lat="44.9985" lon="5.27412">
        <ele>285.1789855957</ele>
        <time>2009-06-24T13:11:09Z</time>
      </trkpt>
      <trkpt lat="44.9981" lon="5.27398">
        <ele>286.4880065918</ele>
        <time>2009-06-24T13:11:17Z</time>
      </trkpt>
      <trkpt lat="44.99792" lon="5.27392">
        <ele>287.85198974609</ele>
        <time>2009-06-24T13:11:21Z</time>
      </trkpt>
      <trkpt lat="44.99773" lon="5.27399">
        <ele>288.92999267578</ele>
        <time>2009-06-24T13:11:26Z</time>
      </trkpt>
      <trkpt lat="44.99727" lon="5.27408">
        <ele>292.18899536133</ele>
        <time>2009-06-24T13:11:38Z</time>
      </trkpt>
      <trkpt lat="44.99723" lon="5.27407">
        <ele>292.67999267578</ele>
        <time>2009-06-24T13:11:39Z</time>
      </trkpt>
      <trkpt lat="44.9969" lon="5.27404">
        <ele>294.98001098633</ele>
        <time>2009-06-24T13:11:47Z</time>
      </trkpt>
      <trkpt lat="44.99674" lon="5.27399">
        <ele>296.06201171875</ele>
        <time>2009-06-24T13:11:51Z</time>
      </trkpt>
      <trkpt lat="44.99632" lon="5.27388">
        <ele>298.48400878906</ele>
        <time>2009-06-24T13:12:02Z</time>
      </trkpt>
      <trkpt lat="44.9957" lon="5.27347">
        <ele>302.49398803711</ele>
        <time>2009-06-24T13:12:19Z</time>
      </trkpt>
      <trkpt lat="44.99511" lon="5.27305">
        <ele>306.69799804688</ele>
        <time>2009-06-24T13:12:36Z</time>
      </trkpt>
      <trkpt lat="44.99492" lon="5.27292">
        <ele>307.81201171875</ele>
        <time>2009-06-24T13:12:41Z</time>
      </trkpt>
      <trkpt lat="44.9945" lon="5.27257">
        <ele>310.47100830078</ele>
        <time>2009-06-24T13:12:53Z</time>
      </trkpt>
      <trkpt lat="44.99412" lon="5.27211">
        <ele>313.41799926758</ele>
        <time>2009-06-24T13:13:05Z</time>
      </trkpt>
      <trkpt lat="44.99364" lon="5.27149">
        <ele>317.20098876953</ele>
        <time>2009-06-24T13:13:21Z</time>
      </trkpt>
      <trkpt lat="44.99321" lon="5.27099">
        <ele>320.63500976562</ele>
        <time>2009-06-24T13:13:35Z</time>
      </trkpt>
      <trkpt lat="44.99286" lon="5.27058">
        <ele>323.83898925781</ele>
        <time>2009-06-24T13:13:48Z</time>
      </trkpt>
      <trkpt lat="44.99252" lon="5.27007">
        <ele>326.99200439453</ele>
        <time>2009-06-24T13:14:01Z</time>
      </trkpt>
      <trkpt lat="44.99237" lon="5.26954">
        <ele>328.91799926758</ele>
        <time>2009-06-24T13:14:12Z</time>
      </trkpt>
      <trkpt lat="44.99193" lon="5.26871">
        <ele>332.50799560547</ele>
        <time>2009-06-24T13:14:30Z</time>
      </trkpt>
      <trkpt lat="44.99133" lon="5.26804">
        <ele>335.42098999023</ele>
        <time>2009-06-24T13:14:49Z</time>
      </trkpt>
      <trkpt lat="44.99116" lon="5.26785">
        <ele>336.24099731445</ele>
        <time>2009-06-24T13:14:54Z</time>
      </trkpt>
      <trkpt lat="44.99102" lon="5.26769">
        <ele>336.78399658203</ele>
        <time>2009-06-24T13:14:58Z</time>
      </trkpt>
      <trkpt lat="44.99059" lon="5.26723">
        <ele>338.57901000977</ele>
        <time>2009-06-24T13:15:10Z</time>
      </trkpt>
      <trkpt lat="44.98981" lon="5.26626">
        <ele>341.88400268555</ele>
        <time>2009-06-24T13:15:33Z</time>
      </trkpt>
      <trkpt lat="44.98971" lon="5.26592">
        <ele>342.95700073242</ele>
        <time>2009-06-24T13:15:39Z</time>
      </trkpt>
      <trkpt lat="44.98952" lon="5.26511">
        <ele>346.71099853516</ele>
        <time>2009-06-24T13:15:55Z</time>
      </trkpt>
      <trkpt lat="44.98941" lon="5.26464">
        <ele>349.10800170898</ele>
        <time>2009-06-24T13:16:06Z</time>
      </trkpt>
      <trkpt lat="44.98928" lon="5.2641">
        <ele>351.18499755859</ele>
        <time>2009-06-24T13:16:17Z</time>
      </trkpt>
      <trkpt lat="44.98923" lon="5.26331">
        <ele>353.99700927734</ele>
        <time>2009-06-24T13:16:33Z</time>
      </trkpt>
      <trkpt lat="44.98938" lon="5.26279">
        <ele>357.00601196289</ele>
        <time>2009-06-24T13:16:45Z</time>
      </trkpt>
      <trkpt lat="44.98972" lon="5.2622">
        <ele>360.22601318359</ele>
        <time>2009-06-24T13:17:01Z</time>
      </trkpt>
      <trkpt lat="44.99008" lon="5.26156">
        <ele>363.82998657227</ele>
        <time>2009-06-24T13:17:17Z</time>
      </trkpt>
      <trkpt lat="44.99052" lon="5.26108">
        <ele>366.82998657227</ele>
        <time>2009-06-24T13:17:32Z</time>
      </trkpt>
      <trkpt lat="44.99098" lon="5.26079">
        <ele>369.88598632812</ele>
        <time>2009-06-24T13:17:47Z</time>
      </trkpt>
      <trkpt lat="44.9914" lon="5.26072">
        <ele>372</ele>
        <time>2009-06-24T13:17:59Z</time>
      </trkpt>
      <trkpt lat="44.99195" lon="5.26064">
        <ele>374.87701416016</ele>
        <time>2009-06-24T13:18:14Z</time>
      </trkpt>
      <trkpt lat="44.9926" lon="5.26034">
        <ele>377.90399169922</ele>
        <time>2009-06-24T13:18:32Z</time>
      </trkpt>
      <trkpt lat="44.99327" lon="5.25977">
        <ele>381.35598754883</ele>
        <time>2009-06-24T13:18:51Z</time>
      </trkpt>
      <trkpt lat="44.99391" lon="5.25944">
        <ele>384.93301391602</ele>
        <time>2009-06-24T13:19:08Z</time>
      </trkpt>
      <trkpt lat="44.9945" lon="5.25918">
        <ele>387.81399536133</ele>
        <time>2009-06-24T13:19:24Z</time>
      </trkpt>
      <trkpt lat="44.9952" lon="5.25902">
        <ele>392.19400024414</ele>
        <time>2009-06-24T13:19:43Z</time>
      </trkpt>
      <trkpt lat="44.99576" lon="5.2588">
        <ele>395.4469909668</ele>
        <time>2009-06-24T13:19:58Z</time>
      </trkpt>
      <trkpt lat="44.99608" lon="5.25818">
        <ele>398.87100219727</ele>
        <time>2009-06-24T13:20:12Z</time>
      </trkpt>
      <trkpt lat="44.9961" lon="5.25786">
        <ele>399.73999023438</ele>
        <time>2009-06-24T13:20:17Z</time>
      </trkpt>
      <trkpt lat="44.9959" lon="5.25797">
        <ele>401.08401489258</ele>
        <time>2009-06-24T13:20:24Z</time>
      </trkpt>
      <trkpt lat="44.99578" lon="5.2583">
        <ele>402.38800048828</ele>
        <time>2009-06-24T13:20:30Z</time>
      </trkpt>
      <trkpt lat="44.99566" lon="5.25854">
        <ele>404.17098999023</ele>
        <time>2009-06-24T13:20:35Z</time>
      </trkpt>
      <trkpt lat="44.99517" lon="5.2585">
        <ele>407.58898925781</ele>
        <time>2009-06-24T13:20:47Z</time>
      </trkpt>
      <trkpt lat="44.99469" lon="5.25804">
        <ele>411.27301025391</ele>
        <time>2009-06-24T13:21:03Z</time>
      </trkpt>
      <trkpt lat="44.99435" lon="5.25733">
        <ele>415.16198730469</ele>
        <time>2009-06-24T13:21:20Z</time>
      </trkpt>
      <trkpt lat="44.99391" lon="5.25704">
        <ele>418.06698608398</ele>
        <time>2009-06-24T13:21:36Z</time>
      </trkpt>
      <trkpt lat="44.99312" lon="5.25675">
        <ele>422.38598632812</ele>
        <time>2009-06-24T13:21:56Z</time>
      </trkpt>
      <trkpt lat="44.99247" lon="5.25675">
        <ele>425.50900268555</ele>
        <time>2009-06-24T13:22:13Z</time>
      </trkpt>
      <trkpt lat="44.99183" lon="5.25656">
        <ele>429.34100341797</ele>
        <time>2009-06-24T13:22:31Z</time>
      </trkpt>
      <trkpt lat="44.99134" lon="5.25652">
        <ele>432.39801025391</ele>
        <time>2009-06-24T13:22:45Z</time>
      </trkpt>
      <trkpt lat="44.99091" lon="5.25652">
        <ele>435.11199951172</ele>
        <time>2009-06-24T13:22:57Z</time>
      </trkpt>
      <trkpt lat="44.99068" lon="5.25617">
        <ele>437.45901489258</ele>
        <time>2009-06-24T13:23:08Z</time>
      </trkpt>
      <trkpt lat="44.99039" lon="5.25545">
        <ele>440.79098510742</ele>
        <time>2009-06-24T13:23:25Z</time>
      </trkpt>
      <trkpt lat="44.99003" lon="5.25488">
        <ele>443.44900512695</ele>
        <time>2009-06-24T13:23:39Z</time>
      </trkpt>
      <trkpt lat="44.98948" lon="5.25443">
        <ele>447.39001464844</ele>
        <time>2009-06-24T13:23:56Z</time>
      </trkpt>
      <trkpt lat="44.98895" lon="5.25401">
        <ele>450.51501464844</ele>
        <time>2009-06-24T13:24:13Z</time>
      </trkpt>
      <trkpt lat="44.98823" lon="5.25367">
        <ele>454.68600463867</ele>
        <time>2009-06-24T13:24:34Z</time>
      </trkpt>
      <trkpt lat="44.98763" lon="5.25348">
        <ele>458.29299926758</ele>
        <time>2009-06-24T13:24:52Z</time>
      </trkpt>
      <trkpt lat="44.987" lon="5.25343">
        <ele>462.01000976562</ele>
        <time>2009-06-24T13:25:09Z</time>
      </trkpt>
      <trkpt lat="44.98647" lon="5.25365">
        <ele>464.64300537109</ele>
        <time>2009-06-24T13:25:24Z</time>
      </trkpt>
      <trkpt lat="44.98598" lon="5.2538">
        <ele>467.41299438477</ele>
        <time>2009-06-24T13:25:38Z</time>
      </trkpt>
      <trkpt lat="44.98577" lon="5.25361">
        <ele>469.53601074219</ele>
        <time>2009-06-24T13:25:46Z</time>
      </trkpt>
      <trkpt lat="44.98596" lon="5.25317">
        <ele>471.40100097656</ele>
        <time>2009-06-24T13:25:56Z</time>
      </trkpt>
      <trkpt lat="44.98644" lon="5.25245">
        <ele>474.91299438477</ele>
        <time>2009-06-24T13:26:14Z</time>
      </trkpt>
      <trkpt lat="44.98683" lon="5.25163">
        <ele>478.82598876953</ele>
        <time>2009-06-24T13:26:33Z</time>
      </trkpt>
      <trkpt lat="44.98707" lon="5.25102">
        <ele>482.0119934082</ele>
        <time>2009-06-24T13:26:47Z</time>
      </trkpt>
      <trkpt lat="44.987" lon="5.25037">
        <ele>484.41000366211</ele>
        <time>2009-06-24T13:27:01Z</time>
      </trkpt>
      <trkpt lat="44.98667" lon="5.24985">
        <ele>487.25201416016</ele>
        <time>2009-06-24T13:27:16Z</time>
      </trkpt>
      <trkpt lat="44.98621" lon="5.24991">
        <ele>490.27600097656</ele>
        <time>2009-06-24T13:27:30Z</time>
      </trkpt>
      <trkpt lat="44.98571" lon="5.25003">
        <ele>492.93301391602</ele>
        <time>2009-06-24T13:27:45Z</time>
      </trkpt>
      <trkpt lat="44.98512" lon="5.25003">
        <ele>496.52899169922</ele>
        <time>2009-06-24T13:28:01Z</time>
      </trkpt>
      <trkpt lat="44.98442" lon="5.25001">
        <ele>500.0719909668</ele>
        <time>2009-06-24T13:28:19Z</time>
      </trkpt>
      <trkpt lat="44.98381" lon="5.25014">
        <ele>503.63500976562</ele>
        <time>2009-06-24T13:28:35Z</time>
      </trkpt>
      <trkpt lat="44.98315" lon="5.25029">
        <ele>507.33599853516</ele>
        <time>2009-06-24T13:28:54Z</time>
      </trkpt>
      <trkpt lat="44.98257" lon="5.25026">
        <ele>510.48599243164</ele>
        <time>2009-06-24T13:29:10Z</time>
      </trkpt>
      <trkpt lat="44.98188" lon="5.2501">
        <ele>514.91101074219</ele>
        <time>2009-06-24T13:29:30Z</time>
      </trkpt>
      <trkpt lat="44.98132" lon="5.24996">
        <ele>518.09197998047</ele>
        <time>2009-06-24T13:29:46Z</time>
      </trkpt>
      <trkpt lat="44.98059" lon="5.24979">
        <ele>521.69799804688</ele>
        <time>2009-06-24T13:30:05Z</time>
      </trkpt>
      <trkpt lat="44.98002" lon="5.24981">
        <ele>525.29498291016</ele>
        <time>2009-06-24T13:30:20Z</time>
      </trkpt>
      <trkpt lat="44.97934" lon="5.24999">
        <ele>529.45300292969</ele>
        <time>2009-06-24T13:30:39Z</time>
      </trkpt>
      <trkpt lat="44.9788" lon="5.25013">
        <ele>532.60699462891</ele>
        <time>2009-06-24T13:30:56Z</time>
      </trkpt>
      <trkpt lat="44.97857" lon="5.25008">
        <ele>534.40002441406</ele>
        <time>2009-06-24T13:31:02Z</time>
      </trkpt>
      <trkpt lat="44.97857" lon="5.24984">
        <ele>536.33801269531</ele>
        <time>2009-06-24T13:31:10Z</time>
      </trkpt>
      <trkpt lat="44.97891" lon="5.24938">
        <ele>538.45397949219</ele>
        <time>2009-06-24T13:31:25Z</time>
      </trkpt>
      <trkpt lat="44.97912" lon="5.24927">
        <ele>539.85498046875</ele>
        <time>2009-06-24T13:31:32Z</time>
      </trkpt>
      <trkpt lat="44.9793" lon="5.24919">
        <ele>541.17901611328</ele>
        <time>2009-06-24T13:31:38Z</time>
      </trkpt>
      <trkpt lat="44.97968" lon="5.2489">
        <ele>543.51000976562</ele>
        <time>2009-06-24T13:31:51Z</time>
      </trkpt>
      <trkpt lat="44.98008" lon="5.24833">
        <ele>546.44598388672</ele>
        <time>2009-06-24T13:32:07Z</time>
      </trkpt>
      <trkpt lat="44.98055" lon="5.24782">
        <ele>550.14001464844</ele>
        <time>2009-06-24T13:32:24Z</time>
      </trkpt>
      <trkpt lat="44.98098" lon="5.24736">
        <ele>553.59698486328</ele>
        <time>2009-06-24T13:32:39Z</time>
      </trkpt>
      <trkpt lat="44.98108" lon="5.24688">
        <ele>555.96502685547</ele>
        <time>2009-06-24T13:32:51Z</time>
      </trkpt>
      <trkpt lat="44.98103" lon="5.24683">
        <ele>556.43701171875</ele>
        <time>2009-06-24T13:32:53Z</time>
      </trkpt>
      <trkpt lat="44.9806" lon="5.24713">
        <ele>559.36798095703</ele>
        <time>2009-06-24T13:33:09Z</time>
      </trkpt>
      <trkpt lat="44.97993" lon="5.24743">
        <ele>563.20001220703</ele>
        <time>2009-06-24T13:33:28Z</time>
      </trkpt>
      <trkpt lat="44.97924" lon="5.24733">
        <ele>566.77600097656</ele>
        <time>2009-06-24T13:33:48Z</time>
      </trkpt>
      <trkpt lat="44.97897" lon="5.24682">
        <ele>570.28698730469</ele>
        <time>2009-06-24T13:34:04Z</time>
      </trkpt>
      <trkpt lat="44.97882" lon="5.24614">
        <ele>574.10699462891</ele>
        <time>2009-06-24T13:34:20Z</time>
      </trkpt>
      <trkpt lat="44.97845" lon="5.24608">
        <ele>576.21801757812</ele>
        <time>2009-06-24T13:34:31Z</time>
      </trkpt>
      <trkpt lat="44.97804" lon="5.24589">
        <ele>578.99102783203</ele>
        <time>2009-06-24T13:34:45Z</time>
      </trkpt>
      <trkpt lat="44.97764" lon="5.24531">
        <ele>582.75402832031</ele>
        <time>2009-06-24T13:35:02Z</time>
      </trkpt>
      <trkpt lat="44.97726" lon="5.24476">
        <ele>586.23400878906</ele>
        <time>2009-06-24T13:35:18Z</time>
      </trkpt>
      <trkpt lat="44.97684" lon="5.24437">
        <ele>589.20098876953</ele>
        <time>2009-06-24T13:35:33Z</time>
      </trkpt>
      <trkpt lat="44.97608" lon="5.24412">
        <ele>593.41101074219</ele>
        <time>2009-06-24T13:35:54Z</time>
      </trkpt>
      <trkpt lat="44.97562" lon="5.24364">
        <ele>597.28399658203</ele>
        <time>2009-06-24T13:36:11Z</time>
      </trkpt>
      <trkpt lat="44.97526" lon="5.24326">
        <ele>600.69097900391</ele>
        <time>2009-06-24T13:36:25Z</time>
      </trkpt>
      <trkpt lat="44.97492" lon="5.24349">
        <ele>603.33502197266</ele>
        <time>2009-06-24T13:36:38Z</time>
      </trkpt>
      <trkpt lat="44.97495" lon="5.2439">
        <ele>605.76702880859</ele>
        <time>2009-06-24T13:36:48Z</time>
      </trkpt>
      <trkpt lat="44.97503" lon="5.24411">
        <ele>606.75598144531</ele>
        <time>2009-06-24T13:36:53Z</time>
      </trkpt>
      <trkpt lat="44.97486" lon="5.24423">
        <ele>607.84197998047</ele>
        <time>2009-06-24T13:36:58Z</time>
      </trkpt>
      <trkpt lat="44.97445" lon="5.24375">
        <ele>610.30200195312</ele>
        <time>2009-06-24T13:37:13Z</time>
      </trkpt>
      <trkpt lat="44.97437" lon="5.24356">
        <ele>611.15802001953</ele>
        <time>2009-06-24T13:37:17Z</time>
      </trkpt>
      <trkpt lat="44.97405" lon="5.24281">
        <ele>614.72497558594</ele>
        <time>2009-06-24T13:37:35Z</time>
      </trkpt>
      <trkpt lat="44.9737" lon="5.24207">
        <ele>618.40600585938</ele>
        <time>2009-06-24T13:37:52Z</time>
      </trkpt>
      <trkpt lat="44.97313" lon="5.2413">
        <ele>622.35198974609</ele>
        <time>2009-06-24T13:38:13Z</time>
      </trkpt>
      <trkpt lat="44.97273" lon="5.24077">
        <ele>625.53900146484</ele>
        <time>2009-06-24T13:38:28Z</time>
      </trkpt>
      <trkpt lat="44.97237" lon="5.24009">
        <ele>628.88800048828</ele>
        <time>2009-06-24T13:38:45Z</time>
      </trkpt>
      <trkpt lat="44.97232" lon="5.23948">
        <ele>631.46099853516</ele>
        <time>2009-06-24T13:38:58Z</time>
      </trkpt>
      <trkpt lat="44.97224" lon="5.2386">
        <ele>635.12902832031</ele>
        <time>2009-06-24T13:39:16Z</time>
      </trkpt>
      <trkpt lat="44.97198" lon="5.23774">
        <ele>638.51000976562</ele>
        <time>2009-06-24T13:39:34Z</time>
      </trkpt>
      <trkpt lat="44.97197" lon="5.2376">
        <ele>638.89202880859</ele>
        <time>2009-06-24T13:39:37Z</time>
      </trkpt>
      <trkpt lat="44.97189" lon="5.23649">
        <ele>638.95300292969</ele>
        <time>2009-06-24T13:39:52Z</time>
      </trkpt>
      <trkpt lat="44.97184" lon="5.23614">
        <ele>639.26397705078</ele>
        <time>2009-06-24T13:39:56Z</time>
      </trkpt>
      <trkpt lat="44.97182" lon="5.23598">
        <ele>639.83099365234</ele>
        <time>2009-06-24T13:39:58Z</time>
      </trkpt>
      <trkpt lat="44.97168" lon="5.23506">
        <ele>643.15002441406</ele>
        <time>2009-06-24T13:40:11Z</time>
      </trkpt>
      <trkpt lat="44.9716" lon="5.2348">
        <ele>644.14398193359</ele>
        <time>2009-06-24T13:40:15Z</time>
      </trkpt>
      <trkpt lat="44.97149" lon="5.23443">
        <ele>645.53302001953</ele>
        <time>2009-06-24T13:40:22Z</time>
      </trkpt>
      <trkpt lat="44.97123" lon="5.23359">
        <ele>649.94396972656</ele>
        <time>2009-06-24T13:40:39Z</time>
      </trkpt>
      <trkpt lat="44.97097" lon="5.23276">
        <ele>653.15802001953</ele>
        <time>2009-06-24T13:40:56Z</time>
      </trkpt>
      <trkpt lat="44.97073" lon="5.23197">
        <ele>656.13098144531</ele>
        <time>2009-06-24T13:41:12Z</time>
      </trkpt>
      <trkpt lat="44.9707" lon="5.23179">
        <ele>656.75</ele>
        <time>2009-06-24T13:41:17Z</time>
      </trkpt>
      <trkpt lat="44.97062" lon="5.23136">
        <ele>658.55297851562</ele>
        <time>2009-06-24T13:41:30Z</time>
      </trkpt>
      <trkpt lat="44.97052" lon="5.23084">
        <ele>660.69299316406</ele>
        <time>2009-06-24T13:41:44Z</time>
      </trkpt>
      <trkpt lat="44.97041" lon="5.23027">
        <ele>663.21697998047</ele>
        <time>2009-06-24T13:41:56Z</time>
      </trkpt>
      <trkpt lat="44.97008" lon="5.22951">
        <ele>666.75701904297</ele>
        <time>2009-06-24T13:42:12Z</time>
      </trkpt>
      <trkpt lat="44.96978" lon="5.22855">
        <ele>671.75299072266</ele>
        <time>2009-06-24T13:42:33Z</time>
      </trkpt>
      <trkpt lat="44.96972" lon="5.22813">
        <ele>673.15899658203</ele>
        <time>2009-06-24T13:42:41Z</time>
      </trkpt>
      <trkpt lat="44.96962" lon="5.22732">
        <ele>676.05200195312</ele>
        <time>2009-06-24T13:42:56Z</time>
      </trkpt>
      <trkpt lat="44.96971" lon="5.22656">
        <ele>679.28997802734</ele>
        <time>2009-06-24T13:43:11Z</time>
      </trkpt>
      <trkpt lat="44.9697" lon="5.22602">
        <ele>681.5</ele>
        <time>2009-06-24T13:43:24Z</time>
      </trkpt>
      <trkpt lat="44.9695" lon="5.22565">
        <ele>682.10498046875</ele>
        <time>2009-06-24T13:43:28Z</time>
      </trkpt>
      <trkpt lat="44.96935" lon="5.22522">
        <ele>683.92102050781</ele>
        <time>2009-06-24T13:43:37Z</time>
      </trkpt>
      <trkpt lat="44.96929" lon="5.225">
        <ele>684.93902587891</ele>
        <time>2009-06-24T13:43:41Z</time>
      </trkpt>
      <trkpt lat="44.96891" lon="5.22392">
        <ele>689.74700927734</ele>
        <time>2009-06-24T13:44:02Z</time>
      </trkpt>
      <trkpt lat="44.96848" lon="5.22363">
        <ele>692.43798828125</ele>
        <time>2009-06-24T13:44:15Z</time>
      </trkpt>
      <trkpt lat="44.96778" lon="5.22356">
        <ele>696.58099365234</ele>
        <time>2009-06-24T13:44:32Z</time>
      </trkpt>
      <trkpt lat="44.96717" lon="5.22364">
        <ele>700.16101074219</ele>
        <time>2009-06-24T13:44:46Z</time>
      </trkpt>
      <trkpt lat="44.96694" lon="5.22356">
        <ele>701.46398925781</ele>
        <time>2009-06-24T13:44:51Z</time>
      </trkpt>
      <trkpt lat="44.9667" lon="5.22335">
        <ele>703.06402587891</ele>
        <time>2009-06-24T13:44:57Z</time>
      </trkpt>
      <trkpt lat="44.96661" lon="5.2231">
        <ele>704.23999023438</ele>
        <time>2009-06-24T13:45:02Z</time>
      </trkpt>
      <trkpt lat="44.96638" lon="5.22234">
        <ele>707.29602050781</ele>
        <time>2009-06-24T13:45:16Z</time>
      </trkpt>
      <trkpt lat="44.96613" lon="5.22185">
        <ele>709.78900146484</ele>
        <time>2009-06-24T13:45:29Z</time>
      </trkpt>
      <trkpt lat="44.96591" lon="5.2215">
        <ele>711.29602050781</ele>
        <time>2009-06-24T13:45:39Z</time>
      </trkpt>
      <trkpt lat="44.96532" lon="5.22085">
        <ele>712.14599609375</ele>
        <time>2009-06-24T13:45:53Z</time>
      </trkpt>
      <trkpt lat="44.96529" lon="5.22079">
        <ele>712.06500244141</ele>
        <time>2009-06-24T13:45:54Z</time>
      </trkpt>
      <trkpt lat="44.96514" lon="5.22055">
        <ele>712.07098388672</ele>
        <time>2009-06-24T13:45:58Z</time>
      </trkpt>
      <trkpt lat="44.96483" lon="5.2201">
        <ele>712.86798095703</ele>
        <time>2009-06-24T13:46:06Z</time>
      </trkpt>
      <trkpt lat="44.96457" lon="5.2198">
        <ele>712.95501708984</ele>
        <time>2009-06-24T13:46:12Z</time>
      </trkpt>
      <trkpt lat="44.96441" lon="5.21971">
        <ele>713.17999267578</ele>
        <time>2009-06-24T13:46:15Z</time>
      </trkpt>
      <trkpt lat="44.96434" lon="5.21967">
        <ele>713.18402099609</ele>
        <time>2009-06-24T13:46:18Z</time>
      </trkpt>
      <trkpt lat="44.96434" lon="5.21967">
        <ele>713.31201171875</ele>
        <time>2009-06-24T13:46:19Z</time>
      </trkpt>
      <trkpt lat="44.96411" lon="5.21952">
        <ele>713.38299560547</ele>
        <time>2009-06-24T13:46:21Z</time>
      </trkpt>
      <trkpt lat="44.96362" lon="5.21922">
        <ele>713.90399169922</ele>
        <time>2009-06-24T13:46:30Z</time>
      </trkpt>
      <trkpt lat="44.96292" lon="5.21885">
        <ele>716.82598876953</ele>
        <time>2009-06-24T13:46:44Z</time>
      </trkpt>
      <trkpt lat="44.96245" lon="5.2184">
        <ele>719.75299072266</ele>
        <time>2009-06-24T13:46:57Z</time>
      </trkpt>
      <trkpt lat="44.9621" lon="5.21802">
        <ele>722.43402099609</ele>
        <time>2009-06-24T13:47:08Z</time>
      </trkpt>
      <trkpt lat="44.96167" lon="5.21757">
        <ele>724.45300292969</ele>
        <time>2009-06-24T13:47:20Z</time>
      </trkpt>
      <trkpt lat="44.96123" lon="5.21719">
        <ele>726.06201171875</ele>
        <time>2009-06-24T13:47:33Z</time>
      </trkpt>
      <trkpt lat="44.96108" lon="5.21707">
        <ele>726.76397705078</ele>
        <time>2009-06-24T13:47:37Z</time>
      </trkpt>
      <trkpt lat="44.96099" lon="5.217">
        <ele>727.333984375</ele>
        <time>2009-06-24T13:47:39Z</time>
      </trkpt>
      <trkpt lat="44.96074" lon="5.21662">
        <ele>728.68701171875</ele>
        <time>2009-06-24T13:47:46Z</time>
      </trkpt>
      <trkpt lat="44.96006" lon="5.2162">
        <ele>731.125</ele>
        <time>2009-06-24T13:48:00Z</time>
      </trkpt>
      <trkpt lat="44.95922" lon="5.21601">
        <ele>734.22998046875</ele>
        <time>2009-06-24T13:48:16Z</time>
      </trkpt>
      <trkpt lat="44.95863" lon="5.21572">
        <ele>736.21697998047</ele>
        <time>2009-06-24T13:48:27Z</time>
      </trkpt>
      <trkpt lat="44.95821" lon="5.21559">
        <ele>736.96600341797</ele>
        <time>2009-06-24T13:48:35Z</time>
      </trkpt>
      <trkpt lat="44.95798" lon="5.21568">
        <ele>737.21002197266</ele>
        <time>2009-06-24T13:48:39Z</time>
      </trkpt>
      <trkpt lat="44.95763" lon="5.21582">
        <ele>738.41198730469</ele>
        <time>2009-06-24T13:48:46Z</time>
      </trkpt>
      <trkpt lat="44.95705" lon="5.21587">
        <ele>741.01599121094</ele>
        <time>2009-06-24T13:49:00Z</time>
      </trkpt>
      <trkpt lat="44.95686" lon="5.21585">
        <ele>742.19897460938</ele>
        <time>2009-06-24T13:49:04Z</time>
      </trkpt>
      <trkpt lat="44.95634" lon="5.21537">
        <ele>744.80297851562</ele>
        <time>2009-06-24T13:49:17Z</time>
      </trkpt>
      <trkpt lat="44.95627" lon="5.21516">
        <ele>745.38000488281</ele>
        <time>2009-06-24T13:49:21Z</time>
      </trkpt>
      <trkpt lat="44.95618" lon="5.21489">
        <ele>746.13800048828</ele>
        <time>2009-06-24T13:49:26Z</time>
      </trkpt>
      <trkpt lat="44.95565" lon="5.21421">
        <ele>748.49401855469</ele>
        <time>2009-06-24T13:49:42Z</time>
      </trkpt>
      <trkpt lat="44.95533" lon="5.21412">
        <ele>750.02502441406</ele>
        <time>2009-06-24T13:49:50Z</time>
      </trkpt>
      <trkpt lat="44.95499" lon="5.21405">
        <ele>751.32000732422</ele>
        <time>2009-06-24T13:49:58Z</time>
      </trkpt>
      <trkpt lat="44.95456" lon="5.21391">
        <ele>755.14599609375</ele>
        <time>2009-06-24T13:50:14Z</time>
      </trkpt>
      <trkpt lat="44.9543" lon="5.21371">
        <ele>758.41302490234</ele>
        <time>2009-06-24T13:50:26Z</time>
      </trkpt>
      <trkpt lat="44.95427" lon="5.21369">
        <ele>759.45001220703</ele>
        <time>2009-06-24T13:50:29Z</time>
      </trkpt>
      <trkpt lat="44.95419" lon="5.21361">
        <ele>761.15502929688</ele>
        <time>2009-06-24T13:50:34Z</time>
      </trkpt>
      <trkpt lat="44.95386" lon="5.2133">
        <ele>764.90600585938</ele>
        <time>2009-06-24T13:50:47Z</time>
      </trkpt>
      <trkpt lat="44.95346" lon="5.213">
        <ele>768.30798339844</ele>
        <time>2009-06-24T13:51:01Z</time>
      </trkpt>
      <trkpt lat="44.95284" lon="5.2128">
        <ele>771.55798339844</ele>
        <time>2009-06-24T13:51:15Z</time>
      </trkpt>
      <trkpt lat="44.95239" lon="5.2126">
        <ele>773.61401367188</ele>
        <time>2009-06-24T13:51:25Z</time>
      </trkpt>
      <trkpt lat="44.9517" lon="5.2121">
        <ele>775.45697021484</ele>
        <time>2009-06-24T13:51:36Z</time>
      </trkpt>
      <trkpt lat="44.95113" lon="5.21172">
        <ele>777.88000488281</ele>
        <time>2009-06-24T13:51:48Z</time>
      </trkpt>
      <trkpt lat="44.95069" lon="5.21155">
        <ele>781.17199707031</ele>
        <time>2009-06-24T13:52:00Z</time>
      </trkpt>
      <trkpt lat="44.95062" lon="5.21155">
        <ele>781.63000488281</ele>
        <time>2009-06-24T13:52:02Z</time>
      </trkpt>
      <trkpt lat="44.95033" lon="5.21149">
        <ele>783.14801025391</ele>
        <time>2009-06-24T13:52:07Z</time>
      </trkpt>
      <trkpt lat="44.95002" lon="5.21122">
        <ele>786.56402587891</ele>
        <time>2009-06-24T13:52:21Z</time>
      </trkpt>
      <trkpt lat="44.94978" lon="5.21108">
        <ele>788.58001708984</ele>
        <time>2009-06-24T13:52:32Z</time>
      </trkpt>
      <trkpt lat="44.94957" lon="5.21082">
        <ele>791.37097167969</ele>
        <time>2009-06-24T13:52:43Z</time>
      </trkpt>
      <trkpt lat="44.94914" lon="5.21022">
        <ele>793.98498535156</ele>
        <time>2009-06-24T13:52:55Z</time>
      </trkpt>
      <trkpt lat="44.94882" lon="5.2099">
        <ele>796.48797607422</ele>
        <time>2009-06-24T13:53:05Z</time>
      </trkpt>
      <trkpt lat="44.94863" lon="5.20974">
        <ele>797.57202148438</ele>
        <time>2009-06-24T13:53:10Z</time>
      </trkpt>
      <trkpt lat="44.9482" lon="5.20962">
        <ele>800.60601806641</ele>
        <time>2009-06-24T13:53:21Z</time>
      </trkpt>
      <trkpt lat="44.94803" lon="5.20962">
        <ele>803.20397949219</ele>
        <time>2009-06-24T13:53:31Z</time>
      </trkpt>
      <trkpt lat="44.94764" lon="5.20921">
        <ele>805.84600830078</ele>
        <time>2009-06-24T13:53:43Z</time>
      </trkpt>
      <trkpt lat="44.9474" lon="5.20893">
        <ele>807.32800292969</ele>
        <time>2009-06-24T13:53:52Z</time>
      </trkpt>
      <trkpt lat="44.94705" lon="5.20906">
        <ele>809.59698486328</ele>
        <time>2009-06-24T13:54:03Z</time>
      </trkpt>
      <trkpt lat="44.94643" lon="5.20902">
        <ele>812.20397949219</ele>
        <time>2009-06-24T13:54:19Z</time>
      </trkpt>
      <trkpt lat="44.94632" lon="5.20899">
        <ele>812.97399902344</ele>
        <time>2009-06-24T13:54:22Z</time>
      </trkpt>
      <trkpt lat="44.94566" lon="5.20872">
        <ele>815.53997802734</ele>
        <time>2009-06-24T13:54:39Z</time>
      </trkpt>
      <trkpt lat="44.9451" lon="5.20848">
        <ele>818.03002929688</ele>
        <time>2009-06-24T13:54:53Z</time>
      </trkpt>
      <trkpt lat="44.94456" lon="5.20804">
        <ele>820.47900390625</ele>
        <time>2009-06-24T13:55:08Z</time>
      </trkpt>
      <trkpt lat="44.94401" lon="5.20763">
        <ele>822.6669921875</ele>
        <time>2009-06-24T13:55:23Z</time>
      </trkpt>
      <trkpt lat="44.94373" lon="5.2075">
        <ele>823.73400878906</ele>
        <time>2009-06-24T13:55:30Z</time>
      </trkpt>
      <trkpt lat="44.94323" lon="5.20728">
        <ele>825.93597412109</ele>
        <time>2009-06-24T13:55:43Z</time>
      </trkpt>
      <trkpt lat="44.94297" lon="5.20706">
        <ele>827.53698730469</ele>
        <time>2009-06-24T13:55:52Z</time>
      </trkpt>
      <trkpt lat="44.94284" lon="5.2069">
        <ele>827.61798095703</ele>
        <time>2009-06-24T13:55:56Z</time>
      </trkpt>
      <trkpt lat="44.94222" lon="5.20611">
        <ele>830.22698974609</ele>
        <time>2009-06-24T13:56:13Z</time>
      </trkpt>
      <trkpt lat="44.94191" lon="5.20577">
        <ele>831.59197998047</ele>
        <time>2009-06-24T13:56:21Z</time>
      </trkpt>
      <trkpt lat="44.94144" lon="5.20553">
        <ele>832.87200927734</ele>
        <time>2009-06-24T13:56:31Z</time>
      </trkpt>
      <trkpt lat="44.94111" lon="5.20523">
        <ele>834.46197509766</ele>
        <time>2009-06-24T13:56:39Z</time>
      </trkpt>
      <trkpt lat="44.94085" lon="5.20509">
        <ele>835.69097900391</ele>
        <time>2009-06-24T13:56:45Z</time>
      </trkpt>
      <trkpt lat="44.94071" lon="5.20505">
        <ele>836.42401123047</ele>
        <time>2009-06-24T13:56:48Z</time>
      </trkpt>
      <trkpt lat="44.94027" lon="5.20483">
        <ele>837.77697753906</ele>
        <time>2009-06-24T13:56:57Z</time>
      </trkpt>
      <trkpt lat="44.93965" lon="5.2042">
        <ele>840.8740234375</ele>
        <time>2009-06-24T13:57:12Z</time>
      </trkpt>
      <trkpt lat="44.93956" lon="5.20412">
        <ele>841.10498046875</ele>
        <time>2009-06-24T13:57:14Z</time>
      </trkpt>
      <trkpt lat="44.93942" lon="5.20401">
        <ele>841.73699951172</ele>
        <time>2009-06-24T13:57:17Z</time>
      </trkpt>
      <trkpt lat="44.93922" lon="5.20392">
        <ele>842.48498535156</ele>
        <time>2009-06-24T13:57:21Z</time>
      </trkpt>
      <trkpt lat="44.93904" lon="5.20384">
        <ele>843.26000976562</ele>
        <time>2009-06-24T13:57:25Z</time>
      </trkpt>
      <trkpt lat="44.93883" lon="5.20362">
        <ele>844.21197509766</ele>
        <time>2009-06-24T13:57:30Z</time>
      </trkpt>
      <trkpt lat="44.93876" lon="5.20352">
        <ele>844.34997558594</ele>
        <time>2009-06-24T13:57:32Z</time>
      </trkpt>
      <trkpt lat="44.93843" lon="5.20312">
        <ele>847.04602050781</ele>
        <time>2009-06-24T13:57:42Z</time>
      </trkpt>
      <trkpt lat="44.93832" lon="5.20305">
        <ele>847.34197998047</ele>
        <time>2009-06-24T13:57:45Z</time>
      </trkpt>
      <trkpt lat="44.93776" lon="5.20271">
        <ele>849.875</ele>
        <time>2009-06-24T13:58:00Z</time>
      </trkpt>
      <trkpt lat="44.93708" lon="5.2023">
        <ele>852.41198730469</ele>
        <time>2009-06-24T13:58:16Z</time>
      </trkpt>
      <trkpt lat="44.93626" lon="5.20181">
        <ele>855.36602783203</ele>
        <time>2009-06-24T13:58:33Z</time>
      </trkpt>
      <trkpt lat="44.93551" lon="5.20137">
        <ele>858.24298095703</ele>
        <time>2009-06-24T13:58:49Z</time>
      </trkpt>
      <trkpt lat="44.93472" lon="5.20096">
        <ele>860.86499023438</ele>
        <time>2009-06-24T13:59:06Z</time>
      </trkpt>
      <trkpt lat="44.93439" lon="5.2008">
        <ele>862.13000488281</ele>
        <time>2009-06-24T13:59:13Z</time>
      </trkpt>
      <trkpt lat="44.93386" lon="5.20053">
        <ele>864.07202148438</ele>
        <time>2009-06-24T13:59:25Z</time>
      </trkpt>
      <trkpt lat="44.93328" lon="5.20023">
        <ele>866.87701416016</ele>
        <time>2009-06-24T13:59:38Z</time>
      </trkpt>
      <trkpt lat="44.93304" lon="5.20011">
        <ele>868.08502197266</ele>
        <time>2009-06-24T13:59:44Z</time>
      </trkpt>
      <trkpt lat="44.93297" lon="5.2001">
        <ele>868.50799560547</ele>
        <time>2009-06-24T13:59:46Z</time>
      </trkpt>
      <trkpt lat="44.93229" lon="5.2001">
        <ele>871.09600830078</ele>
        <time>2009-06-24T14:00:01Z</time>
      </trkpt>
      <trkpt lat="44.93218" lon="5.20009">
        <ele>871.65802001953</ele>
        <time>2009-06-24T14:00:03Z</time>
      </trkpt>
      <trkpt lat="44.93171" lon="5.19982">
        <ele>874.02801513672</ele>
        <time>2009-06-24T14:00:15Z</time>
      </trkpt>
      <trkpt lat="44.93163" lon="5.19977">
        <ele>874.57897949219</ele>
        <time>2009-06-24T14:00:18Z</time>
      </trkpt>
      <trkpt lat="44.93154" lon="5.19974">
        <ele>875.05102539062</ele>
        <time>2009-06-24T14:00:20Z</time>
      </trkpt>
      <trkpt lat="44.931" lon="5.19955">
        <ele>877.67999267578</ele>
        <time>2009-06-24T14:00:33Z</time>
      </trkpt>
      <trkpt lat="44.93096" lon="5.19952">
        <ele>877.72302246094</ele>
        <time>2009-06-24T14:00:34Z</time>
      </trkpt>
      <trkpt lat="44.93088" lon="5.19945">
        <ele>878.07598876953</ele>
        <time>2009-06-24T14:00:36Z</time>
      </trkpt>
      <trkpt lat="44.93031" lon="5.199">
        <ele>880.62200927734</ele>
        <time>2009-06-24T14:00:50Z</time>
      </trkpt>
      <trkpt lat="44.93018" lon="5.19892">
        <ele>881.69598388672</ele>
        <time>2009-06-24T14:00:53Z</time>
      </trkpt>
      <trkpt lat="44.93008" lon="5.19888">
        <ele>881.82098388672</ele>
        <time>2009-06-24T14:00:55Z</time>
      </trkpt>
      <trkpt lat="44.92995" lon="5.19886">
        <ele>882.76202392578</ele>
        <time>2009-06-24T14:00:58Z</time>
      </trkpt>
      <trkpt lat="44.92949" lon="5.19879">
        <ele>885.07501220703</ele>
        <time>2009-06-24T14:01:10Z</time>
      </trkpt>
      <trkpt lat="44.92892" lon="5.19862">
        <ele>887.46801757812</ele>
        <time>2009-06-24T14:01:24Z</time>
      </trkpt>
      <trkpt lat="44.92887" lon="5.1986">
        <ele>887.51599121094</ele>
        <time>2009-06-24T14:01:25Z</time>
      </trkpt>
      <trkpt lat="44.92874" lon="5.19855">
        <ele>887.83599853516</ele>
        <time>2009-06-24T14:01:28Z</time>
      </trkpt>
      <trkpt lat="44.92832" lon="5.1984">
        <ele>888.36999511719</ele>
        <time>2009-06-24T14:01:36Z</time>
      </trkpt>
      <trkpt lat="44.9282" lon="5.19836">
        <ele>888.28698730469</ele>
        <time>2009-06-24T14:01:38Z</time>
      </trkpt>
      <trkpt lat="44.92782" lon="5.19825">
        <ele>888.60601806641</ele>
        <time>2009-06-24T14:01:44Z</time>
      </trkpt>
      <trkpt lat="44.9277" lon="5.19825">
        <ele>888.67102050781</ele>
        <time>2009-06-24T14:01:46Z</time>
      </trkpt>
      <trkpt lat="44.92725" lon="5.19829">
        <ele>888.92901611328</ele>
        <time>2009-06-24T14:01:53Z</time>
      </trkpt>
      <trkpt lat="44.92706" lon="5.19832">
        <ele>889</ele>
        <time>2009-06-24T14:01:56Z</time>
      </trkpt>
      <trkpt lat="44.92685" lon="5.19831">
        <ele>889.12701416016</ele>
        <time>2009-06-24T14:02:00Z</time>
      </trkpt>
      <trkpt lat="44.92664" lon="5.19825">
        <ele>889.58801269531</ele>
        <time>2009-06-24T14:02:03Z</time>
      </trkpt>
      <trkpt lat="44.92627" lon="5.19818">
        <ele>890.61297607422</ele>
        <time>2009-06-24T14:02:09Z</time>
      </trkpt>
      <trkpt lat="44.92574" lon="5.19824">
        <ele>891.45202636719</ele>
        <time>2009-06-24T14:02:18Z</time>
      </trkpt>
      <trkpt lat="44.92522" lon="5.19826">
        <ele>892.94097900391</ele>
        <time>2009-06-24T14:02:27Z</time>
      </trkpt>
      <trkpt lat="44.92495" lon="5.19819">
        <ele>893.93298339844</ele>
        <time>2009-06-24T14:02:32Z</time>
      </trkpt>
      <trkpt lat="44.92468" lon="5.19812">
        <ele>894.67700195312</ele>
        <time>2009-06-24T14:02:37Z</time>
      </trkpt>
      <trkpt lat="44.92448" lon="5.19807">
        <ele>895.15002441406</ele>
        <time>2009-06-24T14:02:41Z</time>
      </trkpt>
      <trkpt lat="44.92425" lon="5.198">
        <ele>895.90399169922</ele>
        <time>2009-06-24T14:02:46Z</time>
      </trkpt>
      <trkpt lat="44.92399" lon="5.19796">
        <ele>896.51599121094</ele>
        <time>2009-06-24T14:02:52Z</time>
      </trkpt>
      <trkpt lat="44.92337" lon="5.19803">
        <ele>898.49200439453</ele>
        <time>2009-06-24T14:03:04Z</time>
      </trkpt>
      <trkpt lat="44.9232" lon="5.19798">
        <ele>898.97698974609</ele>
        <time>2009-06-24T14:03:07Z</time>
      </trkpt>
      <trkpt lat="44.92248" lon="5.19766">
        <ele>900.95202636719</ele>
        <time>2009-06-24T14:03:20Z</time>
      </trkpt>
      <trkpt lat="44.92218" lon="5.19755">
        <ele>901.70202636719</ele>
        <time>2009-06-24T14:03:26Z</time>
      </trkpt>
      <trkpt lat="44.92155" lon="5.19705">
        <ele>903.57702636719</ele>
        <time>2009-06-24T14:03:39Z</time>
      </trkpt>
      <trkpt lat="44.92146" lon="5.19698">
        <ele>903.84301757812</ele>
        <time>2009-06-24T14:03:41Z</time>
      </trkpt>
      <trkpt lat="44.92094" lon="5.19657">
        <ele>905.53802490234</ele>
        <time>2009-06-24T14:03:53Z</time>
      </trkpt>
      <trkpt lat="44.92074" lon="5.19647">
        <ele>906.12200927734</ele>
        <time>2009-06-24T14:03:57Z</time>
      </trkpt>
      <trkpt lat="44.92063" lon="5.19642">
        <ele>906.44897460938</ele>
        <time>2009-06-24T14:03:59Z</time>
      </trkpt>
      <trkpt lat="44.92042" lon="5.19623">
        <ele>906.96801757812</ele>
        <time>2009-06-24T14:04:03Z</time>
      </trkpt>
      <trkpt lat="44.9198" lon="5.19579">
        <ele>908.25402832031</ele>
        <time>2009-06-24T14:04:15Z</time>
      </trkpt>
      <trkpt lat="44.91926" lon="5.19564">
        <ele>909.17102050781</ele>
        <time>2009-06-24T14:04:25Z</time>
      </trkpt>
      <trkpt lat="44.91895" lon="5.19544">
        <ele>910.43298339844</ele>
        <time>2009-06-24T14:04:31Z</time>
      </trkpt>
      <trkpt lat="44.9183" lon="5.195">
        <ele>912.17401123047</ele>
        <time>2009-06-24T14:04:43Z</time>
      </trkpt>
      <trkpt lat="44.91775" lon="5.19469">
        <ele>913</ele>
        <time>2009-06-24T14:04:53Z</time>
      </trkpt>
      <trkpt lat="44.91675" lon="5.19428">
        <ele>915.47497558594</ele>
        <time>2009-06-24T14:05:10Z</time>
      </trkpt>
      <trkpt lat="44.91553" lon="5.19386">
        <ele>918.68103027344</ele>
        <time>2009-06-24T14:05:32Z</time>
      </trkpt>
      <trkpt lat="44.91473" lon="5.19348">
        <ele>921.24401855469</ele>
        <time>2009-06-24T14:05:47Z</time>
      </trkpt>
      <trkpt lat="44.91352" lon="5.19275">
        <ele>925.36102294922</ele>
        <time>2009-06-24T14:06:12Z</time>
      </trkpt>
      <trkpt lat="44.91315" lon="5.19263">
        <ele>926.33898925781</ele>
        <time>2009-06-24T14:06:19Z</time>
      </trkpt>
      <trkpt lat="44.91288" lon="5.19258">
        <ele>926.92602539062</ele>
        <time>2009-06-24T14:06:24Z</time>
      </trkpt>
      <trkpt lat="44.91268" lon="5.19258">
        <ele>927.08898925781</ele>
        <time>2009-06-24T14:06:28Z</time>
      </trkpt>
      <trkpt lat="44.91221" lon="5.19261">
        <ele>926.65301513672</ele>
        <time>2009-06-24T14:06:36Z</time>
      </trkpt>
      <trkpt lat="44.91211" lon="5.19263">
        <ele>926.21899414062</ele>
        <time>2009-06-24T14:06:39Z</time>
      </trkpt>
      <trkpt lat="44.91126" lon="5.19244">
        <ele>923.70098876953</ele>
        <time>2009-06-24T14:06:49Z</time>
      </trkpt>
      <trkpt lat="44.91086" lon="5.19234">
        <ele>922.24102783203</ele>
        <time>2009-06-24T14:06:54Z</time>
      </trkpt>
      <trkpt lat="44.91078" lon="5.19232">
        <ele>922.29400634766</ele>
        <time>2009-06-24T14:06:55Z</time>
      </trkpt>
      <trkpt lat="44.91065" lon="5.19229">
        <ele>921.84899902344</ele>
        <time>2009-06-24T14:07:00Z</time>
      </trkpt>
      <trkpt lat="44.91042" lon="5.19224">
        <ele>921.87799072266</ele>
        <time>2009-06-24T14:07:03Z</time>
      </trkpt>
      <trkpt lat="44.91046" lon="5.19225">
        <ele>921.97302246094</ele>
        <time>2009-06-24T14:07:06Z</time>
      </trkpt>
      <trkpt lat="44.91046" lon="5.19225">
        <ele>921.87701416016</ele>
        <time>2009-06-24T14:07:07Z</time>
      </trkpt>
      <trkpt lat="44.91035" lon="5.19222">
        <ele>921.27001953125</ele>
        <time>2009-06-24T14:09:43Z</time>
      </trkpt>
      <trkpt lat="44.91018" lon="5.19217">
        <ele>921.71099853516</ele>
        <time>2009-06-24T14:09:48Z</time>
      </trkpt>
      <trkpt lat="44.90985" lon="5.19209">
        <ele>922.25299072266</ele>
        <time>2009-06-24T14:09:54Z</time>
      </trkpt>
      <trkpt lat="44.90949" lon="5.19211">
        <ele>923.82098388672</ele>
        <time>2009-06-24T14:10:01Z</time>
      </trkpt>
      <trkpt lat="44.90905" lon="5.19222">
        <ele>924.93402099609</ele>
        <time>2009-06-24T14:10:09Z</time>
      </trkpt>
      <trkpt lat="44.90859" lon="5.19233">
        <ele>926.47399902344</ele>
        <time>2009-06-24T14:10:17Z</time>
      </trkpt>
      <trkpt lat="44.90799" lon="5.19247">
        <ele>927.88598632812</ele>
        <time>2009-06-24T14:10:27Z</time>
      </trkpt>
      <trkpt lat="44.90746" lon="5.1926">
        <ele>928.44000244141</ele>
        <time>2009-06-24T14:10:35Z</time>
      </trkpt>
      <trkpt lat="44.90717" lon="5.19267">
        <ele>928.84100341797</ele>
        <time>2009-06-24T14:10:39Z</time>
      </trkpt>
      <trkpt lat="44.90665" lon="5.19279">
        <ele>928.916015625</ele>
        <time>2009-06-24T14:10:46Z</time>
      </trkpt>
      <trkpt lat="44.90533" lon="5.19322">
        <ele>930.06597900391</ele>
        <time>2009-06-24T14:11:03Z</time>
      </trkpt>
      <trkpt lat="44.90391" lon="5.19358">
        <ele>931.90502929688</ele>
        <time>2009-06-24T14:11:21Z</time>
      </trkpt>
      <trkpt lat="44.90289" lon="5.19361">
        <ele>932.13397216797</ele>
        <time>2009-06-24T14:11:33Z</time>
      </trkpt>
      <trkpt lat="44.90197" lon="5.19373">
        <ele>932.16802978516</ele>
        <time>2009-06-24T14:11:43Z</time>
      </trkpt>
      <trkpt lat="44.90103" lon="5.19385">
        <ele>932.833984375</ele>
        <time>2009-06-24T14:11:54Z</time>
      </trkpt>
      <trkpt lat="44.89943" lon="5.19349">
        <ele>933.39501953125</ele>
        <time>2009-06-24T14:12:11Z</time>
      </trkpt>
      <trkpt lat="44.89752" lon="5.19261">
        <ele>933.94000244141</ele>
        <time>2009-06-24T14:12:32Z</time>
      </trkpt>
      <trkpt lat="44.89645" lon="5.19193">
        <ele>934.11102294922</ele>
        <time>2009-06-24T14:12:44Z</time>
      </trkpt>
      <trkpt lat="44.89539" lon="5.19126">
        <ele>934.77197265625</ele>
        <time>2009-06-24T14:12:56Z</time>
      </trkpt>
      <trkpt lat="44.89344" lon="5.19019">
        <ele>937.46801757812</ele>
        <time>2009-06-24T14:13:18Z</time>
      </trkpt>
      <trkpt lat="44.89172" lon="5.18896">
        <ele>939.57299804688</ele>
        <time>2009-06-24T14:13:39Z</time>
      </trkpt>
      <trkpt lat="44.89027" lon="5.18761">
        <ele>941.33502197266</ele>
        <time>2009-06-24T14:13:58Z</time>
      </trkpt>
      <trkpt lat="44.88862" lon="5.18613">
        <ele>941.98101806641</ele>
        <time>2009-06-24T14:14:18Z</time>
      </trkpt>
      <trkpt lat="44.88751" lon="5.1852">
        <ele>943.25299072266</ele>
        <time>2009-06-24T14:14:32Z</time>
      </trkpt>
      <trkpt lat="44.88729" lon="5.18501">
        <ele>943.53302001953</ele>
        <time>2009-06-24T14:14:35Z</time>
      </trkpt>
      <trkpt lat="44.88713" lon="5.1846">
        <ele>943.42602539062</ele>
        <time>2009-06-24T14:14:40Z</time>
      </trkpt>
      <trkpt lat="44.88735" lon="5.18392">
        <ele>945.32501220703</ele>
        <time>2009-06-24T14:14:49Z</time>
      </trkpt>
      <trkpt lat="44.88739" lon="5.18339">
        <ele>946.13000488281</ele>
        <time>2009-06-24T14:14:53Z</time>
      </trkpt>
      <trkpt lat="44.88712" lon="5.18289">
        <ele>947.28997802734</ele>
        <time>2009-06-24T14:15:00Z</time>
      </trkpt>
      <trkpt lat="44.88701" lon="5.1828">
        <ele>947.70501708984</ele>
        <time>2009-06-24T14:15:02Z</time>
      </trkpt>
      <trkpt lat="44.88692" lon="5.18271">
        <ele>947.46002197266</ele>
        <time>2009-06-24T14:15:04Z</time>
      </trkpt>
      <trkpt lat="44.88676" lon="5.18233">
        <ele>947.17700195312</ele>
        <time>2009-06-24T14:15:09Z</time>
      </trkpt>
      <trkpt lat="44.88653" lon="5.18177">
        <ele>945.92901611328</ele>
        <time>2009-06-24T14:15:16Z</time>
      </trkpt>
      <trkpt lat="44.88594" lon="5.18112">
        <ele>948.82098388672</ele>
        <time>2009-06-24T14:15:27Z</time>
      </trkpt>
      <trkpt lat="44.8853" lon="5.18073">
        <ele>951.29998779297</ele>
        <time>2009-06-24T14:15:41Z</time>
      </trkpt>
      <trkpt lat="44.8851" lon="5.18064">
        <ele>951.83197021484</ele>
        <time>2009-06-24T14:15:45Z</time>
      </trkpt>
      <trkpt lat="44.88418" lon="5.18052">
        <ele>956.2080078125</ele>
        <time>2009-06-24T14:16:03Z</time>
      </trkpt>
      <trkpt lat="44.8834" lon="5.18046">
        <ele>959.67498779297</ele>
        <time>2009-06-24T14:16:19Z</time>
      </trkpt>
      <trkpt lat="44.88255" lon="5.18028">
        <ele>963.20202636719</ele>
        <time>2009-06-24T14:16:37Z</time>
      </trkpt>
      <trkpt lat="44.88181" lon="5.18011">
        <ele>966.70001220703</ele>
        <time>2009-06-24T14:16:53Z</time>
      </trkpt>
      <trkpt lat="44.88096" lon="5.18013">
        <ele>969.69799804688</ele>
        <time>2009-06-24T14:17:11Z</time>
      </trkpt>
      <trkpt lat="44.88087" lon="5.18014">
        <ele>969.9580078125</ele>
        <time>2009-06-24T14:17:13Z</time>
      </trkpt>
      <trkpt lat="44.88069" lon="5.17985">
        <ele>970.72900390625</ele>
        <time>2009-06-24T14:17:21Z</time>
      </trkpt>
      <trkpt lat="44.8808" lon="5.17972">
        <ele>970.73797607422</ele>
        <time>2009-06-24T14:17:24Z</time>
      </trkpt>
      <trkpt lat="44.88108" lon="5.17953">
        <ele>970.92700195312</ele>
        <time>2009-06-24T14:17:29Z</time>
      </trkpt>
      <trkpt lat="44.88126" lon="5.1794">
        <ele>970.89801025391</ele>
        <time>2009-06-24T14:17:32Z</time>
      </trkpt>
      <trkpt lat="44.88154" lon="5.17896">
        <ele>970.41900634766</ele>
        <time>2009-06-24T14:17:38Z</time>
      </trkpt>
      <trkpt lat="44.88165" lon="5.17852">
        <ele>970.55902099609</ele>
        <time>2009-06-24T14:17:43Z</time>
      </trkpt>
      <trkpt lat="44.88168" lon="5.1778">
        <ele>971.19702148438</ele>
        <time>2009-06-24T14:17:50Z</time>
      </trkpt>
      <trkpt lat="44.88142" lon="5.17726">
        <ele>972.89697265625</ele>
        <time>2009-06-24T14:17:58Z</time>
      </trkpt>
      <trkpt lat="44.88062" lon="5.17678">
        <ele>975.19097900391</ele>
        <time>2009-06-24T14:18:11Z</time>
      </trkpt>
      <trkpt lat="44.88028" lon="5.1765">
        <ele>976.06402587891</ele>
        <time>2009-06-24T14:18:19Z</time>
      </trkpt>
      <trkpt lat="44.87994" lon="5.17593">
        <ele>977.03601074219</ele>
        <time>2009-06-24T14:18:28Z</time>
      </trkpt>
      <trkpt lat="44.87974" lon="5.1756">
        <ele>977.15399169922</ele>
        <time>2009-06-24T14:18:33Z</time>
      </trkpt>
      <trkpt lat="44.87879" lon="5.17511">
        <ele>980.55603027344</ele>
        <time>2009-06-24T14:18:49Z</time>
      </trkpt>
      <trkpt lat="44.87778" lon="5.17485">
        <ele>983.69097900391</ele>
        <time>2009-06-24T14:19:07Z</time>
      </trkpt>
      <trkpt lat="44.87706" lon="5.17441">
        <ele>985.84899902344</ele>
        <time>2009-06-24T14:19:22Z</time>
      </trkpt>
      <trkpt lat="44.87674" lon="5.17428">
        <ele>987.05297851562</ele>
        <time>2009-06-24T14:19:28Z</time>
      </trkpt>
      <trkpt lat="44.87639" lon="5.17425">
        <ele>987.45501708984</ele>
        <time>2009-06-24T14:19:34Z</time>
      </trkpt>
      <trkpt lat="44.87514" lon="5.17414">
        <ele>989.40997314453</ele>
        <time>2009-06-24T14:19:54Z</time>
      </trkpt>
      <trkpt lat="44.87411" lon="5.17416">
        <ele>990.87298583984</ele>
        <time>2009-06-24T14:20:10Z</time>
      </trkpt>
      <trkpt lat="44.87308" lon="5.1741">
        <ele>992.59698486328</ele>
        <time>2009-06-24T14:20:27Z</time>
      </trkpt>
      <trkpt lat="44.87302" lon="5.1741">
        <ele>992.91400146484</ele>
        <time>2009-06-24T14:20:28Z</time>
      </trkpt>
      <trkpt lat="44.87179" lon="5.17413">
        <ele>993.86297607422</ele>
        <time>2009-06-24T14:20:47Z</time>
      </trkpt>
      <trkpt lat="44.87079" lon="5.1743">
        <ele>995.43103027344</ele>
        <time>2009-06-24T14:21:03Z</time>
      </trkpt>
      <trkpt lat="44.86962" lon="5.17423">
        <ele>997.1240234375</ele>
        <time>2009-06-24T14:21:22Z</time>
      </trkpt>
      <trkpt lat="44.86852" lon="5.17401">
        <ele>996.97198486328</ele>
        <time>2009-06-24T14:21:38Z</time>
      </trkpt>
      <trkpt lat="44.86799" lon="5.17374">
        <ele>996.625</ele>
        <time>2009-06-24T14:21:46Z</time>
      </trkpt>
      <trkpt lat="44.86756" lon="5.17363">
        <ele>996.59301757812</ele>
        <time>2009-06-24T14:21:52Z</time>
      </trkpt>
      <trkpt lat="44.8664" lon="5.1737">
        <ele>996.98602294922</ele>
        <time>2009-06-24T14:22:07Z</time>
      </trkpt>
      <trkpt lat="44.86513" lon="5.17358">
        <ele>993.48602294922</ele>
        <time>2009-06-24T14:22:22Z</time>
      </trkpt>
      <trkpt lat="44.86469" lon="5.17353">
        <ele>992.53100585938</ele>
        <time>2009-06-24T14:22:27Z</time>
      </trkpt>
      <trkpt lat="44.86366" lon="5.17336">
        <ele>991.96398925781</ele>
        <time>2009-06-24T14:22:40Z</time>
      </trkpt>
      <trkpt lat="44.86263" lon="5.17318">
        <ele>992.06597900391</ele>
        <time>2009-06-24T14:22:52Z</time>
      </trkpt>
      <trkpt lat="44.8622" lon="5.17314">
        <ele>989.46600341797</ele>
        <time>2009-06-24T14:22:57Z</time>
      </trkpt>
      <trkpt lat="44.86091" lon="5.1732">
        <ele>981.35101318359</ele>
        <time>2009-06-24T14:23:09Z</time>
      </trkpt>
      <trkpt lat="44.86068" lon="5.17328">
        <ele>980.00201416016</ele>
        <time>2009-06-24T14:23:11Z</time>
      </trkpt>
      <trkpt lat="44.8602" lon="5.17344">
        <ele>977.23797607422</ele>
        <time>2009-06-24T14:23:15Z</time>
      </trkpt>
      <trkpt lat="44.85984" lon="5.17362">
        <ele>974.98999023438</ele>
        <time>2009-06-24T14:23:18Z</time>
      </trkpt>
      <trkpt lat="44.8596" lon="5.17374">
        <ele>974.14801025391</ele>
        <time>2009-06-24T14:23:20Z</time>
      </trkpt>
      <trkpt lat="44.85908" lon="5.17391">
        <ele>971.20697021484</ele>
        <time>2009-06-24T14:23:24Z</time>
      </trkpt>
      <trkpt lat="44.85854" lon="5.17401">
        <ele>968.21398925781</ele>
        <time>2009-06-24T14:23:28Z</time>
      </trkpt>
      <trkpt lat="44.85805" lon="5.17428">
        <ele>965.98101806641</ele>
        <time>2009-06-24T14:23:32Z</time>
      </trkpt>
      <trkpt lat="44.8578" lon="5.17481">
        <ele>967.94799804688</ele>
        <time>2009-06-24T14:23:37Z</time>
      </trkpt>
      <trkpt lat="44.85784" lon="5.17492">
        <ele>968.083984375</ele>
        <time>2009-06-24T14:23:38Z</time>
      </trkpt>
      <trkpt lat="44.85793" lon="5.1752">
        <ele>969.37799072266</ele>
        <time>2009-06-24T14:23:41Z</time>
      </trkpt>
      <trkpt lat="44.85809" lon="5.17548">
        <ele>970.42901611328</ele>
        <time>2009-06-24T14:23:45Z</time>
      </trkpt>
      <trkpt lat="44.85813" lon="5.17561">
        <ele>971.26501464844</ele>
        <time>2009-06-24T14:23:47Z</time>
      </trkpt>
      <trkpt lat="44.85811" lon="5.17608">
        <ele>972.64599609375</ele>
        <time>2009-06-24T14:23:54Z</time>
      </trkpt>
      <trkpt lat="44.85798" lon="5.17625">
        <ele>973.64398193359</ele>
        <time>2009-06-24T14:23:58Z</time>
      </trkpt>
      <trkpt lat="44.85788" lon="5.17627">
        <ele>973.85900878906</ele>
        <time>2009-06-24T14:24:00Z</time>
      </trkpt>
      <trkpt lat="44.85754" lon="5.17612">
        <ele>975.21801757812</ele>
        <time>2009-06-24T14:24:07Z</time>
      </trkpt>
      <trkpt lat="44.85712" lon="5.17591">
        <ele>977.09301757812</ele>
        <time>2009-06-24T14:24:15Z</time>
      </trkpt>
      <trkpt lat="44.85698" lon="5.17583">
        <ele>977.34698486328</ele>
        <time>2009-06-24T14:24:18Z</time>
      </trkpt>
      <trkpt lat="44.856" lon="5.17555">
        <ele>979.63000488281</ele>
        <time>2009-06-24T14:24:38Z</time>
      </trkpt>
      <trkpt lat="44.85548" lon="5.17553">
        <ele>980.92901611328</ele>
        <time>2009-06-24T14:24:48Z</time>
      </trkpt>
      <trkpt lat="44.85451" lon="5.17547">
        <ele>983.29699707031</ele>
        <time>2009-06-24T14:25:06Z</time>
      </trkpt>
      <trkpt lat="44.85434" lon="5.17548">
        <ele>983.66400146484</ele>
        <time>2009-06-24T14:25:09Z</time>
      </trkpt>
      <trkpt lat="44.85347" lon="5.17566">
        <ele>985.49401855469</ele>
        <time>2009-06-24T14:25:25Z</time>
      </trkpt>
      <trkpt lat="44.8531" lon="5.17561">
        <ele>985.95098876953</ele>
        <time>2009-06-24T14:25:34Z</time>
      </trkpt>
      <trkpt lat="44.85307" lon="5.1756">
        <ele>985.75897216797</ele>
        <time>2009-06-24T14:25:35Z</time>
      </trkpt>
      <trkpt lat="44.85302" lon="5.17559">
        <ele>985.67297363281</ele>
        <time>2009-06-24T14:25:41Z</time>
      </trkpt>
      <trkpt lat="44.85307" lon="5.1756">
        <ele>985.86602783203</ele>
        <time>2009-06-24T14:25:54Z</time>
      </trkpt>
      <trkpt lat="44.85302" lon="5.17559">
        <ele>985.46600341797</ele>
        <time>2009-06-24T14:25:59Z</time>
      </trkpt>
      <trkpt lat="44.85278" lon="5.17545">
        <ele>985.23199462891</ele>
        <time>2009-06-24T14:26:05Z</time>
      </trkpt>
      <trkpt lat="44.85222" lon="5.17503">
        <ele>983.29498291016</ele>
        <time>2009-06-24T14:26:16Z</time>
      </trkpt>
      <trkpt lat="44.85211" lon="5.17491">
        <ele>982.59100341797</ele>
        <time>2009-06-24T14:26:18Z</time>
      </trkpt>
      <trkpt lat="44.85185" lon="5.17453">
        <ele>980.56799316406</ele>
        <time>2009-06-24T14:26:23Z</time>
      </trkpt>
      <trkpt lat="44.85169" lon="5.17429">
        <ele>979.06799316406</ele>
        <time>2009-06-24T14:26:26Z</time>
      </trkpt>
      <trkpt lat="44.85154" lon="5.174">
        <ele>977.94702148438</ele>
        <time>2009-06-24T14:26:29Z</time>
      </trkpt>
      <trkpt lat="44.85146" lon="5.17328">
        <ele>974.17999267578</ele>
        <time>2009-06-24T14:26:35Z</time>
      </trkpt>
      <trkpt lat="44.85155" lon="5.17305">
        <ele>973.20202636719</ele>
        <time>2009-06-24T14:26:37Z</time>
      </trkpt>
      <trkpt lat="44.85181" lon="5.17251">
        <ele>970.76898193359</ele>
        <time>2009-06-24T14:26:42Z</time>
      </trkpt>
      <trkpt lat="44.85192" lon="5.17217">
        <ele>969.70501708984</ele>
        <time>2009-06-24T14:26:45Z</time>
      </trkpt>
      <trkpt lat="44.85176" lon="5.17203">
        <ele>968.84802246094</ele>
        <time>2009-06-24T14:26:47Z</time>
      </trkpt>
      <trkpt lat="44.85152" lon="5.17216">
        <ele>967.86700439453</ele>
        <time>2009-06-24T14:26:50Z</time>
      </trkpt>
      <trkpt lat="44.85083" lon="5.17267">
        <ele>964.375</ele>
        <time>2009-06-24T14:26:58Z</time>
      </trkpt>
      <trkpt lat="44.85083" lon="5.17267">
        <ele>962.91101074219</ele>
        <time>2009-06-24T14:27:00Z</time>
      </trkpt>
      <trkpt lat="44.85041" lon="5.17284">
        <ele>962.32598876953</ele>
        <time>2009-06-24T14:27:02Z</time>
      </trkpt>
      <trkpt lat="44.85008" lon="5.17284">
        <ele>961.09399414062</ele>
        <time>2009-06-24T14:27:05Z</time>
      </trkpt>
      <trkpt lat="44.8498" lon="5.17284">
        <ele>959.82897949219</ele>
        <time>2009-06-24T14:27:08Z</time>
      </trkpt>
      <trkpt lat="44.84837" lon="5.17272">
        <ele>952.68103027344</ele>
        <time>2009-06-24T14:27:20Z</time>
      </trkpt>
      <trkpt lat="44.848" lon="5.17228">
        <ele>949.38000488281</ele>
        <time>2009-06-24T14:27:25Z</time>
      </trkpt>
      <trkpt lat="44.84796" lon="5.1711">
        <ele>945.21398925781</ele>
        <time>2009-06-24T14:27:33Z</time>
      </trkpt>
      <trkpt lat="44.84776" lon="5.17044">
        <ele>942.63800048828</ele>
        <time>2009-06-24T14:27:38Z</time>
      </trkpt>
      <trkpt lat="44.84712" lon="5.17029">
        <ele>939.4580078125</ele>
        <time>2009-06-24T14:27:44Z</time>
      </trkpt>
      <trkpt lat="44.84559" lon="5.17094">
        <ele>931.53399658203</ele>
        <time>2009-06-24T14:27:58Z</time>
      </trkpt>
      <trkpt lat="44.84536" lon="5.17105">
        <ele>930.32397460938</ele>
        <time>2009-06-24T14:28:00Z</time>
      </trkpt>
      <trkpt lat="44.8449" lon="5.17114">
        <ele>927.03302001953</ele>
        <time>2009-06-24T14:28:04Z</time>
      </trkpt>
      <trkpt lat="44.84466" lon="5.17105">
        <ele>925.98400878906</ele>
        <time>2009-06-24T14:28:06Z</time>
      </trkpt>
      <trkpt lat="44.84429" lon="5.17091">
        <ele>922.94897460938</ele>
        <time>2009-06-24T14:28:09Z</time>
      </trkpt>
      <trkpt lat="44.84332" lon="5.17035">
        <ele>915.36999511719</ele>
        <time>2009-06-24T14:28:18Z</time>
      </trkpt>
      <trkpt lat="44.84332" lon="5.17035">
        <ele>914.43597412109</ele>
        <time>2009-06-24T14:28:20Z</time>
      </trkpt>
      <trkpt lat="44.84178" lon="5.16953">
        <ele>907.46502685547</ele>
        <time>2009-06-24T14:28:29Z</time>
      </trkpt>
      <trkpt lat="44.84087" lon="5.16918">
        <ele>902.85900878906</ele>
        <time>2009-06-24T14:28:36Z</time>
      </trkpt>
      <trkpt lat="44.84013" lon="5.16878">
        <ele>897.26599121094</ele>
        <time>2009-06-24T14:28:42Z</time>
      </trkpt>
      <trkpt lat="44.83961" lon="5.1686">
        <ele>894.91302490234</ele>
        <time>2009-06-24T14:28:46Z</time>
      </trkpt>
      <trkpt lat="44.83815" lon="5.16827">
        <ele>886.86999511719</ele>
        <time>2009-06-24T14:28:57Z</time>
      </trkpt>
      <trkpt lat="44.83775" lon="5.16816">
        <ele>884.24700927734</ele>
        <time>2009-06-24T14:29:00Z</time>
      </trkpt>
      <trkpt lat="44.83721" lon="5.16811">
        <ele>881.30297851562</ele>
        <time>2009-06-24T14:29:04Z</time>
      </trkpt>
      <trkpt lat="44.83694" lon="5.16809">
        <ele>880.36901855469</ele>
        <time>2009-06-24T14:29:06Z</time>
      </trkpt>
      <trkpt lat="44.83628" lon="5.16788">
        <ele>876.50201416016</ele>
        <time>2009-06-24T14:29:11Z</time>
      </trkpt>
      <trkpt lat="44.83534" lon="5.16764">
        <ele>871.45599365234</ele>
        <time>2009-06-24T14:29:18Z</time>
      </trkpt>
      <trkpt lat="44.8347" lon="5.16739">
        <ele>867.84100341797</ele>
        <time>2009-06-24T14:29:23Z</time>
      </trkpt>
      <trkpt lat="44.83458" lon="5.16732">
        <ele>866.39398193359</ele>
        <time>2009-06-24T14:29:24Z</time>
      </trkpt>
      <trkpt lat="44.83408" lon="5.167">
        <ele>864.27600097656</ele>
        <time>2009-06-24T14:29:28Z</time>
      </trkpt>
      <trkpt lat="44.83316" lon="5.1666">
        <ele>858.59899902344</ele>
        <time>2009-06-24T14:29:35Z</time>
      </trkpt>
      <trkpt lat="44.83167" lon="5.16613">
        <ele>848.85302734375</ele>
        <time>2009-06-24T14:29:46Z</time>
      </trkpt>
      <trkpt lat="44.83153" lon="5.16609">
        <ele>848.17199707031</ele>
        <time>2009-06-24T14:29:47Z</time>
      </trkpt>
      <trkpt lat="44.83055" lon="5.16589">
        <ele>841.51202392578</ele>
        <time>2009-06-24T14:29:54Z</time>
      </trkpt>
      <trkpt lat="44.83026" lon="5.16589">
        <ele>840.61199951172</ele>
        <time>2009-06-24T14:29:56Z</time>
      </trkpt>
      <trkpt lat="44.82927" lon="5.16604">
        <ele>835.78100585938</ele>
        <time>2009-06-24T14:30:03Z</time>
      </trkpt>
      <trkpt lat="44.82804" lon="5.16595">
        <ele>829.07501220703</ele>
        <time>2009-06-24T14:30:12Z</time>
      </trkpt>
      <trkpt lat="44.82735" lon="5.16573">
        <ele>823.68103027344</ele>
        <time>2009-06-24T14:30:17Z</time>
      </trkpt>
      <trkpt lat="44.82694" lon="5.16558">
        <ele>821.32000732422</ele>
        <time>2009-06-24T14:30:20Z</time>
      </trkpt>
      <trkpt lat="44.82666" lon="5.1655">
        <ele>818.28997802734</ele>
        <time>2009-06-24T14:30:22Z</time>
      </trkpt>
      <trkpt lat="44.82624" lon="5.16542">
        <ele>816.56597900391</ele>
        <time>2009-06-24T14:30:25Z</time>
      </trkpt>
      <trkpt lat="44.82568" lon="5.16545">
        <ele>812.86700439453</ele>
        <time>2009-06-24T14:30:29Z</time>
      </trkpt>
      <trkpt lat="44.82521" lon="5.16538">
        <ele>809.45397949219</ele>
        <time>2009-06-24T14:30:33Z</time>
      </trkpt>
      <trkpt lat="44.82481" lon="5.16494">
        <ele>806.37097167969</ele>
        <time>2009-06-24T14:30:36Z</time>
      </trkpt>
      <trkpt lat="44.82435" lon="5.16473">
        <ele>804.04998779297</ele>
        <time>2009-06-24T14:30:40Z</time>
      </trkpt>
      <trkpt lat="44.82364" lon="5.16443">
        <ele>800.57000732422</ele>
        <time>2009-06-24T14:30:45Z</time>
      </trkpt>
      <trkpt lat="44.82342" lon="5.16422">
        <ele>799.15802001953</ele>
        <time>2009-06-24T14:30:47Z</time>
      </trkpt>
      <trkpt lat="44.82294" lon="5.16383">
        <ele>795.38299560547</ele>
        <time>2009-06-24T14:30:51Z</time>
      </trkpt>
      <trkpt lat="44.82231" lon="5.16358">
        <ele>792.33898925781</ele>
        <time>2009-06-24T14:30:56Z</time>
      </trkpt>
      <trkpt lat="44.8219" lon="5.16361">
        <ele>790.33001708984</ele>
        <time>2009-06-24T14:30:59Z</time>
      </trkpt>
      <trkpt lat="44.82097" lon="5.1635">
        <ele>785.68103027344</ele>
        <time>2009-06-24T14:31:06Z</time>
      </trkpt>
      <trkpt lat="44.82001" lon="5.16336">
        <ele>779.78601074219</ele>
        <time>2009-06-24T14:31:14Z</time>
      </trkpt>
      <trkpt lat="44.81875" lon="5.1633">
        <ele>774.32397460938</ele>
        <time>2009-06-24T14:31:23Z</time>
      </trkpt>
      <trkpt lat="44.81837" lon="5.16324">
        <ele>772.15002441406</ele>
        <time>2009-06-24T14:31:26Z</time>
      </trkpt>
      <trkpt lat="44.818" lon="5.16312">
        <ele>769.49102783203</ele>
        <time>2009-06-24T14:31:29Z</time>
      </trkpt>
      <trkpt lat="44.81634" lon="5.16348">
        <ele>759.90301513672</ele>
        <time>2009-06-24T14:31:41Z</time>
      </trkpt>
      <trkpt lat="44.8162" lon="5.16347">
        <ele>758.83001708984</ele>
        <time>2009-06-24T14:31:42Z</time>
      </trkpt>
      <trkpt lat="44.81554" lon="5.16366">
        <ele>754.18798828125</ele>
        <time>2009-06-24T14:31:47Z</time>
      </trkpt>
      <trkpt lat="44.81495" lon="5.16409">
        <ele>750.97100830078</ele>
        <time>2009-06-24T14:31:52Z</time>
      </trkpt>
      <trkpt lat="44.81448" lon="5.16459">
        <ele>747.04498291016</ele>
        <time>2009-06-24T14:31:56Z</time>
      </trkpt>
      <trkpt lat="44.81402" lon="5.16504">
        <ele>744.84399414062</ele>
        <time>2009-06-24T14:32:00Z</time>
      </trkpt>
      <trkpt lat="44.81295" lon="5.16533">
        <ele>739.67602539062</ele>
        <time>2009-06-24T14:32:08Z</time>
      </trkpt>
      <trkpt lat="44.81269" lon="5.16543">
        <ele>738.70098876953</ele>
        <time>2009-06-24T14:32:10Z</time>
      </trkpt>
      <trkpt lat="44.81233" lon="5.16614">
        <ele>734.76202392578</ele>
        <time>2009-06-24T14:32:15Z</time>
      </trkpt>
      <trkpt lat="44.81229" lon="5.1665">
        <ele>733.38397216797</ele>
        <time>2009-06-24T14:32:17Z</time>
      </trkpt>
      <trkpt lat="44.81229" lon="5.16774">
        <ele>725.78802490234</ele>
        <time>2009-06-24T14:32:26Z</time>
      </trkpt>
      <trkpt lat="44.8123" lon="5.16913">
        <ele>719.60400390625</ele>
        <time>2009-06-24T14:32:31Z</time>
      </trkpt>
      <trkpt lat="44.81215" lon="5.16984">
        <ele>716.5009765625</ele>
        <time>2009-06-24T14:32:35Z</time>
      </trkpt>
      <trkpt lat="44.812" lon="5.17001">
        <ele>713.64801025391</ele>
        <time>2009-06-24T14:32:39Z</time>
      </trkpt>
      <trkpt lat="44.81162" lon="5.16948">
        <ele>709.98901367188</ele>
        <time>2009-06-24T14:32:45Z</time>
      </trkpt>
      <trkpt lat="44.81146" lon="5.16929">
        <ele>708.75799560547</ele>
        <time>2009-06-24T14:32:47Z</time>
      </trkpt>
      <trkpt lat="44.81049" lon="5.16812">
        <ele>698.00299072266</ele>
        <time>2009-06-24T14:32:59Z</time>
      </trkpt>
      <trkpt lat="44.80941" lon="5.16681">
        <ele>693.15698242188</ele>
        <time>2009-06-24T14:33:10Z</time>
      </trkpt>
      <trkpt lat="44.80924" lon="5.1666">
        <ele>692.42498779297</ele>
        <time>2009-06-24T14:33:12Z</time>
      </trkpt>
      <trkpt lat="44.80911" lon="5.16645">
        <ele>690.98199462891</ele>
        <time>2009-06-24T14:33:14Z</time>
      </trkpt>
      <trkpt lat="44.80899" lon="5.16596">
        <ele>690.17297363281</ele>
        <time>2009-06-24T14:33:17Z</time>
      </trkpt>
      <trkpt lat="44.80891" lon="5.16523">
        <ele>687.47601318359</ele>
        <time>2009-06-24T14:33:22Z</time>
      </trkpt>
      <trkpt lat="44.809" lon="5.16377">
        <ele>683.62701416016</ele>
        <time>2009-06-24T14:33:32Z</time>
      </trkpt>
      <trkpt lat="44.80885" lon="5.16309">
        <ele>681.11999511719</ele>
        <time>2009-06-24T14:33:38Z</time>
      </trkpt>
      <trkpt lat="44.80841" lon="5.16283">
        <ele>677.10601806641</ele>
        <time>2009-06-24T14:33:43Z</time>
      </trkpt>
      <trkpt lat="44.80834" lon="5.16223">
        <ele>674.63897705078</ele>
        <time>2009-06-24T14:33:47Z</time>
      </trkpt>
      <trkpt lat="44.80837" lon="5.16095">
        <ele>667.45098876953</ele>
        <time>2009-06-24T14:33:55Z</time>
      </trkpt>
      <trkpt lat="44.8083" lon="5.16032">
        <ele>664.82702636719</ele>
        <time>2009-06-24T14:33:59Z</time>
      </trkpt>
      <trkpt lat="44.8082" lon="5.16004">
        <ele>662.71899414062</ele>
        <time>2009-06-24T14:34:01Z</time>
      </trkpt>
      <trkpt lat="44.80813" lon="5.15991">
        <ele>662.13500976562</ele>
        <time>2009-06-24T14:34:02Z</time>
      </trkpt>
      <trkpt lat="44.80785" lon="5.15941">
        <ele>659.36602783203</ele>
        <time>2009-06-24T14:34:06Z</time>
      </trkpt>
      <trkpt lat="44.80712" lon="5.15869">
        <ele>655.39599609375</ele>
        <time>2009-06-24T14:34:14Z</time>
      </trkpt>
      <trkpt lat="44.80672" lon="5.15837">
        <ele>651.833984375</ele>
        <time>2009-06-24T14:34:18Z</time>
      </trkpt>
      <trkpt lat="44.80566" lon="5.15752">
        <ele>644.67199707031</ele>
        <time>2009-06-24T14:34:28Z</time>
      </trkpt>
      <trkpt lat="44.80429" lon="5.15656">
        <ele>635.75299072266</ele>
        <time>2009-06-24T14:34:40Z</time>
      </trkpt>
      <trkpt lat="44.8034" lon="5.15622">
        <ele>629.77502441406</ele>
        <time>2009-06-24T14:34:47Z</time>
      </trkpt>
      <trkpt lat="44.80274" lon="5.15603">
        <ele>625.83197021484</ele>
        <time>2009-06-24T14:34:52Z</time>
      </trkpt>
      <trkpt lat="44.80115" lon="5.15552">
        <ele>614.73199462891</ele>
        <time>2009-06-24T14:35:04Z</time>
      </trkpt>
      <trkpt lat="44.80088" lon="5.15542">
        <ele>613.99298095703</ele>
        <time>2009-06-24T14:35:06Z</time>
      </trkpt>
      <trkpt lat="44.80023" lon="5.15518">
        <ele>610.09301757812</ele>
        <time>2009-06-24T14:35:11Z</time>
      </trkpt>
      <trkpt lat="44.79906" lon="5.1542">
        <ele>603.41998291016</ele>
        <time>2009-06-24T14:35:21Z</time>
      </trkpt>
      <trkpt lat="44.79884" lon="5.15398">
        <ele>602.01702880859</ele>
        <time>2009-06-24T14:35:24Z</time>
      </trkpt>
      <trkpt lat="44.79863" lon="5.15385">
        <ele>600.63897705078</ele>
        <time>2009-06-24T14:35:28Z</time>
      </trkpt>
      <trkpt lat="44.79834" lon="5.15383">
        <ele>598.69500732422</ele>
        <time>2009-06-24T14:35:33Z</time>
      </trkpt>
      <trkpt lat="44.79829" lon="5.15384">
        <ele>598.09197998047</ele>
        <time>2009-06-24T14:35:34Z</time>
      </trkpt>
      <trkpt lat="44.79774" lon="5.1542">
        <ele>593.66198730469</ele>
        <time>2009-06-24T14:35:41Z</time>
      </trkpt>
      <trkpt lat="44.79755" lon="5.15433">
        <ele>592.68902587891</ele>
        <time>2009-06-24T14:35:43Z</time>
      </trkpt>
      <trkpt lat="44.79713" lon="5.15461">
        <ele>589.77099609375</ele>
        <time>2009-06-24T14:35:47Z</time>
      </trkpt>
      <trkpt lat="44.79669" lon="5.15495">
        <ele>586.69201660156</ele>
        <time>2009-06-24T14:35:51Z</time>
      </trkpt>
      <trkpt lat="44.7964" lon="5.15555">
        <ele>584.21997070312</ele>
        <time>2009-06-24T14:35:55Z</time>
      </trkpt>
      <trkpt lat="44.79628" lon="5.15607">
        <ele>581.91101074219</ele>
        <time>2009-06-24T14:35:58Z</time>
      </trkpt>
      <trkpt lat="44.79637" lon="5.15685">
        <ele>578.42999267578</ele>
        <time>2009-06-24T14:36:03Z</time>
      </trkpt>
      <trkpt lat="44.79645" lon="5.15695">
        <ele>578.29302978516</ele>
        <time>2009-06-24T14:36:04Z</time>
      </trkpt>
      <trkpt lat="44.79654" lon="5.15714">
        <ele>576.35998535156</ele>
        <time>2009-06-24T14:36:08Z</time>
      </trkpt>
      <trkpt lat="44.79654" lon="5.15714">
        <ele>576.08697509766</ele>
        <time>2009-06-24T14:36:09Z</time>
      </trkpt>
      <trkpt lat="44.79654" lon="5.15714">
        <ele>575.87799072266</ele>
        <time>2009-06-24T14:36:10Z</time>
      </trkpt>
      <trkpt lat="44.79628" lon="5.157">
        <ele>574.57897949219</ele>
        <time>2009-06-24T14:36:12Z</time>
      </trkpt>
      <trkpt lat="44.7961" lon="5.15658">
        <ele>572.72998046875</ele>
        <time>2009-06-24T14:36:16Z</time>
      </trkpt>
      <trkpt lat="44.79601" lon="5.15593">
        <ele>569.97998046875</ele>
        <time>2009-06-24T14:36:21Z</time>
      </trkpt>
      <trkpt lat="44.79598" lon="5.15534">
        <ele>567.52697753906</ele>
        <time>2009-06-24T14:36:25Z</time>
      </trkpt>
      <trkpt lat="44.79605" lon="5.15472">
        <ele>565.07702636719</ele>
        <time>2009-06-24T14:36:29Z</time>
      </trkpt>
      <trkpt lat="44.79612" lon="5.15459">
        <ele>563.90502929688</ele>
        <time>2009-06-24T14:36:30Z</time>
      </trkpt>
      <trkpt lat="44.79668" lon="5.15355">
        <ele>559.04901123047</ele>
        <time>2009-06-24T14:36:38Z</time>
      </trkpt>
      <trkpt lat="44.79676" lon="5.15342">
        <ele>558.00799560547</ele>
        <time>2009-06-24T14:36:39Z</time>
      </trkpt>
      <trkpt lat="44.79733" lon="5.15226">
        <ele>551.30798339844</ele>
        <time>2009-06-24T14:36:47Z</time>
      </trkpt>
      <trkpt lat="44.79784" lon="5.15182">
        <ele>549.86297607422</ele>
        <time>2009-06-24T14:36:52Z</time>
      </trkpt>
      <trkpt lat="44.79778" lon="5.15164">
        <ele>548.37298583984</ele>
        <time>2009-06-24T14:36:56Z</time>
      </trkpt>
      <trkpt lat="44.79773" lon="5.15166">
        <ele>548.34399414062</ele>
        <time>2009-06-24T14:36:57Z</time>
      </trkpt>
      <trkpt lat="44.79672" lon="5.15207">
        <ele>540.99700927734</ele>
        <time>2009-06-24T14:37:08Z</time>
      </trkpt>
      <trkpt lat="44.79633" lon="5.15239">
        <ele>538.44000244141</ele>
        <time>2009-06-24T14:37:12Z</time>
      </trkpt>
      <trkpt lat="44.79565" lon="5.15317">
        <ele>532.62902832031</ele>
        <time>2009-06-24T14:37:19Z</time>
      </trkpt>
      <trkpt lat="44.79535" lon="5.15351">
        <ele>530.18902587891</ele>
        <time>2009-06-24T14:37:22Z</time>
      </trkpt>
      <trkpt lat="44.79474" lon="5.15373">
        <ele>526.99700927734</ele>
        <time>2009-06-24T14:37:27Z</time>
      </trkpt>
      <trkpt lat="44.79435" lon="5.15382">
        <ele>524.43499755859</ele>
        <time>2009-06-24T14:37:30Z</time>
      </trkpt>
      <trkpt lat="44.79399" lon="5.15406">
        <ele>522.75</ele>
        <time>2009-06-24T14:37:33Z</time>
      </trkpt>
      <trkpt lat="44.7935" lon="5.1543">
        <ele>519.33801269531</ele>
        <time>2009-06-24T14:37:37Z</time>
      </trkpt>
      <trkpt lat="44.79319" lon="5.15422">
        <ele>516.39898681641</ele>
        <time>2009-06-24T14:37:42Z</time>
      </trkpt>
      <trkpt lat="44.7932" lon="5.15412">
        <ele>516.44000244141</ele>
        <time>2009-06-24T14:37:43Z</time>
      </trkpt>
      <trkpt lat="44.79348" lon="5.15341">
        <ele>513.97601318359</ele>
        <time>2009-06-24T14:37:49Z</time>
      </trkpt>
      <trkpt lat="44.79362" lon="5.153">
        <ele>511.75799560547</ele>
        <time>2009-06-24T14:37:52Z</time>
      </trkpt>
      <trkpt lat="44.79373" lon="5.15273">
        <ele>510.77200317383</ele>
        <time>2009-06-24T14:37:54Z</time>
      </trkpt>
      <trkpt lat="44.79396" lon="5.15239">
        <ele>508.36599731445</ele>
        <time>2009-06-24T14:37:57Z</time>
      </trkpt>
      <trkpt lat="44.79409" lon="5.15189">
        <ele>506.26901245117</ele>
        <time>2009-06-24T14:38:01Z</time>
      </trkpt>
      <trkpt lat="44.79396" lon="5.15156">
        <ele>504.36099243164</ele>
        <time>2009-06-24T14:38:05Z</time>
      </trkpt>
      <trkpt lat="44.79376" lon="5.15198">
        <ele>501.85998535156</ele>
        <time>2009-06-24T14:38:10Z</time>
      </trkpt>
      <trkpt lat="44.79368" lon="5.15199">
        <ele>501.38101196289</ele>
        <time>2009-06-24T14:38:11Z</time>
      </trkpt>
      <trkpt lat="44.79307" lon="5.15204">
        <ele>497.71798706055</ele>
        <time>2009-06-24T14:38:17Z</time>
      </trkpt>
      <trkpt lat="44.79228" lon="5.15211">
        <ele>493.45401000977</ele>
        <time>2009-06-24T14:38:24Z</time>
      </trkpt>
      <trkpt lat="44.79184" lon="5.15231">
        <ele>489.65600585938</ele>
        <time>2009-06-24T14:38:28Z</time>
      </trkpt>
      <trkpt lat="44.79172" lon="5.15236">
        <ele>489.36401367188</ele>
        <time>2009-06-24T14:38:29Z</time>
      </trkpt>
      <trkpt lat="44.79125" lon="5.15304">
        <ele>485.80599975586</ele>
        <time>2009-06-24T14:38:35Z</time>
      </trkpt>
      <trkpt lat="44.79107" lon="5.15282">
        <ele>483.20700073242</ele>
        <time>2009-06-24T14:38:38Z</time>
      </trkpt>
      <trkpt lat="44.79038" lon="5.15209">
        <ele>477.93099975586</ele>
        <time>2009-06-24T14:38:46Z</time>
      </trkpt>
      <trkpt lat="44.78957" lon="5.15193">
        <ele>472.36999511719</ele>
        <time>2009-06-24T14:38:53Z</time>
      </trkpt>
      <trkpt lat="44.78946" lon="5.15186">
        <ele>471.04598999023</ele>
        <time>2009-06-24T14:38:54Z</time>
      </trkpt>
      <trkpt lat="44.78901" lon="5.15157">
        <ele>467.78698730469</ele>
        <time>2009-06-24T14:38:58Z</time>
      </trkpt>
      <trkpt lat="44.78862" lon="5.15091">
        <ele>462.9700012207</ele>
        <time>2009-06-24T14:39:03Z</time>
      </trkpt>
      <trkpt lat="44.78875" lon="5.15041">
        <ele>460.71499633789</ele>
        <time>2009-06-24T14:39:06Z</time>
      </trkpt>
      <trkpt lat="44.78907" lon="5.14988">
        <ele>456.94100952148</ele>
        <time>2009-06-24T14:39:10Z</time>
      </trkpt>
      <trkpt lat="44.78977" lon="5.14911">
        <ele>451.02099609375</ele>
        <time>2009-06-24T14:39:17Z</time>
      </trkpt>
      <trkpt lat="44.79013" lon="5.14892">
        <ele>448.67700195312</ele>
        <time>2009-06-24T14:39:20Z</time>
      </trkpt>
      <trkpt lat="44.79033" lon="5.14871">
        <ele>447.01800537109</ele>
        <time>2009-06-24T14:39:24Z</time>
      </trkpt>
      <trkpt lat="44.79025" lon="5.14868">
        <ele>446.27499389648</ele>
        <time>2009-06-24T14:39:26Z</time>
      </trkpt>
      <trkpt lat="44.78969" lon="5.1487">
        <ele>442.33599853516</ele>
        <time>2009-06-24T14:39:32Z</time>
      </trkpt>
      <trkpt lat="44.78947" lon="5.14871">
        <ele>441.03500366211</ele>
        <time>2009-06-24T14:39:34Z</time>
      </trkpt>
      <trkpt lat="44.789" lon="5.14884">
        <ele>438.05999755859</ele>
        <time>2009-06-24T14:39:38Z</time>
      </trkpt>
      <trkpt lat="44.78867" lon="5.14912">
        <ele>434.59201049805</ele>
        <time>2009-06-24T14:39:41Z</time>
      </trkpt>
      <trkpt lat="44.78856" lon="5.14923">
        <ele>434.3219909668</ele>
        <time>2009-06-24T14:39:42Z</time>
      </trkpt>
      <trkpt lat="44.78796" lon="5.1498">
        <ele>429.91000366211</ele>
        <time>2009-06-24T14:39:48Z</time>
      </trkpt>
      <trkpt lat="44.78766" lon="5.15003">
        <ele>428.12600708008</ele>
        <time>2009-06-24T14:39:50Z</time>
      </trkpt>
      <trkpt lat="44.78745" lon="5.14996">
        <ele>425.39801025391</ele>
        <time>2009-06-24T14:39:55Z</time>
      </trkpt>
      <trkpt lat="44.7875" lon="5.1499">
        <ele>424.97900390625</ele>
        <time>2009-06-24T14:39:56Z</time>
      </trkpt>
      <trkpt lat="44.78806" lon="5.14921">
        <ele>419.31799316406</ele>
        <time>2009-06-24T14:40:04Z</time>
      </trkpt>
      <trkpt lat="44.78841" lon="5.14848">
        <ele>415.49099731445</ele>
        <time>2009-06-24T14:40:10Z</time>
      </trkpt>
      <trkpt lat="44.78897" lon="5.14727">
        <ele>408.59298706055</ele>
        <time>2009-06-24T14:40:19Z</time>
      </trkpt>
      <trkpt lat="44.78934" lon="5.14682">
        <ele>404.72299194336</ele>
        <time>2009-06-24T14:40:23Z</time>
      </trkpt>
      <trkpt lat="44.78984" lon="5.1461">
        <ele>399.75900268555</ele>
        <time>2009-06-24T14:40:29Z</time>
      </trkpt>
      <trkpt lat="44.7899" lon="5.14594">
        <ele>398.99899291992</ele>
        <time>2009-06-24T14:40:30Z</time>
      </trkpt>
      <trkpt lat="44.78998" lon="5.14515">
        <ele>396.26000976562</ele>
        <time>2009-06-24T14:40:35Z</time>
      </trkpt>
      <trkpt lat="44.78971" lon="5.14491">
        <ele>397.54998779297</ele>
        <time>2009-06-24T14:40:38Z</time>
      </trkpt>
      <trkpt lat="44.78925" lon="5.14482">
        <ele>399.27398681641</ele>
        <time>2009-06-24T14:40:43Z</time>
      </trkpt>
      <trkpt lat="44.7889" lon="5.14465">
        <ele>401.06201171875</ele>
        <time>2009-06-24T14:40:48Z</time>
      </trkpt>
      <trkpt lat="44.78878" lon="5.14459">
        <ele>401.26098632812</ele>
        <time>2009-06-24T14:40:50Z</time>
      </trkpt>
      <trkpt lat="44.78829" lon="5.14432">
        <ele>403.51699829102</ele>
        <time>2009-06-24T14:40:59Z</time>
      </trkpt>
      <trkpt lat="44.78803" lon="5.14416">
        <ele>404.64898681641</ele>
        <time>2009-06-24T14:41:04Z</time>
      </trkpt>
      <trkpt lat="44.78784" lon="5.14403">
        <ele>405.28601074219</ele>
        <time>2009-06-24T14:41:08Z</time>
      </trkpt>
      <trkpt lat="44.78766" lon="5.14392">
        <ele>405.99499511719</ele>
        <time>2009-06-24T14:41:12Z</time>
      </trkpt>
      <trkpt lat="44.78753" lon="5.14383">
        <ele>406.64498901367</ele>
        <time>2009-06-24T14:41:16Z</time>
      </trkpt>
      <trkpt lat="44.78731" lon="5.14381">
        <ele>407.53298950195</ele>
        <time>2009-06-24T14:41:20Z</time>
      </trkpt>
      <trkpt lat="44.7871" lon="5.14381">
        <ele>408.41799926758</ele>
        <time>2009-06-24T14:41:25Z</time>
      </trkpt>
      <trkpt lat="44.78671" lon="5.14396">
        <ele>409.90701293945</ele>
        <time>2009-06-24T14:41:35Z</time>
      </trkpt>
      <trkpt lat="44.78649" lon="5.14409">
        <ele>410.04800415039</ele>
        <time>2009-06-24T14:41:41Z</time>
      </trkpt>
      <trkpt lat="44.78593" lon="5.1446">
        <ele>413.63101196289</ele>
        <time>2009-06-24T14:41:57Z</time>
      </trkpt>
      <trkpt lat="44.78561" lon="5.14486">
        <ele>414.93399047852</ele>
        <time>2009-06-24T14:42:06Z</time>
      </trkpt>
      <trkpt lat="44.78495" lon="5.14494">
        <ele>416.90899658203</ele>
        <time>2009-06-24T14:42:23Z</time>
      </trkpt>
      <trkpt lat="44.78408" lon="5.14474">
        <ele>415.70599365234</ele>
        <time>2009-06-24T14:42:39Z</time>
      </trkpt>
      <trkpt lat="44.78327" lon="5.14455">
        <ele>414.90600585938</ele>
        <time>2009-06-24T14:42:52Z</time>
      </trkpt>
      <trkpt lat="44.78295" lon="5.14446">
        <ele>414.44400024414</ele>
        <time>2009-06-24T14:42:57Z</time>
      </trkpt>
      <trkpt lat="44.7827" lon="5.1442">
        <ele>413.53100585938</ele>
        <time>2009-06-24T14:43:02Z</time>
      </trkpt>
      <trkpt lat="44.7826" lon="5.14404">
        <ele>412.8030090332</ele>
        <time>2009-06-24T14:43:04Z</time>
      </trkpt>
      <trkpt lat="44.78218" lon="5.14367">
        <ele>410.90798950195</ele>
        <time>2009-06-24T14:43:10Z</time>
      </trkpt>
      <trkpt lat="44.78157" lon="5.14373">
        <ele>408.08599853516</ele>
        <time>2009-06-24T14:43:17Z</time>
      </trkpt>
      <trkpt lat="44.78126" lon="5.1437">
        <ele>407.23001098633</ele>
        <time>2009-06-24T14:43:21Z</time>
      </trkpt>
      <trkpt lat="44.78079" lon="5.14332">
        <ele>404.61099243164</ele>
        <time>2009-06-24T14:43:26Z</time>
      </trkpt>
      <trkpt lat="44.78046" lon="5.14306">
        <ele>402.87200927734</ele>
        <time>2009-06-24T14:43:30Z</time>
      </trkpt>
      <trkpt lat="44.78031" lon="5.14293">
        <ele>402.43499755859</ele>
        <time>2009-06-24T14:43:32Z</time>
      </trkpt>
      <trkpt lat="44.78003" lon="5.14237">
        <ele>402.71600341797</ele>
        <time>2009-06-24T14:43:39Z</time>
      </trkpt>
      <trkpt lat="44.78001" lon="5.14229">
        <ele>402.96899414062</ele>
        <time>2009-06-24T14:43:40Z</time>
      </trkpt>
      <trkpt lat="44.77994" lon="5.14186">
        <ele>404.63000488281</ele>
        <time>2009-06-24T14:43:47Z</time>
      </trkpt>
      <trkpt lat="44.77995" lon="5.14163">
        <ele>405.18399047852</ele>
        <time>2009-06-24T14:43:51Z</time>
      </trkpt>
      <trkpt lat="44.77997" lon="5.1412">
        <ele>407.02398681641</ele>
        <time>2009-06-24T14:43:59Z</time>
      </trkpt>
      <trkpt lat="44.77992" lon="5.14084">
        <ele>408.71499633789</ele>
        <time>2009-06-24T14:44:06Z</time>
      </trkpt>
      <trkpt lat="44.77987" lon="5.14061">
        <ele>409.96301269531</ele>
        <time>2009-06-24T14:44:11Z</time>
      </trkpt>
      <trkpt lat="44.77969" lon="5.14004">
        <ele>412.20199584961</ele>
        <time>2009-06-24T14:44:23Z</time>
      </trkpt>
      <trkpt lat="44.77949" lon="5.13937">
        <ele>415.47299194336</ele>
        <time>2009-06-24T14:44:38Z</time>
      </trkpt>
      <trkpt lat="44.77942" lon="5.13885">
        <ele>418.35400390625</ele>
        <time>2009-06-24T14:44:51Z</time>
      </trkpt>
      <trkpt lat="44.77983" lon="5.13819">
        <ele>421.39300537109</ele>
        <time>2009-06-24T14:45:06Z</time>
      </trkpt>
      <trkpt lat="44.78033" lon="5.13751">
        <ele>425.04501342773</ele>
        <time>2009-06-24T14:45:25Z</time>
      </trkpt>
      <trkpt lat="44.78085" lon="5.13701">
        <ele>426.62799072266</ele>
        <time>2009-06-24T14:45:42Z</time>
      </trkpt>
      <trkpt lat="44.78122" lon="5.13667">
        <ele>427.65899658203</ele>
        <time>2009-06-24T14:45:53Z</time>
      </trkpt>
      <trkpt lat="44.78146" lon="5.13631">
        <ele>426.83599853516</ele>
        <time>2009-06-24T14:46:00Z</time>
      </trkpt>
      <trkpt lat="44.7821" lon="5.13528">
        <ele>426.0830078125</ele>
        <time>2009-06-24T14:46:17Z</time>
      </trkpt>
      <trkpt lat="44.78217" lon="5.13516">
        <ele>425.92599487305</ele>
        <time>2009-06-24T14:46:19Z</time>
      </trkpt>
      <trkpt lat="44.78299" lon="5.13386">
        <ele>425.38900756836</ele>
        <time>2009-06-24T14:46:39Z</time>
      </trkpt>
      <trkpt lat="44.78354" lon="5.13295">
        <ele>426.375</ele>
        <time>2009-06-24T14:46:54Z</time>
      </trkpt>
      <trkpt lat="44.78369" lon="5.13269">
        <ele>426.02899169922</ele>
        <time>2009-06-24T14:46:59Z</time>
      </trkpt>
      <trkpt lat="44.78387" lon="5.13238">
        <ele>425.6969909668</ele>
        <time>2009-06-24T14:47:05Z</time>
      </trkpt>
      <trkpt lat="44.78453" lon="5.13127">
        <ele>425.31100463867</ele>
        <time>2009-06-24T14:47:23Z</time>
      </trkpt>
      <trkpt lat="44.78508" lon="5.13035">
        <ele>424.55200195312</ele>
        <time>2009-06-24T14:47:36Z</time>
      </trkpt>
      <trkpt lat="44.78512" lon="5.13022">
        <ele>424.67001342773</ele>
        <time>2009-06-24T14:47:38Z</time>
      </trkpt>
      <trkpt lat="44.78512" lon="5.12985">
        <ele>425.28601074219</ele>
        <time>2009-06-24T14:47:43Z</time>
      </trkpt>
      <trkpt lat="44.78498" lon="5.12956">
        <ele>426.3030090332</ele>
        <time>2009-06-24T14:47:48Z</time>
      </trkpt>
      <trkpt lat="44.78495" lon="5.1293">
        <ele>427.70098876953</ele>
        <time>2009-06-24T14:47:53Z</time>
      </trkpt>
      <trkpt lat="44.78518" lon="5.12884">
        <ele>429.89001464844</ele>
        <time>2009-06-24T14:48:05Z</time>
      </trkpt>
      <trkpt lat="44.78539" lon="5.12844">
        <ele>432.12899780273</ele>
        <time>2009-06-24T14:48:15Z</time>
      </trkpt>
      <trkpt lat="44.78572" lon="5.12778">
        <ele>435.52600097656</ele>
        <time>2009-06-24T14:48:32Z</time>
      </trkpt>
      <trkpt lat="44.78603" lon="5.12709">
        <ele>437.76098632812</ele>
        <time>2009-06-24T14:48:48Z</time>
      </trkpt>
      <trkpt lat="44.78653" lon="5.12698">
        <ele>438.93499755859</ele>
        <time>2009-06-24T14:49:00Z</time>
      </trkpt>
      <trkpt lat="44.78741" lon="5.12678">
        <ele>440.68701171875</ele>
        <time>2009-06-24T14:49:18Z</time>
      </trkpt>
      <trkpt lat="44.78778" lon="5.12669">
        <ele>441.95001220703</ele>
        <time>2009-06-24T14:49:26Z</time>
      </trkpt>
      <trkpt lat="44.78854" lon="5.12654">
        <ele>444.31600952148</ele>
        <time>2009-06-24T14:49:46Z</time>
      </trkpt>
      <trkpt lat="44.78897" lon="5.12638">
        <ele>446.02499389648</ele>
        <time>2009-06-24T14:49:59Z</time>
      </trkpt>
      <trkpt lat="44.78899" lon="5.12631">
        <ele>446.52200317383</ele>
        <time>2009-06-24T14:50:01Z</time>
      </trkpt>
      <trkpt lat="44.78894" lon="5.12617">
        <ele>447.33401489258</ele>
        <time>2009-06-24T14:50:05Z</time>
      </trkpt>
      <trkpt lat="44.78856" lon="5.12594">
        <ele>449.2799987793</ele>
        <time>2009-06-24T14:50:17Z</time>
      </trkpt>
      <trkpt lat="44.78809" lon="5.12543">
        <ele>452.34600830078</ele>
        <time>2009-06-24T14:50:34Z</time>
      </trkpt>
      <trkpt lat="44.78812" lon="5.12501">
        <ele>454.7919921875</ele>
        <time>2009-06-24T14:50:45Z</time>
      </trkpt>
      <trkpt lat="44.78834" lon="5.12438">
        <ele>456.62600708008</ele>
        <time>2009-06-24T14:51:01Z</time>
      </trkpt>
      <trkpt lat="44.78836" lon="5.12354">
        <ele>459.23400878906</ele>
        <time>2009-06-24T14:51:18Z</time>
      </trkpt>
      <trkpt lat="44.78837" lon="5.12287">
        <ele>461.53900146484</ele>
        <time>2009-06-24T14:51:33Z</time>
      </trkpt>
      <trkpt lat="44.78857" lon="5.12246">
        <ele>463.63500976562</ele>
        <time>2009-06-24T14:51:45Z</time>
      </trkpt>
      <trkpt lat="44.78889" lon="5.12219">
        <ele>466.12298583984</ele>
        <time>2009-06-24T14:51:57Z</time>
      </trkpt>
      <trkpt lat="44.7891" lon="5.12194">
        <ele>468.66400146484</ele>
        <time>2009-06-24T14:52:07Z</time>
      </trkpt>
      <trkpt lat="44.78908" lon="5.12148">
        <ele>470.83099365234</ele>
        <time>2009-06-24T14:52:20Z</time>
      </trkpt>
      <trkpt lat="44.78892" lon="5.12075">
        <ele>474.21701049805</ele>
        <time>2009-06-24T14:52:37Z</time>
      </trkpt>
      <trkpt lat="44.78868" lon="5.11994">
        <ele>478.05700683594</ele>
        <time>2009-06-24T14:52:56Z</time>
      </trkpt>
      <trkpt lat="44.78864" lon="5.11904">
        <ele>480.99398803711</ele>
        <time>2009-06-24T14:53:14Z</time>
      </trkpt>
      <trkpt lat="44.78881" lon="5.11802">
        <ele>483.97698974609</ele>
        <time>2009-06-24T14:53:36Z</time>
      </trkpt>
      <trkpt lat="44.78896" lon="5.11713">
        <ele>486.99700927734</ele>
        <time>2009-06-24T14:53:54Z</time>
      </trkpt>
      <trkpt lat="44.78915" lon="5.11667">
        <ele>489.01998901367</ele>
        <time>2009-06-24T14:54:07Z</time>
      </trkpt>
      <trkpt lat="44.78923" lon="5.1166">
        <ele>490.63101196289</ele>
        <time>2009-06-24T14:54:10Z</time>
      </trkpt>
      <trkpt lat="44.78975" lon="5.11634">
        <ele>494.34899902344</ele>
        <time>2009-06-24T14:54:29Z</time>
      </trkpt>
      <trkpt lat="44.79019" lon="5.11626">
        <ele>498.29400634766</ele>
        <time>2009-06-24T14:54:46Z</time>
      </trkpt>
      <trkpt lat="44.79042" lon="5.11653">
        <ele>500.89599609375</ele>
        <time>2009-06-24T14:54:59Z</time>
      </trkpt>
      <trkpt lat="44.79072" lon="5.11689">
        <ele>504.47198486328</ele>
        <time>2009-06-24T14:55:14Z</time>
      </trkpt>
      <trkpt lat="44.79119" lon="5.11704">
        <ele>507.46600341797</ele>
        <time>2009-06-24T14:55:28Z</time>
      </trkpt>
      <trkpt lat="44.79179" lon="5.11705">
        <ele>511.1969909668</ele>
        <time>2009-06-24T14:55:46Z</time>
      </trkpt>
      <trkpt lat="44.79204" lon="5.11703">
        <ele>512.68499755859</ele>
        <time>2009-06-24T14:55:53Z</time>
      </trkpt>
      <trkpt lat="44.79205" lon="5.11685">
        <ele>514.33697509766</ele>
        <time>2009-06-24T14:55:58Z</time>
      </trkpt>
      <trkpt lat="44.79169" lon="5.11629">
        <ele>517.30603027344</ele>
        <time>2009-06-24T14:56:12Z</time>
      </trkpt>
      <trkpt lat="44.79173" lon="5.11574">
        <ele>519.44702148438</ele>
        <time>2009-06-24T14:56:25Z</time>
      </trkpt>
      <trkpt lat="44.79212" lon="5.11538">
        <ele>522.73999023438</ele>
        <time>2009-06-24T14:56:41Z</time>
      </trkpt>
      <trkpt lat="44.79259" lon="5.11508">
        <ele>526.09002685547</ele>
        <time>2009-06-24T14:56:58Z</time>
      </trkpt>
      <trkpt lat="44.79323" lon="5.11484">
        <ele>530.15899658203</ele>
        <time>2009-06-24T14:57:18Z</time>
      </trkpt>
      <trkpt lat="44.79376" lon="5.11465">
        <ele>533.52899169922</ele>
        <time>2009-06-24T14:57:35Z</time>
      </trkpt>
      <trkpt lat="44.79434" lon="5.11444">
        <ele>537.69598388672</ele>
        <time>2009-06-24T14:57:53Z</time>
      </trkpt>
      <trkpt lat="44.79488" lon="5.11424">
        <ele>541.14001464844</ele>
        <time>2009-06-24T14:58:11Z</time>
      </trkpt>
      <trkpt lat="44.79543" lon="5.11408">
        <ele>545.30999755859</ele>
        <time>2009-06-24T14:58:29Z</time>
      </trkpt>
      <trkpt lat="44.79601" lon="5.11389">
        <ele>549.25799560547</ele>
        <time>2009-06-24T14:58:48Z</time>
      </trkpt>
      <trkpt lat="44.79654" lon="5.11362">
        <ele>552.90301513672</ele>
        <time>2009-06-24T14:59:06Z</time>
      </trkpt>
      <trkpt lat="44.79702" lon="5.11338">
        <ele>556.87902832031</ele>
        <time>2009-06-24T14:59:21Z</time>
      </trkpt>
      <trkpt lat="44.7976" lon="5.11316">
        <ele>560.38098144531</ele>
        <time>2009-06-24T14:59:37Z</time>
      </trkpt>
      <trkpt lat="44.79762" lon="5.11273">
        <ele>561.19799804688</ele>
        <time>2009-06-24T14:59:46Z</time>
      </trkpt>
      <trkpt lat="44.79731" lon="5.11197">
        <ele>566.31201171875</ele>
        <time>2009-06-24T15:00:05Z</time>
      </trkpt>
      <trkpt lat="44.79704" lon="5.11138">
        <ele>569.57501220703</ele>
        <time>2009-06-24T15:00:22Z</time>
      </trkpt>
      <trkpt lat="44.79672" lon="5.11081">
        <ele>573.78698730469</ele>
        <time>2009-06-24T15:00:39Z</time>
      </trkpt>
      <trkpt lat="44.79625" lon="5.11034">
        <ele>577.97900390625</ele>
        <time>2009-06-24T15:00:58Z</time>
      </trkpt>
      <trkpt lat="44.79575" lon="5.10987">
        <ele>583.11102294922</ele>
        <time>2009-06-24T15:01:17Z</time>
      </trkpt>
      <trkpt lat="44.79535" lon="5.10941">
        <ele>586.57299804688</ele>
        <time>2009-06-24T15:01:32Z</time>
      </trkpt>
      <trkpt lat="44.79494" lon="5.10906">
        <ele>589.72900390625</ele>
        <time>2009-06-24T15:01:46Z</time>
      </trkpt>
      <trkpt lat="44.79468" lon="5.10892">
        <ele>591.76300048828</ele>
        <time>2009-06-24T15:01:54Z</time>
      </trkpt>
      <trkpt lat="44.79469" lon="5.10877">
        <ele>592.39202880859</ele>
        <time>2009-06-24T15:02:01Z</time>
      </trkpt>
      <trkpt lat="44.7947" lon="5.10878">
        <ele>592.54699707031</ele>
        <time>2009-06-24T15:02:02Z</time>
      </trkpt>
      <trkpt lat="44.79514" lon="5.10905">
        <ele>593.71197509766</ele>
        <time>2009-06-24T15:02:15Z</time>
      </trkpt>
      <trkpt lat="44.79572" lon="5.10932">
        <ele>597.39501953125</ele>
        <time>2009-06-24T15:02:31Z</time>
      </trkpt>
      <trkpt lat="44.79575" lon="5.10933">
        <ele>597.6259765625</ele>
        <time>2009-06-24T15:02:32Z</time>
      </trkpt>
      <trkpt lat="44.79627" lon="5.10951">
        <ele>602.2490234375</ele>
        <time>2009-06-24T15:02:49Z</time>
      </trkpt>
      <trkpt lat="44.79659" lon="5.10962">
        <ele>604.77197265625</ele>
        <time>2009-06-24T15:03:03Z</time>
      </trkpt>
      <trkpt lat="44.79694" lon="5.10975">
        <ele>607.833984375</ele>
        <time>2009-06-24T15:03:18Z</time>
      </trkpt>
      <trkpt lat="44.79728" lon="5.10991">
        <ele>610.27099609375</ele>
        <time>2009-06-24T15:03:32Z</time>
      </trkpt>
      <trkpt lat="44.79772" lon="5.11005">
        <ele>614.0009765625</ele>
        <time>2009-06-24T15:03:49Z</time>
      </trkpt>
      <trkpt lat="44.79818" lon="5.11011">
        <ele>616.98400878906</ele>
        <time>2009-06-24T15:04:05Z</time>
      </trkpt>
      <trkpt lat="44.79862" lon="5.11014">
        <ele>619.51599121094</ele>
        <time>2009-06-24T15:04:18Z</time>
      </trkpt>
      <trkpt lat="44.79907" lon="5.11011">
        <ele>622.57598876953</ele>
        <time>2009-06-24T15:04:32Z</time>
      </trkpt>
      <trkpt lat="44.79949" lon="5.11002">
        <ele>625.88000488281</ele>
        <time>2009-06-24T15:04:46Z</time>
      </trkpt>
      <trkpt lat="44.7999" lon="5.10982">
        <ele>629.13598632812</ele>
        <time>2009-06-24T15:05:00Z</time>
      </trkpt>
      <trkpt lat="44.80024" lon="5.10974">
        <ele>632.08801269531</ele>
        <time>2009-06-24T15:05:12Z</time>
      </trkpt>
      <trkpt lat="44.80066" lon="5.10965">
        <ele>634.93798828125</ele>
        <time>2009-06-24T15:05:26Z</time>
      </trkpt>
      <trkpt lat="44.8011" lon="5.10954">
        <ele>638.27600097656</ele>
        <time>2009-06-24T15:05:42Z</time>
      </trkpt>
      <trkpt lat="44.80162" lon="5.10928">
        <ele>642.32800292969</ele>
        <time>2009-06-24T15:06:01Z</time>
      </trkpt>
      <trkpt lat="44.80201" lon="5.10916">
        <ele>645.89801025391</ele>
        <time>2009-06-24T15:06:16Z</time>
      </trkpt>
      <trkpt lat="44.80234" lon="5.10912">
        <ele>648.55603027344</ele>
        <time>2009-06-24T15:06:29Z</time>
      </trkpt>
      <trkpt lat="44.80265" lon="5.10906">
        <ele>650.89099121094</ele>
        <time>2009-06-24T15:06:40Z</time>
      </trkpt>
      <trkpt lat="44.803" lon="5.10904">
        <ele>654.14599609375</ele>
        <time>2009-06-24T15:06:53Z</time>
      </trkpt>
      <trkpt lat="44.80339" lon="5.109">
        <ele>658.04498291016</ele>
        <time>2009-06-24T15:07:08Z</time>
      </trkpt>
      <trkpt lat="44.80371" lon="5.10898">
        <ele>660.79498291016</ele>
        <time>2009-06-24T15:07:20Z</time>
      </trkpt>
      <trkpt lat="44.80407" lon="5.10895">
        <ele>664.45300292969</ele>
        <time>2009-06-24T15:07:34Z</time>
      </trkpt>
      <trkpt lat="44.80447" lon="5.10892">
        <ele>668.01702880859</ele>
        <time>2009-06-24T15:07:50Z</time>
      </trkpt>
      <trkpt lat="44.8048" lon="5.10893">
        <ele>671.13000488281</ele>
        <time>2009-06-24T15:08:03Z</time>
      </trkpt>
      <trkpt lat="44.80513" lon="5.10902">
        <ele>674.33801269531</ele>
        <time>2009-06-24T15:08:16Z</time>
      </trkpt>
      <trkpt lat="44.80552" lon="5.10923">
        <ele>678.66900634766</ele>
        <time>2009-06-24T15:08:33Z</time>
      </trkpt>
      <trkpt lat="44.80582" lon="5.10949">
        <ele>682.48199462891</ele>
        <time>2009-06-24T15:08:48Z</time>
      </trkpt>
      <trkpt lat="44.80606" lon="5.1097">
        <ele>685.75402832031</ele>
        <time>2009-06-24T15:09:02Z</time>
      </trkpt>
      <trkpt lat="44.80611" lon="5.10975">
        <ele>687.041015625</ele>
        <time>2009-06-24T15:09:05Z</time>
      </trkpt>
      <trkpt lat="44.80632" lon="5.10992">
        <ele>690.28002929688</ele>
        <time>2009-06-24T15:09:18Z</time>
      </trkpt>
      <trkpt lat="44.80657" lon="5.11004">
        <ele>693.85101318359</ele>
        <time>2009-06-24T15:09:32Z</time>
      </trkpt>
      <trkpt lat="44.80684" lon="5.11011">
        <ele>696.41802978516</ele>
        <time>2009-06-24T15:09:46Z</time>
      </trkpt>
      <trkpt lat="44.80718" lon="5.11014">
        <ele>696.75402832031</ele>
        <time>2009-06-24T15:09:59Z</time>
      </trkpt>
      <trkpt lat="44.8075" lon="5.11007">
        <ele>698.35498046875</ele>
        <time>2009-06-24T15:10:10Z</time>
      </trkpt>
      <trkpt lat="44.808" lon="5.10993">
        <ele>699.86999511719</ele>
        <time>2009-06-24T15:10:26Z</time>
      </trkpt>
      <trkpt lat="44.80861" lon="5.10998">
        <ele>703.61999511719</ele>
        <time>2009-06-24T15:10:47Z</time>
      </trkpt>
      <trkpt lat="44.80909" lon="5.11008">
        <ele>707.04901123047</ele>
        <time>2009-06-24T15:11:06Z</time>
      </trkpt>
      <trkpt lat="44.80952" lon="5.11026">
        <ele>710.86499023438</ele>
        <time>2009-06-24T15:11:24Z</time>
      </trkpt>
      <trkpt lat="44.80992" lon="5.11033">
        <ele>714.1259765625</ele>
        <time>2009-06-24T15:11:41Z</time>
      </trkpt>
      <trkpt lat="44.80985" lon="5.11006">
        <ele>716.02398681641</ele>
        <time>2009-06-24T15:11:52Z</time>
      </trkpt>
      <trkpt lat="44.80952" lon="5.10942">
        <ele>719.24401855469</ele>
        <time>2009-06-24T15:12:10Z</time>
      </trkpt>
      <trkpt lat="44.80914" lon="5.10889">
        <ele>723.25201416016</ele>
        <time>2009-06-24T15:12:28Z</time>
      </trkpt>
      <trkpt lat="44.8087" lon="5.10862">
        <ele>726.76300048828</ele>
        <time>2009-06-24T15:12:45Z</time>
      </trkpt>
      <trkpt lat="44.80809" lon="5.1085">
        <ele>731.12200927734</ele>
        <time>2009-06-24T15:13:05Z</time>
      </trkpt>
      <trkpt lat="44.80763" lon="5.1084">
        <ele>734.58898925781</ele>
        <time>2009-06-24T15:13:21Z</time>
      </trkpt>
      <trkpt lat="44.80721" lon="5.10835">
        <ele>737.06896972656</ele>
        <time>2009-06-24T15:13:35Z</time>
      </trkpt>
      <trkpt lat="44.80714" lon="5.10821">
        <ele>738.85699462891</ele>
        <time>2009-06-24T15:13:40Z</time>
      </trkpt>
      <trkpt lat="44.80722" lon="5.10818">
        <ele>738.75299072266</ele>
        <time>2009-06-24T15:13:43Z</time>
      </trkpt>
      <trkpt lat="44.80783" lon="5.10785">
        <ele>739.80297851562</ele>
        <time>2009-06-24T15:13:59Z</time>
      </trkpt>
      <trkpt lat="44.80844" lon="5.10712">
        <ele>741.25598144531</ele>
        <time>2009-06-24T15:14:15Z</time>
      </trkpt>
      <trkpt lat="44.80891" lon="5.1066">
        <ele>741.00701904297</ele>
        <time>2009-06-24T15:14:26Z</time>
      </trkpt>
      <trkpt lat="44.80917" lon="5.10644">
        <ele>740.79498291016</ele>
        <time>2009-06-24T15:14:31Z</time>
      </trkpt>
      <trkpt lat="44.8098" lon="5.10624">
        <ele>741.2919921875</ele>
        <time>2009-06-24T15:14:43Z</time>
      </trkpt>
      <trkpt lat="44.80995" lon="5.10624">
        <ele>741.67498779297</ele>
        <time>2009-06-24T15:14:46Z</time>
      </trkpt>
      <trkpt lat="44.81026" lon="5.10611">
        <ele>742.25500488281</ele>
        <time>2009-06-24T15:14:52Z</time>
      </trkpt>
      <trkpt lat="44.81051" lon="5.10598">
        <ele>742.60699462891</ele>
        <time>2009-06-24T15:14:57Z</time>
      </trkpt>
      <trkpt lat="44.81118" lon="5.10593">
        <ele>745.20098876953</ele>
        <time>2009-06-24T15:15:12Z</time>
      </trkpt>
      <trkpt lat="44.81178" lon="5.10589">
        <ele>747.94396972656</ele>
        <time>2009-06-24T15:15:27Z</time>
      </trkpt>
      <trkpt lat="44.81236" lon="5.10582">
        <ele>750.15301513672</ele>
        <time>2009-06-24T15:15:42Z</time>
      </trkpt>
      <trkpt lat="44.81273" lon="5.10555">
        <ele>751.01000976562</ele>
        <time>2009-06-24T15:15:54Z</time>
      </trkpt>
      <trkpt lat="44.81327" lon="5.10512">
        <ele>752.85302734375</ele>
        <time>2009-06-24T15:16:10Z</time>
      </trkpt>
      <trkpt lat="44.81384" lon="5.1046">
        <ele>755.53802490234</ele>
        <time>2009-06-24T15:16:28Z</time>
      </trkpt>
      <trkpt lat="44.81444" lon="5.10409">
        <ele>756.64801025391</ele>
        <time>2009-06-24T15:16:46Z</time>
      </trkpt>
      <trkpt lat="44.81473" lon="5.10434">
        <ele>758.91198730469</ele>
        <time>2009-06-24T15:16:56Z</time>
      </trkpt>
      <trkpt lat="44.81508" lon="5.10473">
        <ele>761.51397705078</ele>
        <time>2009-06-24T15:17:10Z</time>
      </trkpt>
      <trkpt lat="44.81555" lon="5.10512">
        <ele>765.67999267578</ele>
        <time>2009-06-24T15:17:30Z</time>
      </trkpt>
      <trkpt lat="44.81603" lon="5.10564">
        <ele>769.46301269531</ele>
        <time>2009-06-24T15:17:46Z</time>
      </trkpt>
      <trkpt lat="44.81646" lon="5.1061">
        <ele>773.01702880859</ele>
        <time>2009-06-24T15:18:02Z</time>
      </trkpt>
      <trkpt lat="44.81689" lon="5.10658">
        <ele>776.96801757812</ele>
        <time>2009-06-24T15:18:18Z</time>
      </trkpt>
      <trkpt lat="44.81727" lon="5.10722">
        <ele>780.38000488281</ele>
        <time>2009-06-24T15:18:36Z</time>
      </trkpt>
      <trkpt lat="44.81736" lon="5.10805">
        <ele>783.51501464844</ele>
        <time>2009-06-24T15:18:53Z</time>
      </trkpt>
      <trkpt lat="44.81776" lon="5.10822">
        <ele>785.94897460938</ele>
        <time>2009-06-24T15:19:07Z</time>
      </trkpt>
      <trkpt lat="44.8182" lon="5.10833">
        <ele>788.72698974609</ele>
        <time>2009-06-24T15:19:22Z</time>
      </trkpt>
      <trkpt lat="44.81854" lon="5.10838">
        <ele>791.20098876953</ele>
        <time>2009-06-24T15:19:35Z</time>
      </trkpt>
      <trkpt lat="44.81903" lon="5.10836">
        <ele>795.09301757812</ele>
        <time>2009-06-24T15:19:54Z</time>
      </trkpt>
      <trkpt lat="44.81949" lon="5.10837">
        <ele>798.96600341797</ele>
        <time>2009-06-24T15:20:12Z</time>
      </trkpt>
      <trkpt lat="44.81993" lon="5.10845">
        <ele>802.71600341797</ele>
        <time>2009-06-24T15:20:30Z</time>
      </trkpt>
      <trkpt lat="44.82026" lon="5.10851">
        <ele>805.17297363281</ele>
        <time>2009-06-24T15:20:44Z</time>
      </trkpt>
      <trkpt lat="44.82065" lon="5.10858">
        <ele>808.27001953125</ele>
        <time>2009-06-24T15:21:01Z</time>
      </trkpt>
      <trkpt lat="44.82096" lon="5.10855">
        <ele>811.05200195312</ele>
        <time>2009-06-24T15:21:15Z</time>
      </trkpt>
      <trkpt lat="44.82134" lon="5.10848">
        <ele>814.28601074219</ele>
        <time>2009-06-24T15:21:31Z</time>
      </trkpt>
      <trkpt lat="44.82175" lon="5.10852">
        <ele>817.44598388672</ele>
        <time>2009-06-24T15:21:48Z</time>
      </trkpt>
      <trkpt lat="44.82215" lon="5.10885">
        <ele>821.19097900391</ele>
        <time>2009-06-24T15:22:06Z</time>
      </trkpt>
      <trkpt lat="44.82244" lon="5.10917">
        <ele>823.77301025391</ele>
        <time>2009-06-24T15:22:19Z</time>
      </trkpt>
      <trkpt lat="44.82297" lon="5.10943">
        <ele>826.59301757812</ele>
        <time>2009-06-24T15:22:37Z</time>
      </trkpt>
      <trkpt lat="44.82355" lon="5.10927">
        <ele>828.35900878906</ele>
        <time>2009-06-24T15:22:53Z</time>
      </trkpt>
      <trkpt lat="44.82358" lon="5.10924">
        <ele>828.07897949219</ele>
        <time>2009-06-24T15:22:54Z</time>
      </trkpt>
      <trkpt lat="44.82412" lon="5.10845">
        <ele>828.98901367188</ele>
        <time>2009-06-24T15:23:10Z</time>
      </trkpt>
      <trkpt lat="44.82425" lon="5.10811">
        <ele>829.21002197266</ele>
        <time>2009-06-24T15:23:15Z</time>
      </trkpt>
      <trkpt lat="44.82473" lon="5.10736">
        <ele>829.04602050781</ele>
        <time>2009-06-24T15:23:28Z</time>
      </trkpt>
      <trkpt lat="44.82553" lon="5.10695">
        <ele>830.67199707031</ele>
        <time>2009-06-24T15:23:45Z</time>
      </trkpt>
      <trkpt lat="44.82558" lon="5.10693">
        <ele>830.64801025391</ele>
        <time>2009-06-24T15:23:46Z</time>
      </trkpt>
      <trkpt lat="44.82623" lon="5.10689">
        <ele>832.59399414062</ele>
        <time>2009-06-24T15:24:00Z</time>
      </trkpt>
      <trkpt lat="44.82635" lon="5.10692">
        <ele>833.51898193359</ele>
        <time>2009-06-24T15:24:03Z</time>
      </trkpt>
      <trkpt lat="44.82682" lon="5.10726">
        <ele>834.94299316406</ele>
        <time>2009-06-24T15:24:15Z</time>
      </trkpt>
      <trkpt lat="44.82711" lon="5.10771">
        <ele>835.65997314453</ele>
        <time>2009-06-24T15:24:27Z</time>
      </trkpt>
      <trkpt lat="44.82721" lon="5.10785">
        <ele>836.23498535156</ele>
        <time>2009-06-24T15:24:35Z</time>
      </trkpt>
      <trkpt lat="44.82722" lon="5.10788">
        <ele>836.39599609375</ele>
        <time>2009-06-24T15:25:00Z</time>
      </trkpt>
      <trkpt lat="44.82724" lon="5.1079">
        <ele>836.47601318359</ele>
        <time>2009-06-24T15:25:01Z</time>
      </trkpt>
      <trkpt lat="44.82729" lon="5.10798">
        <ele>836.65600585938</ele>
        <time>2009-06-24T15:25:04Z</time>
      </trkpt>
      <trkpt lat="44.82754" lon="5.10812">
        <ele>837.52600097656</ele>
        <time>2009-06-24T15:25:12Z</time>
      </trkpt>
      <trkpt lat="44.82761" lon="5.10807">
        <ele>837.34197998047</ele>
        <time>2009-06-24T15:25:14Z</time>
      </trkpt>
      <trkpt lat="44.82816" lon="5.10771">
        <ele>835.57598876953</ele>
        <time>2009-06-24T15:25:25Z</time>
      </trkpt>
      <trkpt lat="44.82846" lon="5.10743">
        <ele>834.16198730469</ele>
        <time>2009-06-24T15:25:30Z</time>
      </trkpt>
      <trkpt lat="44.82861" lon="5.10716">
        <ele>833.44299316406</ele>
        <time>2009-06-24T15:25:33Z</time>
      </trkpt>
      <trkpt lat="44.82913" lon="5.10669">
        <ele>832.83001708984</ele>
        <time>2009-06-24T15:25:41Z</time>
      </trkpt>
      <trkpt lat="44.82927" lon="5.10668">
        <ele>833.02801513672</ele>
        <time>2009-06-24T15:25:43Z</time>
      </trkpt>
      <trkpt lat="44.83001" lon="5.10697">
        <ele>834.97100830078</ele>
        <time>2009-06-24T15:25:58Z</time>
      </trkpt>
      <trkpt lat="44.83035" lon="5.10723">
        <ele>835.82098388672</ele>
        <time>2009-06-24T15:26:03Z</time>
      </trkpt>
      <trkpt lat="44.83055" lon="5.10739">
        <ele>836.47900390625</ele>
        <time>2009-06-24T15:26:07Z</time>
      </trkpt>
      <trkpt lat="44.83088" lon="5.10762">
        <ele>837.34698486328</ele>
        <time>2009-06-24T15:26:14Z</time>
      </trkpt>
      <trkpt lat="44.83171" lon="5.108">
        <ele>838.52801513672</ele>
        <time>2009-06-24T15:26:31Z</time>
      </trkpt>
      <trkpt lat="44.83264" lon="5.108">
        <ele>837.48101806641</ele>
        <time>2009-06-24T15:26:45Z</time>
      </trkpt>
      <trkpt lat="44.83384" lon="5.10804">
        <ele>836.55603027344</ele>
        <time>2009-06-24T15:27:02Z</time>
      </trkpt>
      <trkpt lat="44.83474" lon="5.1075">
        <ele>836.01599121094</ele>
        <time>2009-06-24T15:27:16Z</time>
      </trkpt>
      <trkpt lat="44.83524" lon="5.10679">
        <ele>835.54400634766</ele>
        <time>2009-06-24T15:27:26Z</time>
      </trkpt>
      <trkpt lat="44.83587" lon="5.10639">
        <ele>834.54498291016</ele>
        <time>2009-06-24T15:27:36Z</time>
      </trkpt>
      <trkpt lat="44.83592" lon="5.10637">
        <ele>834.77099609375</ele>
        <time>2009-06-24T15:27:37Z</time>
      </trkpt>
      <trkpt lat="44.83633" lon="5.10693">
        <ele>837.51000976562</ele>
        <time>2009-06-24T15:27:44Z</time>
      </trkpt>
      <trkpt lat="44.83684" lon="5.10743">
        <ele>840.34399414062</ele>
        <time>2009-06-24T15:27:54Z</time>
      </trkpt>
      <trkpt lat="44.83728" lon="5.10786">
        <ele>841.82501220703</ele>
        <time>2009-06-24T15:28:03Z</time>
      </trkpt>
      <trkpt lat="44.83783" lon="5.1084">
        <ele>841.89300537109</ele>
        <time>2009-06-24T15:28:13Z</time>
      </trkpt>
      <trkpt lat="44.83849" lon="5.10923">
        <ele>843.8740234375</ele>
        <time>2009-06-24T15:28:26Z</time>
      </trkpt>
      <trkpt lat="44.83917" lon="5.11017">
        <ele>844.72302246094</ele>
        <time>2009-06-24T15:28:41Z</time>
      </trkpt>
      <trkpt lat="44.83929" lon="5.11047">
        <ele>844.23901367188</ele>
        <time>2009-06-24T15:28:45Z</time>
      </trkpt>
      <trkpt lat="44.83931" lon="5.11078">
        <ele>842.11602783203</ele>
        <time>2009-06-24T15:28:48Z</time>
      </trkpt>
      <trkpt lat="44.83933" lon="5.11102">
        <ele>841.19897460938</ele>
        <time>2009-06-24T15:28:50Z</time>
      </trkpt>
      <trkpt lat="44.8394" lon="5.11127">
        <ele>840.29901123047</ele>
        <time>2009-06-24T15:28:52Z</time>
      </trkpt>
      <trkpt lat="44.83998" lon="5.11226">
        <ele>839.96002197266</ele>
        <time>2009-06-24T15:29:03Z</time>
      </trkpt>
      <trkpt lat="44.84052" lon="5.1126">
        <ele>840.55297851562</ele>
        <time>2009-06-24T15:29:12Z</time>
      </trkpt>
      <trkpt lat="44.84094" lon="5.11286">
        <ele>841.17199707031</ele>
        <time>2009-06-24T15:29:20Z</time>
      </trkpt>
      <trkpt lat="44.8416" lon="5.1134">
        <ele>843.19097900391</ele>
        <time>2009-06-24T15:29:35Z</time>
      </trkpt>
      <trkpt lat="44.84173" lon="5.11358">
        <ele>844.97497558594</ele>
        <time>2009-06-24T15:29:41Z</time>
      </trkpt>
      <trkpt lat="44.84224" lon="5.11448">
        <ele>847.26702880859</ele>
        <time>2009-06-24T15:29:59Z</time>
      </trkpt>
      <trkpt lat="44.84239" lon="5.1147">
        <ele>848.63702392578</ele>
        <time>2009-06-24T15:30:04Z</time>
      </trkpt>
      <trkpt lat="44.84271" lon="5.11511">
        <ele>851.7490234375</ele>
        <time>2009-06-24T15:30:19Z</time>
      </trkpt>
      <trkpt lat="44.84309" lon="5.11548">
        <ele>854.84497070312</ele>
        <time>2009-06-24T15:30:35Z</time>
      </trkpt>
      <trkpt lat="44.84341" lon="5.11578">
        <ele>857.2509765625</ele>
        <time>2009-06-24T15:30:47Z</time>
      </trkpt>
      <trkpt lat="44.84369" lon="5.1162">
        <ele>861.13299560547</ele>
        <time>2009-06-24T15:31:03Z</time>
      </trkpt>
      <trkpt lat="44.84392" lon="5.11678">
        <ele>865.19299316406</ele>
        <time>2009-06-24T15:31:22Z</time>
      </trkpt>
      <trkpt lat="44.84414" lon="5.11746">
        <ele>870.23101806641</ele>
        <time>2009-06-24T15:31:43Z</time>
      </trkpt>
      <trkpt lat="44.84433" lon="5.11798">
        <ele>873.87097167969</ele>
        <time>2009-06-24T15:31:57Z</time>
      </trkpt>
      <trkpt lat="44.84461" lon="5.11859">
        <ele>878.63702392578</ele>
        <time>2009-06-24T15:32:17Z</time>
      </trkpt>
      <trkpt lat="44.8448" lon="5.11899">
        <ele>881.86999511719</ele>
        <time>2009-06-24T15:32:32Z</time>
      </trkpt>
      <trkpt lat="44.84498" lon="5.11938">
        <ele>884.62298583984</ele>
        <time>2009-06-24T15:32:45Z</time>
      </trkpt>
      <trkpt lat="44.84525" lon="5.11988">
        <ele>888.02301025391</ele>
        <time>2009-06-24T15:33:01Z</time>
      </trkpt>
      <trkpt lat="44.84553" lon="5.12036">
        <ele>890.26501464844</ele>
        <time>2009-06-24T15:33:16Z</time>
      </trkpt>
      <trkpt lat="44.84555" lon="5.1204">
        <ele>889.88000488281</ele>
        <time>2009-06-24T15:33:17Z</time>
      </trkpt>
      <trkpt lat="44.84576" lon="5.1208">
        <ele>888.72497558594</ele>
        <time>2009-06-24T15:33:25Z</time>
      </trkpt>
      <trkpt lat="44.84592" lon="5.12131">
        <ele>888.87298583984</ele>
        <time>2009-06-24T15:33:34Z</time>
      </trkpt>
      <trkpt lat="44.84595" lon="5.12148">
        <ele>888.93103027344</ele>
        <time>2009-06-24T15:33:39Z</time>
      </trkpt>
      <trkpt lat="44.84595" lon="5.12148">
        <ele>888.91497802734</ele>
        <time>2009-06-24T15:33:40Z</time>
      </trkpt>
      <trkpt lat="44.84597" lon="5.12169">
        <ele>889.84197998047</ele>
        <time>2009-06-24T15:34:10Z</time>
      </trkpt>
      <trkpt lat="44.846" lon="5.1222">
        <ele>890.66400146484</ele>
        <time>2009-06-24T15:34:22Z</time>
      </trkpt>
      <trkpt lat="44.84601" lon="5.12225">
        <ele>890.80401611328</ele>
        <time>2009-06-24T15:34:23Z</time>
      </trkpt>
      <trkpt lat="44.84615" lon="5.12246">
        <ele>889.81402587891</ele>
        <time>2009-06-24T15:34:28Z</time>
      </trkpt>
      <trkpt lat="44.8471" lon="5.12303">
        <ele>888.08197021484</ele>
        <time>2009-06-24T15:34:46Z</time>
      </trkpt>
      <trkpt lat="44.84789" lon="5.12359">
        <ele>886.69000244141</ele>
        <time>2009-06-24T15:34:59Z</time>
      </trkpt>
      <trkpt lat="44.84835" lon="5.12399">
        <ele>887.38000488281</ele>
        <time>2009-06-24T15:35:07Z</time>
      </trkpt>
      <trkpt lat="44.84857" lon="5.12428">
        <ele>888.96099853516</ele>
        <time>2009-06-24T15:35:12Z</time>
      </trkpt>
      <trkpt lat="44.84904" lon="5.12514">
        <ele>891.12097167969</ele>
        <time>2009-06-24T15:35:28Z</time>
      </trkpt>
      <trkpt lat="44.84966" lon="5.12612">
        <ele>892.77502441406</ele>
        <time>2009-06-24T15:35:46Z</time>
      </trkpt>
      <trkpt lat="44.8497" lon="5.12616">
        <ele>892.93499755859</ele>
        <time>2009-06-24T15:35:47Z</time>
      </trkpt>
      <trkpt lat="44.85023" lon="5.12658">
        <ele>892.8759765625</ele>
        <time>2009-06-24T15:35:59Z</time>
      </trkpt>
      <trkpt lat="44.85049" lon="5.1266">
        <ele>892.46002197266</ele>
        <time>2009-06-24T15:36:03Z</time>
      </trkpt>
      <trkpt lat="44.85166" lon="5.12604">
        <ele>885.01800537109</ele>
        <time>2009-06-24T15:36:19Z</time>
      </trkpt>
      <trkpt lat="44.85184" lon="5.12595">
        <ele>883.833984375</ele>
        <time>2009-06-24T15:36:21Z</time>
      </trkpt>
      <trkpt lat="44.85202" lon="5.12591">
        <ele>882.64801025391</ele>
        <time>2009-06-24T15:36:23Z</time>
      </trkpt>
      <trkpt lat="44.85281" lon="5.12605">
        <ele>877.64398193359</ele>
        <time>2009-06-24T15:36:31Z</time>
      </trkpt>
      <trkpt lat="44.85302" lon="5.12609">
        <ele>876.74298095703</ele>
        <time>2009-06-24T15:36:33Z</time>
      </trkpt>
      <trkpt lat="44.85363" lon="5.12622">
        <ele>875.07202148438</ele>
        <time>2009-06-24T15:36:39Z</time>
      </trkpt>
      <trkpt lat="44.8545" lon="5.12652">
        <ele>868.96197509766</ele>
        <time>2009-06-24T15:36:48Z</time>
      </trkpt>
      <trkpt lat="44.85456" lon="5.12654">
        <ele>866.52801513672</ele>
        <time>2009-06-24T15:36:50Z</time>
      </trkpt>
      <trkpt lat="44.85456" lon="5.12654">
        <ele>866.32000732422</ele>
        <time>2009-06-24T15:36:51Z</time>
      </trkpt>
      <trkpt lat="44.8563" lon="5.12684">
        <ele>863.42498779297</ele>
        <time>2009-06-24T15:37:05Z</time>
      </trkpt>
      <trkpt lat="44.8571" lon="5.12706">
        <ele>862.33502197266</ele>
        <time>2009-06-24T15:37:14Z</time>
      </trkpt>
      <trkpt lat="44.85756" lon="5.12721">
        <ele>862.33099365234</ele>
        <time>2009-06-24T15:37:20Z</time>
      </trkpt>
      <trkpt lat="44.85782" lon="5.12721">
        <ele>863.85601806641</ele>
        <time>2009-06-24T15:37:24Z</time>
      </trkpt>
      <trkpt lat="44.85805" lon="5.12719">
        <ele>865.93798828125</ele>
        <time>2009-06-24T15:37:28Z</time>
      </trkpt>
      <trkpt lat="44.85831" lon="5.12722">
        <ele>868.60900878906</ele>
        <time>2009-06-24T15:37:34Z</time>
      </trkpt>
      <trkpt lat="44.85841" lon="5.12726">
        <ele>869.20599365234</ele>
        <time>2009-06-24T15:37:37Z</time>
      </trkpt>
      <trkpt lat="44.85869" lon="5.12741">
        <ele>870.96099853516</ele>
        <time>2009-06-24T15:37:45Z</time>
      </trkpt>
      <trkpt lat="44.8592" lon="5.12767">
        <ele>871.17102050781</ele>
        <time>2009-06-24T15:37:58Z</time>
      </trkpt>
      <trkpt lat="44.86005" lon="5.12798">
        <ele>867.94396972656</ele>
        <time>2009-06-24T15:38:12Z</time>
      </trkpt>
      <trkpt lat="44.86067" lon="5.12817">
        <ele>863.70599365234</ele>
        <time>2009-06-24T15:38:20Z</time>
      </trkpt>
      <trkpt lat="44.86115" lon="5.12826">
        <ele>859.11999511719</ele>
        <time>2009-06-24T15:38:25Z</time>
      </trkpt>
      <trkpt lat="44.86134" lon="5.1283">
        <ele>858.15899658203</ele>
        <time>2009-06-24T15:38:27Z</time>
      </trkpt>
      <trkpt lat="44.86134" lon="5.1283">
        <ele>858.4169921875</ele>
        <time>2009-06-24T15:38:29Z</time>
      </trkpt>
      <trkpt lat="44.86224" lon="5.12843">
        <ele>861.46002197266</ele>
        <time>2009-06-24T15:38:40Z</time>
      </trkpt>
      <trkpt lat="44.86303" lon="5.1288">
        <ele>862.20697021484</ele>
        <time>2009-06-24T15:38:53Z</time>
      </trkpt>
      <trkpt lat="44.86337" lon="5.12905">
        <ele>861.82598876953</ele>
        <time>2009-06-24T15:38:59Z</time>
      </trkpt>
      <trkpt lat="44.86378" lon="5.12937">
        <ele>861.71600341797</ele>
        <time>2009-06-24T15:39:06Z</time>
      </trkpt>
      <trkpt lat="44.86414" lon="5.12976">
        <ele>857.84899902344</ele>
        <time>2009-06-24T15:39:12Z</time>
      </trkpt>
      <trkpt lat="44.86487" lon="5.13061">
        <ele>857.76202392578</ele>
        <time>2009-06-24T15:39:23Z</time>
      </trkpt>
      <trkpt lat="44.86546" lon="5.13118">
        <ele>860.83001708984</ele>
        <time>2009-06-24T15:39:34Z</time>
      </trkpt>
      <trkpt lat="44.86571" lon="5.13152">
        <ele>862.96002197266</ele>
        <time>2009-06-24T15:39:42Z</time>
      </trkpt>
      <trkpt lat="44.86598" lon="5.13189">
        <ele>864.84698486328</ele>
        <time>2009-06-24T15:39:52Z</time>
      </trkpt>
      <trkpt lat="44.86656" lon="5.13238">
        <ele>866.90997314453</ele>
        <time>2009-06-24T15:40:07Z</time>
      </trkpt>
      <trkpt lat="44.86734" lon="5.13302">
        <ele>868.93701171875</ele>
        <time>2009-06-24T15:40:27Z</time>
      </trkpt>
      <trkpt lat="44.86771" lon="5.13357">
        <ele>872.6259765625</ele>
        <time>2009-06-24T15:40:41Z</time>
      </trkpt>
      <trkpt lat="44.86812" lon="5.13427">
        <ele>876.78302001953</ele>
        <time>2009-06-24T15:41:00Z</time>
      </trkpt>
      <trkpt lat="44.8684" lon="5.13469">
        <ele>879.51702880859</ele>
        <time>2009-06-24T15:41:14Z</time>
      </trkpt>
      <trkpt lat="44.8687" lon="5.13498">
        <ele>882.90399169922</ele>
        <time>2009-06-24T15:41:27Z</time>
      </trkpt>
      <trkpt lat="44.86899" lon="5.13517">
        <ele>886.9580078125</ele>
        <time>2009-06-24T15:41:41Z</time>
      </trkpt>
      <trkpt lat="44.86933" lon="5.13535">
        <ele>891.53802490234</ele>
        <time>2009-06-24T15:41:57Z</time>
      </trkpt>
      <trkpt lat="44.86959" lon="5.13549">
        <ele>896.38702392578</ele>
        <time>2009-06-24T15:42:12Z</time>
      </trkpt>
      <trkpt lat="44.86996" lon="5.13568">
        <ele>902.86199951172</ele>
        <time>2009-06-24T15:42:32Z</time>
      </trkpt>
      <trkpt lat="44.87025" lon="5.13583">
        <ele>907.24200439453</ele>
        <time>2009-06-24T15:42:47Z</time>
      </trkpt>
      <trkpt lat="44.87055" lon="5.13599">
        <ele>909.67999267578</ele>
        <time>2009-06-24T15:42:56Z</time>
      </trkpt>
      <trkpt lat="44.87097" lon="5.13643">
        <ele>911.52697753906</ele>
        <time>2009-06-24T15:43:11Z</time>
      </trkpt>
      <trkpt lat="44.87128" lon="5.13704">
        <ele>915.3330078125</ele>
        <time>2009-06-24T15:43:28Z</time>
      </trkpt>
      <trkpt lat="44.87149" lon="5.13744">
        <ele>918.60400390625</ele>
        <time>2009-06-24T15:43:41Z</time>
      </trkpt>
      <trkpt lat="44.87175" lon="5.13792">
        <ele>921.77398681641</ele>
        <time>2009-06-24T15:43:56Z</time>
      </trkpt>
      <trkpt lat="44.87207" lon="5.13841">
        <ele>925.16802978516</ele>
        <time>2009-06-24T15:44:12Z</time>
      </trkpt>
      <trkpt lat="44.87251" lon="5.1386">
        <ele>928.34301757812</ele>
        <time>2009-06-24T15:44:26Z</time>
      </trkpt>
      <trkpt lat="44.87284" lon="5.13861">
        <ele>932.875</ele>
        <time>2009-06-24T15:44:42Z</time>
      </trkpt>
      <trkpt lat="44.87312" lon="5.1387">
        <ele>937.11102294922</ele>
        <time>2009-06-24T15:44:57Z</time>
      </trkpt>
      <trkpt lat="44.87337" lon="5.13884">
        <ele>939.50299072266</ele>
        <time>2009-06-24T15:45:09Z</time>
      </trkpt>
      <trkpt lat="44.87381" lon="5.13929">
        <ele>942.87097167969</ele>
        <time>2009-06-24T15:45:30Z</time>
      </trkpt>
      <trkpt lat="44.87411" lon="5.13976">
        <ele>947.39398193359</ele>
        <time>2009-06-24T15:45:49Z</time>
      </trkpt>
      <trkpt lat="44.87442" lon="5.13994">
        <ele>950.39300537109</ele>
        <time>2009-06-24T15:46:04Z</time>
      </trkpt>
      <trkpt lat="44.87484" lon="5.14009">
        <ele>954.59600830078</ele>
        <time>2009-06-24T15:46:21Z</time>
      </trkpt>
      <trkpt lat="44.87514" lon="5.14016">
        <ele>958.78399658203</ele>
        <time>2009-06-24T15:46:37Z</time>
      </trkpt>
      <trkpt lat="44.87538" lon="5.14019">
        <ele>962.00402832031</ele>
        <time>2009-06-24T15:46:51Z</time>
      </trkpt>
      <trkpt lat="44.8754" lon="5.14019">
        <ele>962.71600341797</ele>
        <time>2009-06-24T15:46:54Z</time>
      </trkpt>
      <trkpt lat="44.87546" lon="5.14019">
        <ele>963.6259765625</ele>
        <time>2009-06-24T15:46:58Z</time>
      </trkpt>
      <trkpt lat="44.87549" lon="5.1402">
        <ele>964.09399414062</ele>
        <time>2009-06-24T15:47:00Z</time>
      </trkpt>
      <trkpt lat="44.87575" lon="5.14023">
        <ele>967.66900634766</ele>
        <time>2009-06-24T15:47:13Z</time>
      </trkpt>
      <trkpt lat="44.87606" lon="5.14049">
        <ele>970.87701416016</ele>
        <time>2009-06-24T15:47:28Z</time>
      </trkpt>
      <trkpt lat="44.87617" lon="5.14096">
        <ele>974.34899902344</ele>
        <time>2009-06-24T15:47:42Z</time>
      </trkpt>
      <trkpt lat="44.87616" lon="5.14136">
        <ele>978.2509765625</ele>
        <time>2009-06-24T15:47:56Z</time>
      </trkpt>
      <trkpt lat="44.87611" lon="5.14182">
        <ele>982.52801513672</ele>
        <time>2009-06-24T15:48:12Z</time>
      </trkpt>
      <trkpt lat="44.87615" lon="5.14254">
        <ele>985.18103027344</ele>
        <time>2009-06-24T15:48:30Z</time>
      </trkpt>
      <trkpt lat="44.87639" lon="5.14314">
        <ele>989.12902832031</ele>
        <time>2009-06-24T15:48:46Z</time>
      </trkpt>
      <trkpt lat="44.8766" lon="5.14345">
        <ele>988.92102050781</ele>
        <time>2009-06-24T15:48:55Z</time>
      </trkpt>
      <trkpt lat="44.87675" lon="5.14362">
        <ele>988.16400146484</ele>
        <time>2009-06-24T15:48:59Z</time>
      </trkpt>
      <trkpt lat="44.87691" lon="5.14369">
        <ele>986.92700195312</ele>
        <time>2009-06-24T15:49:02Z</time>
      </trkpt>
      <trkpt lat="44.87717" lon="5.14374">
        <ele>985.2080078125</ele>
        <time>2009-06-24T15:49:06Z</time>
      </trkpt>
      <trkpt lat="44.87748" lon="5.14386">
        <ele>983.00799560547</ele>
        <time>2009-06-24T15:49:10Z</time>
      </trkpt>
      <trkpt lat="44.8783" lon="5.1441">
        <ele>974.66101074219</ele>
        <time>2009-06-24T15:49:19Z</time>
      </trkpt>
      <trkpt lat="44.8786" lon="5.14422">
        <ele>973.43298339844</ele>
        <time>2009-06-24T15:49:22Z</time>
      </trkpt>
      <trkpt lat="44.87889" lon="5.14435">
        <ele>971.87200927734</ele>
        <time>2009-06-24T15:49:25Z</time>
      </trkpt>
      <trkpt lat="44.87921" lon="5.14439">
        <ele>970.43402099609</ele>
        <time>2009-06-24T15:49:28Z</time>
      </trkpt>
      <trkpt lat="44.87941" lon="5.14431">
        <ele>969.08898925781</ele>
        <time>2009-06-24T15:49:30Z</time>
      </trkpt>
      <trkpt lat="44.8796" lon="5.14415">
        <ele>967.70098876953</ele>
        <time>2009-06-24T15:49:32Z</time>
      </trkpt>
      <trkpt lat="44.87975" lon="5.14398">
        <ele>967.29302978516</ele>
        <time>2009-06-24T15:49:34Z</time>
      </trkpt>
      <trkpt lat="44.8799" lon="5.14373">
        <ele>967.88598632812</ele>
        <time>2009-06-24T15:49:36Z</time>
      </trkpt>
      <trkpt lat="44.88036" lon="5.14347">
        <ele>968.60400390625</ele>
        <time>2009-06-24T15:49:42Z</time>
      </trkpt>
      <trkpt lat="44.88051" lon="5.14352">
        <ele>968.50299072266</ele>
        <time>2009-06-24T15:49:44Z</time>
      </trkpt>
      <trkpt lat="44.88098" lon="5.14388">
        <ele>970.74102783203</ele>
        <time>2009-06-24T15:49:52Z</time>
      </trkpt>
      <trkpt lat="44.88113" lon="5.144">
        <ele>972.07702636719</ele>
        <time>2009-06-24T15:49:56Z</time>
      </trkpt>
      <trkpt lat="44.88135" lon="5.14397">
        <ele>975.27899169922</ele>
        <time>2009-06-24T15:50:04Z</time>
      </trkpt>
      <trkpt lat="44.88139" lon="5.14395">
        <ele>975.79302978516</ele>
        <time>2009-06-24T15:50:06Z</time>
      </trkpt>
      <trkpt lat="44.88146" lon="5.14377">
        <ele>977.67498779297</ele>
        <time>2009-06-24T15:50:12Z</time>
      </trkpt>
      <trkpt lat="44.8815" lon="5.14353">
        <ele>979.03997802734</ele>
        <time>2009-06-24T15:50:19Z</time>
      </trkpt>
      <trkpt lat="44.88139" lon="5.14332">
        <ele>979.98199462891</ele>
        <time>2009-06-24T15:50:24Z</time>
      </trkpt>
      <trkpt lat="44.88122" lon="5.14304">
        <ele>981.62298583984</ele>
        <time>2009-06-24T15:50:32Z</time>
      </trkpt>
      <trkpt lat="44.88115" lon="5.14285">
        <ele>983.85400390625</ele>
        <time>2009-06-24T15:50:37Z</time>
      </trkpt>
      <trkpt lat="44.88116" lon="5.14247">
        <ele>986.84497070312</ele>
        <time>2009-06-24T15:50:47Z</time>
      </trkpt>
      <trkpt lat="44.88148" lon="5.14214">
        <ele>989.81799316406</ele>
        <time>2009-06-24T15:50:59Z</time>
      </trkpt>
      <trkpt lat="44.8821" lon="5.14202">
        <ele>989.27899169922</ele>
        <time>2009-06-24T15:51:12Z</time>
      </trkpt>
      <trkpt lat="44.88242" lon="5.14201">
        <ele>988.27099609375</ele>
        <time>2009-06-24T15:51:17Z</time>
      </trkpt>
      <trkpt lat="44.883" lon="5.14233">
        <ele>986.59600830078</ele>
        <time>2009-06-24T15:51:26Z</time>
      </trkpt>
      <trkpt lat="44.88359" lon="5.14259">
        <ele>982.01702880859</ele>
        <time>2009-06-24T15:51:33Z</time>
      </trkpt>
      <trkpt lat="44.88391" lon="5.14271">
        <ele>977.23101806641</ele>
        <time>2009-06-24T15:51:36Z</time>
      </trkpt>
      <trkpt lat="44.88435" lon="5.14282">
        <ele>975.33502197266</ele>
        <time>2009-06-24T15:51:40Z</time>
      </trkpt>
      <trkpt lat="44.885" lon="5.14248">
        <ele>980.88800048828</ele>
        <time>2009-06-24T15:51:47Z</time>
      </trkpt>
      <trkpt lat="44.88528" lon="5.14239">
        <ele>983.68298339844</ele>
        <time>2009-06-24T15:51:52Z</time>
      </trkpt>
      <trkpt lat="44.88548" lon="5.14233">
        <ele>984.57800292969</ele>
        <time>2009-06-24T15:51:56Z</time>
      </trkpt>
      <trkpt lat="44.88563" lon="5.14229">
        <ele>985.56298828125</ele>
        <time>2009-06-24T15:52:00Z</time>
      </trkpt>
      <trkpt lat="44.88587" lon="5.14237">
        <ele>987.23400878906</ele>
        <time>2009-06-24T15:52:05Z</time>
      </trkpt>
      <trkpt lat="44.88632" lon="5.14254">
        <ele>991.98901367188</ele>
        <time>2009-06-24T15:52:21Z</time>
      </trkpt>
      <trkpt lat="44.8867" lon="5.14288">
        <ele>996.14501953125</ele>
        <time>2009-06-24T15:52:40Z</time>
      </trkpt>
      <trkpt lat="44.88701" lon="5.14323">
        <ele>998.64300537109</ele>
        <time>2009-06-24T15:52:55Z</time>
      </trkpt>
      <trkpt lat="44.8873" lon="5.14316">
        <ele>996.39697265625</ele>
        <time>2009-06-24T15:53:02Z</time>
      </trkpt>
      <trkpt lat="44.88757" lon="5.1432">
        <ele>994.02301025391</ele>
        <time>2009-06-24T15:53:06Z</time>
      </trkpt>
      <trkpt lat="44.88789" lon="5.14325">
        <ele>992.01300048828</ele>
        <time>2009-06-24T15:53:10Z</time>
      </trkpt>
      <trkpt lat="44.88826" lon="5.1432">
        <ele>989.48602294922</ele>
        <time>2009-06-24T15:53:14Z</time>
      </trkpt>
      <trkpt lat="44.88872" lon="5.14282">
        <ele>986.35998535156</ele>
        <time>2009-06-24T15:53:19Z</time>
      </trkpt>
      <trkpt lat="44.8891" lon="5.14246">
        <ele>982.99102783203</ele>
        <time>2009-06-24T15:53:23Z</time>
      </trkpt>
      <trkpt lat="44.88919" lon="5.14236">
        <ele>982.5</ele>
        <time>2009-06-24T15:53:24Z</time>
      </trkpt>
      <trkpt lat="44.88932" lon="5.14175">
        <ele>979.61602783203</ele>
        <time>2009-06-24T15:53:29Z</time>
      </trkpt>
      <trkpt lat="44.88912" lon="5.14078">
        <ele>972.86297607422</ele>
        <time>2009-06-24T15:53:35Z</time>
      </trkpt>
      <trkpt lat="44.88913" lon="5.14023">
        <ele>969.24798583984</ele>
        <time>2009-06-24T15:53:38Z</time>
      </trkpt>
      <trkpt lat="44.88893" lon="5.13977">
        <ele>966.0009765625</ele>
        <time>2009-06-24T15:53:41Z</time>
      </trkpt>
      <trkpt lat="44.88838" lon="5.139">
        <ele>960.66497802734</ele>
        <time>2009-06-24T15:53:47Z</time>
      </trkpt>
      <trkpt lat="44.88809" lon="5.1386">
        <ele>958.30798339844</ele>
        <time>2009-06-24T15:53:50Z</time>
      </trkpt>
      <trkpt lat="44.88788" lon="5.13836">
        <ele>957.37298583984</ele>
        <time>2009-06-24T15:53:52Z</time>
      </trkpt>
      <trkpt lat="44.88762" lon="5.13822">
        <ele>957.35302734375</ele>
        <time>2009-06-24T15:53:54Z</time>
      </trkpt>
      <trkpt lat="44.8866" lon="5.13802">
        <ele>947.40100097656</ele>
        <time>2009-06-24T15:54:01Z</time>
      </trkpt>
      <trkpt lat="44.88639" lon="5.13777">
        <ele>944.83197021484</ele>
        <time>2009-06-24T15:54:06Z</time>
      </trkpt>
      <trkpt lat="44.88646" lon="5.13774">
        <ele>944.18402099609</ele>
        <time>2009-06-24T15:54:07Z</time>
      </trkpt>
      <trkpt lat="44.8867" lon="5.13763">
        <ele>942.91198730469</ele>
        <time>2009-06-24T15:54:10Z</time>
      </trkpt>
      <trkpt lat="44.88687" lon="5.13754">
        <ele>942.90802001953</ele>
        <time>2009-06-24T15:54:12Z</time>
      </trkpt>
      <trkpt lat="44.88718" lon="5.13725">
        <ele>942.91101074219</ele>
        <time>2009-06-24T15:54:16Z</time>
      </trkpt>
      <trkpt lat="44.88756" lon="5.13675">
        <ele>935.06701660156</ele>
        <time>2009-06-24T15:54:22Z</time>
      </trkpt>
      <trkpt lat="44.88801" lon="5.13616">
        <ele>931.06896972656</ele>
        <time>2009-06-24T15:54:26Z</time>
      </trkpt>
      <trkpt lat="44.88821" lon="5.13589">
        <ele>927.56402587891</ele>
        <time>2009-06-24T15:54:29Z</time>
      </trkpt>
      <trkpt lat="44.88872" lon="5.13517">
        <ele>925.24700927734</ele>
        <time>2009-06-24T15:54:34Z</time>
      </trkpt>
      <trkpt lat="44.88906" lon="5.13468">
        <ele>923.79797363281</ele>
        <time>2009-06-24T15:54:38Z</time>
      </trkpt>
      <trkpt lat="44.88947" lon="5.1342">
        <ele>918.50201416016</ele>
        <time>2009-06-24T15:54:42Z</time>
      </trkpt>
      <trkpt lat="44.88984" lon="5.13345">
        <ele>912.34600830078</ele>
        <time>2009-06-24T15:54:48Z</time>
      </trkpt>
      <trkpt lat="44.88975" lon="5.13332">
        <ele>910.88500976562</ele>
        <time>2009-06-24T15:54:49Z</time>
      </trkpt>
      <trkpt lat="44.88958" lon="5.13305">
        <ele>908.27899169922</ele>
        <time>2009-06-24T15:54:51Z</time>
      </trkpt>
      <trkpt lat="44.88945" lon="5.13222">
        <ele>903.77899169922</ele>
        <time>2009-06-24T15:54:56Z</time>
      </trkpt>
      <trkpt lat="44.8892" lon="5.13139">
        <ele>899.54699707031</ele>
        <time>2009-06-24T15:55:01Z</time>
      </trkpt>
      <trkpt lat="44.88909" lon="5.13129">
        <ele>899.29302978516</ele>
        <time>2009-06-24T15:55:02Z</time>
      </trkpt>
      <trkpt lat="44.88885" lon="5.13109">
        <ele>896.69201660156</ele>
        <time>2009-06-24T15:55:04Z</time>
      </trkpt>
      <trkpt lat="44.88848" lon="5.13093">
        <ele>894.72198486328</ele>
        <time>2009-06-24T15:55:07Z</time>
      </trkpt>
      <trkpt lat="44.88842" lon="5.13071">
        <ele>891.92199707031</ele>
        <time>2009-06-24T15:55:12Z</time>
      </trkpt>
      <trkpt lat="44.8885" lon="5.13071">
        <ele>891.69097900391</ele>
        <time>2009-06-24T15:55:13Z</time>
      </trkpt>
      <trkpt lat="44.88896" lon="5.13079">
        <ele>887.74700927734</ele>
        <time>2009-06-24T15:55:18Z</time>
      </trkpt>
      <trkpt lat="44.88918" lon="5.13079">
        <ele>886.48297119141</ele>
        <time>2009-06-24T15:55:20Z</time>
      </trkpt>
      <trkpt lat="44.88975" lon="5.13127">
        <ele>881.57800292969</ele>
        <time>2009-06-24T15:55:26Z</time>
      </trkpt>
      <trkpt lat="44.88996" lon="5.13227">
        <ele>876.24597167969</ele>
        <time>2009-06-24T15:55:32Z</time>
      </trkpt>
      <trkpt lat="44.89012" lon="5.13252">
        <ele>875.39398193359</ele>
        <time>2009-06-24T15:55:34Z</time>
      </trkpt>
      <trkpt lat="44.89042" lon="5.13248">
        <ele>873.51202392578</ele>
        <time>2009-06-24T15:55:37Z</time>
      </trkpt>
      <trkpt lat="44.89046" lon="5.13235">
        <ele>873.27301025391</ele>
        <time>2009-06-24T15:55:38Z</time>
      </trkpt>
      <trkpt lat="44.89036" lon="5.13167">
        <ele>868.93200683594</ele>
        <time>2009-06-24T15:55:42Z</time>
      </trkpt>
      <trkpt lat="44.89013" lon="5.13098">
        <ele>863.61602783203</ele>
        <time>2009-06-24T15:55:46Z</time>
      </trkpt>
      <trkpt lat="44.89011" lon="5.12943">
        <ele>854.80700683594</ele>
        <time>2009-06-24T15:55:54Z</time>
      </trkpt>
      <trkpt lat="44.89017" lon="5.12864">
        <ele>851.43200683594</ele>
        <time>2009-06-24T15:55:58Z</time>
      </trkpt>
      <trkpt lat="44.8902" lon="5.12823">
        <ele>848.49798583984</ele>
        <time>2009-06-24T15:56:00Z</time>
      </trkpt>
      <trkpt lat="44.89014" lon="5.12745">
        <ele>844.26397705078</ele>
        <time>2009-06-24T15:56:04Z</time>
      </trkpt>
      <trkpt lat="44.88968" lon="5.12662">
        <ele>838.90600585938</ele>
        <time>2009-06-24T15:56:09Z</time>
      </trkpt>
      <trkpt lat="44.88927" lon="5.12606">
        <ele>834.02899169922</ele>
        <time>2009-06-24T15:56:13Z</time>
      </trkpt>
      <trkpt lat="44.88882" lon="5.12549">
        <ele>829.23797607422</ele>
        <time>2009-06-24T15:56:17Z</time>
      </trkpt>
      <trkpt lat="44.88863" lon="5.1249">
        <ele>826.03302001953</ele>
        <time>2009-06-24T15:56:20Z</time>
      </trkpt>
      <trkpt lat="44.88837" lon="5.12346">
        <ele>818.24499511719</ele>
        <time>2009-06-24T15:56:27Z</time>
      </trkpt>
      <trkpt lat="44.88834" lon="5.12308">
        <ele>816.54797363281</ele>
        <time>2009-06-24T15:56:29Z</time>
      </trkpt>
      <trkpt lat="44.88849" lon="5.12299">
        <ele>813.69396972656</ele>
        <time>2009-06-24T15:56:34Z</time>
      </trkpt>
      <trkpt lat="44.88858" lon="5.12347">
        <ele>811.46502685547</ele>
        <time>2009-06-24T15:56:38Z</time>
      </trkpt>
      <trkpt lat="44.88867" lon="5.12393">
        <ele>808.14099121094</ele>
        <time>2009-06-24T15:56:41Z</time>
      </trkpt>
      <trkpt lat="44.88892" lon="5.12472">
        <ele>803.97497558594</ele>
        <time>2009-06-24T15:56:46Z</time>
      </trkpt>
      <trkpt lat="44.88898" lon="5.12488">
        <ele>803.50500488281</ele>
        <time>2009-06-24T15:56:47Z</time>
      </trkpt>
      <trkpt lat="44.88959" lon="5.12548">
        <ele>796.62902832031</ele>
        <time>2009-06-24T15:56:53Z</time>
      </trkpt>
      <trkpt lat="44.89061" lon="5.1261">
        <ele>787.65899658203</ele>
        <time>2009-06-24T15:57:01Z</time>
      </trkpt>
      <trkpt lat="44.89115" lon="5.12675">
        <ele>782.68701171875</ele>
        <time>2009-06-24T15:57:06Z</time>
      </trkpt>
      <trkpt lat="44.89135" lon="5.12788">
        <ele>776.54602050781</ele>
        <time>2009-06-24T15:57:12Z</time>
      </trkpt>
      <trkpt lat="44.89135" lon="5.12848">
        <ele>773.52600097656</ele>
        <time>2009-06-24T15:57:15Z</time>
      </trkpt>
      <trkpt lat="44.8914" lon="5.1292">
        <ele>767.73101806641</ele>
        <time>2009-06-24T15:57:19Z</time>
      </trkpt>
      <trkpt lat="44.89186" lon="5.1296">
        <ele>764.86297607422</ele>
        <time>2009-06-24T15:57:23Z</time>
      </trkpt>
      <trkpt lat="44.89216" lon="5.12976">
        <ele>762.10101318359</ele>
        <time>2009-06-24T15:57:25Z</time>
      </trkpt>
      <trkpt lat="44.89272" lon="5.13065">
        <ele>755.8330078125</ele>
        <time>2009-06-24T15:57:31Z</time>
      </trkpt>
      <trkpt lat="44.89302" lon="5.1316">
        <ele>750.15197753906</ele>
        <time>2009-06-24T15:57:36Z</time>
      </trkpt>
      <trkpt lat="44.89331" lon="5.13258">
        <ele>745.10699462891</ele>
        <time>2009-06-24T15:57:41Z</time>
      </trkpt>
      <trkpt lat="44.89385" lon="5.13456">
        <ele>733.85198974609</ele>
        <time>2009-06-24T15:57:51Z</time>
      </trkpt>
      <trkpt lat="44.89434" lon="5.13658">
        <ele>723.48797607422</ele>
        <time>2009-06-24T15:58:01Z</time>
      </trkpt>
      <trkpt lat="44.8945" lon="5.13853">
        <ele>713.29901123047</ele>
        <time>2009-06-24T15:58:10Z</time>
      </trkpt>
      <trkpt lat="44.89444" lon="5.13911">
        <ele>711.28100585938</ele>
        <time>2009-06-24T15:58:13Z</time>
      </trkpt>
      <trkpt lat="44.89447" lon="5.13933">
        <ele>709.28802490234</ele>
        <time>2009-06-24T15:58:18Z</time>
      </trkpt>
      <trkpt lat="44.89447" lon="5.13933">
        <ele>708.53002929688</ele>
        <time>2009-06-24T15:58:19Z</time>
      </trkpt>
      <trkpt lat="44.89473" lon="5.13777">
        <ele>700.25598144531</ele>
        <time>2009-06-24T15:58:28Z</time>
      </trkpt>
      <trkpt lat="44.89477" lon="5.13702">
        <ele>696.38800048828</ele>
        <time>2009-06-24T15:58:32Z</time>
      </trkpt>
      <trkpt lat="44.89477" lon="5.13567">
        <ele>689.42498779297</ele>
        <time>2009-06-24T15:58:39Z</time>
      </trkpt>
      <trkpt lat="44.89463" lon="5.1337">
        <ele>679.42797851562</ele>
        <time>2009-06-24T15:58:49Z</time>
      </trkpt>
      <trkpt lat="44.8945" lon="5.13227">
        <ele>671.14801025391</ele>
        <time>2009-06-24T15:58:56Z</time>
      </trkpt>
      <trkpt lat="44.89487" lon="5.13108">
        <ele>665.33099365234</ele>
        <time>2009-06-24T15:59:02Z</time>
      </trkpt>
      <trkpt lat="44.89473" lon="5.13062">
        <ele>663.01702880859</ele>
        <time>2009-06-24T15:59:05Z</time>
      </trkpt>
      <trkpt lat="44.89421" lon="5.12988">
        <ele>656.22601318359</ele>
        <time>2009-06-24T15:59:11Z</time>
      </trkpt>
      <trkpt lat="44.89447" lon="5.12908">
        <ele>651.66302490234</ele>
        <time>2009-06-24T15:59:16Z</time>
      </trkpt>
      <trkpt lat="44.89426" lon="5.12856">
        <ele>648.22900390625</ele>
        <time>2009-06-24T15:59:20Z</time>
      </trkpt>
      <trkpt lat="44.89384" lon="5.12791">
        <ele>643.12200927734</ele>
        <time>2009-06-24T15:59:25Z</time>
      </trkpt>
      <trkpt lat="44.89411" lon="5.12676">
        <ele>636.45300292969</ele>
        <time>2009-06-24T15:59:32Z</time>
      </trkpt>
      <trkpt lat="44.8946" lon="5.12546">
        <ele>628.72399902344</ele>
        <time>2009-06-24T15:59:40Z</time>
      </trkpt>
      <trkpt lat="44.89426" lon="5.1247">
        <ele>624.20202636719</ele>
        <time>2009-06-24T15:59:45Z</time>
      </trkpt>
      <trkpt lat="44.89369" lon="5.12405">
        <ele>617.416015625</ele>
        <time>2009-06-24T15:59:50Z</time>
      </trkpt>
      <trkpt lat="44.89367" lon="5.12385">
        <ele>616.36297607422</ele>
        <time>2009-06-24T15:59:51Z</time>
      </trkpt>
      <trkpt lat="44.89339" lon="5.1225">
        <ele>609.28601074219</ele>
        <time>2009-06-24T15:59:58Z</time>
      </trkpt>
      <trkpt lat="44.89276" lon="5.12157">
        <ele>601.85498046875</ele>
        <time>2009-06-24T16:00:04Z</time>
      </trkpt>
      <trkpt lat="44.89206" lon="5.12116">
        <ele>596.62097167969</ele>
        <time>2009-06-24T16:00:09Z</time>
      </trkpt>
      <trkpt lat="44.89174" lon="5.12081">
        <ele>593.79400634766</ele>
        <time>2009-06-24T16:00:13Z</time>
      </trkpt>
      <trkpt lat="44.89205" lon="5.12081">
        <ele>591.34802246094</ele>
        <time>2009-06-24T16:00:17Z</time>
      </trkpt>
      <trkpt lat="44.89243" lon="5.12096">
        <ele>588.02801513672</ele>
        <time>2009-06-24T16:00:21Z</time>
      </trkpt>
      <trkpt lat="44.89266" lon="5.12099">
        <ele>586.57800292969</ele>
        <time>2009-06-24T16:00:23Z</time>
      </trkpt>
      <trkpt lat="44.893" lon="5.12112">
        <ele>583.54998779297</ele>
        <time>2009-06-24T16:00:26Z</time>
      </trkpt>
      <trkpt lat="44.89348" lon="5.1212">
        <ele>580.38500976562</ele>
        <time>2009-06-24T16:00:30Z</time>
      </trkpt>
      <trkpt lat="44.89412" lon="5.12135">
        <ele>575.33099365234</ele>
        <time>2009-06-24T16:00:35Z</time>
      </trkpt>
      <trkpt lat="44.89422" lon="5.12148">
        <ele>573.8330078125</ele>
        <time>2009-06-24T16:00:36Z</time>
      </trkpt>
      <trkpt lat="44.89426" lon="5.12152">
        <ele>571.68200683594</ele>
        <time>2009-06-24T16:00:38Z</time>
      </trkpt>
      <trkpt lat="44.89445" lon="5.12195">
        <ele>571.72900390625</ele>
        <time>2009-06-24T16:00:39Z</time>
      </trkpt>
      <trkpt lat="44.89465" lon="5.12197">
        <ele>569.1240234375</ele>
        <time>2009-06-24T16:00:43Z</time>
      </trkpt>
      <trkpt lat="44.89455" lon="5.12158">
        <ele>565.94702148438</ele>
        <time>2009-06-24T16:00:47Z</time>
      </trkpt>
      <trkpt lat="44.89425" lon="5.12089">
        <ele>562.52801513672</ele>
        <time>2009-06-24T16:00:52Z</time>
      </trkpt>
      <trkpt lat="44.8939" lon="5.12041">
        <ele>558.3759765625</ele>
        <time>2009-06-24T16:00:56Z</time>
      </trkpt>
      <trkpt lat="44.89355" lon="5.1197">
        <ele>552.47998046875</ele>
        <time>2009-06-24T16:01:01Z</time>
      </trkpt>
      <trkpt lat="44.89347" lon="5.11961">
        <ele>552.34997558594</ele>
        <time>2009-06-24T16:01:02Z</time>
      </trkpt>
      <trkpt lat="44.89304" lon="5.11929">
        <ele>548.69000244141</ele>
        <time>2009-06-24T16:01:06Z</time>
      </trkpt>
      <trkpt lat="44.89297" lon="5.11896">
        <ele>547.92297363281</ele>
        <time>2009-06-24T16:01:08Z</time>
      </trkpt>
      <trkpt lat="44.89301" lon="5.1186">
        <ele>545.416015625</ele>
        <time>2009-06-24T16:01:10Z</time>
      </trkpt>
      <trkpt lat="44.89336" lon="5.11787">
        <ele>539.23602294922</ele>
        <time>2009-06-24T16:01:15Z</time>
      </trkpt>
      <trkpt lat="44.89392" lon="5.11795">
        <ele>535.76000976562</ele>
        <time>2009-06-24T16:01:19Z</time>
      </trkpt>
      <trkpt lat="44.89526" lon="5.11854">
        <ele>526.29302978516</ele>
        <time>2009-06-24T16:01:29Z</time>
      </trkpt>
      <trkpt lat="44.89591" lon="5.11846">
        <ele>522.84600830078</ele>
        <time>2009-06-24T16:01:34Z</time>
      </trkpt>
      <trkpt lat="44.89667" lon="5.11797">
        <ele>516.62298583984</ele>
        <time>2009-06-24T16:01:40Z</time>
      </trkpt>
      <trkpt lat="44.8968" lon="5.11792">
        <ele>515.60601806641</ele>
        <time>2009-06-24T16:01:41Z</time>
      </trkpt>
      <trkpt lat="44.89722" lon="5.11778">
        <ele>513.86798095703</ele>
        <time>2009-06-24T16:01:44Z</time>
      </trkpt>
      <trkpt lat="44.89736" lon="5.11773">
        <ele>512.27697753906</ele>
        <time>2009-06-24T16:01:45Z</time>
      </trkpt>
      <trkpt lat="44.89782" lon="5.11713">
        <ele>507.72698974609</ele>
        <time>2009-06-24T16:01:50Z</time>
      </trkpt>
      <trkpt lat="44.89784" lon="5.11655">
        <ele>505.5950012207</ele>
        <time>2009-06-24T16:01:53Z</time>
      </trkpt>
      <trkpt lat="44.89781" lon="5.11561">
        <ele>501.8039855957</ele>
        <time>2009-06-24T16:01:58Z</time>
      </trkpt>
      <trkpt lat="44.89779" lon="5.11543">
        <ele>500.6969909668</ele>
        <time>2009-06-24T16:01:59Z</time>
      </trkpt>
      <trkpt lat="44.89801" lon="5.11485">
        <ele>498.82800292969</ele>
        <time>2009-06-24T16:02:04Z</time>
      </trkpt>
      <trkpt lat="44.89856" lon="5.11437">
        <ele>493.76098632812</ele>
        <time>2009-06-24T16:02:10Z</time>
      </trkpt>
      <trkpt lat="44.89889" lon="5.11416">
        <ele>492.05999755859</ele>
        <time>2009-06-24T16:02:13Z</time>
      </trkpt>
      <trkpt lat="44.8993" lon="5.11382">
        <ele>488.60400390625</ele>
        <time>2009-06-24T16:02:17Z</time>
      </trkpt>
      <trkpt lat="44.89959" lon="5.11352">
        <ele>486.65301513672</ele>
        <time>2009-06-24T16:02:20Z</time>
      </trkpt>
      <trkpt lat="44.89969" lon="5.11342">
        <ele>486.59399414062</ele>
        <time>2009-06-24T16:02:21Z</time>
      </trkpt>
      <trkpt lat="44.90039" lon="5.11306">
        <ele>481.42999267578</ele>
        <time>2009-06-24T16:02:27Z</time>
      </trkpt>
      <trkpt lat="44.90073" lon="5.11284">
        <ele>480.03100585938</ele>
        <time>2009-06-24T16:02:30Z</time>
      </trkpt>
      <trkpt lat="44.90115" lon="5.11251">
        <ele>477.45599365234</ele>
        <time>2009-06-24T16:02:34Z</time>
      </trkpt>
      <trkpt lat="44.90154" lon="5.1122">
        <ele>475.21600341797</ele>
        <time>2009-06-24T16:02:38Z</time>
      </trkpt>
      <trkpt lat="44.90276" lon="5.1118">
        <ele>467.77801513672</ele>
        <time>2009-06-24T16:02:49Z</time>
      </trkpt>
      <trkpt lat="44.90323" lon="5.11178">
        <ele>465.09698486328</ele>
        <time>2009-06-24T16:02:53Z</time>
      </trkpt>
      <trkpt lat="44.90438" lon="5.11208">
        <ele>460.55999755859</ele>
        <time>2009-06-24T16:03:04Z</time>
      </trkpt>
      <trkpt lat="44.90438" lon="5.11208">
        <ele>459.4460144043</ele>
        <time>2009-06-24T16:03:05Z</time>
      </trkpt>
      <trkpt lat="44.90478" lon="5.1122">
        <ele>458.81600952148</ele>
        <time>2009-06-24T16:03:07Z</time>
      </trkpt>
      <trkpt lat="44.90559" lon="5.11246">
        <ele>450.48300170898</ele>
        <time>2009-06-24T16:03:16Z</time>
      </trkpt>
      <trkpt lat="44.90699" lon="5.11262">
        <ele>440.21301269531</ele>
        <time>2009-06-24T16:03:25Z</time>
      </trkpt>
      <trkpt lat="44.90808" lon="5.11295">
        <ele>428.67098999023</ele>
        <time>2009-06-24T16:03:33Z</time>
      </trkpt>
      <trkpt lat="44.90936" lon="5.11334">
        <ele>420.78399658203</ele>
        <time>2009-06-24T16:03:42Z</time>
      </trkpt>
      <trkpt lat="44.91031" lon="5.11311">
        <ele>418.29000854492</ele>
        <time>2009-06-24T16:03:51Z</time>
      </trkpt>
      <trkpt lat="44.91095" lon="5.11269">
        <ele>416.13000488281</ele>
        <time>2009-06-24T16:03:55Z</time>
      </trkpt>
      <trkpt lat="44.9113" lon="5.11247">
        <ele>415.36099243164</ele>
        <time>2009-06-24T16:03:58Z</time>
      </trkpt>
      <trkpt lat="44.91162" lon="5.11226">
        <ele>415.40200805664</ele>
        <time>2009-06-24T16:04:01Z</time>
      </trkpt>
      <trkpt lat="44.91208" lon="5.11194">
        <ele>415.47900390625</ele>
        <time>2009-06-24T16:04:06Z</time>
      </trkpt>
      <trkpt lat="44.91222" lon="5.11184">
        <ele>415.40200805664</ele>
        <time>2009-06-24T16:04:08Z</time>
      </trkpt>
      <trkpt lat="44.91329" lon="5.11101">
        <ele>413.58401489258</ele>
        <time>2009-06-24T16:04:24Z</time>
      </trkpt>
      <trkpt lat="44.9138" lon="5.1099">
        <ele>411.59100341797</ele>
        <time>2009-06-24T16:04:35Z</time>
      </trkpt>
      <trkpt lat="44.91396" lon="5.10855">
        <ele>404.4169921875</ele>
        <time>2009-06-24T16:04:45Z</time>
      </trkpt>
      <trkpt lat="44.91403" lon="5.10758">
        <ele>399.7799987793</ele>
        <time>2009-06-24T16:04:51Z</time>
      </trkpt>
      <trkpt lat="44.91403" lon="5.10586">
        <ele>400.69100952148</ele>
        <time>2009-06-24T16:05:03Z</time>
      </trkpt>
      <trkpt lat="44.91401" lon="5.10541">
        <ele>399.68301391602</ele>
        <time>2009-06-24T16:05:07Z</time>
      </trkpt>
      <trkpt lat="44.91393" lon="5.10411">
        <ele>396.00500488281</ele>
        <time>2009-06-24T16:05:17Z</time>
      </trkpt>
      <trkpt lat="44.91365" lon="5.10382">
        <ele>393.81799316406</ele>
        <time>2009-06-24T16:05:22Z</time>
      </trkpt>
      <trkpt lat="44.91352" lon="5.10388">
        <ele>394.67001342773</ele>
        <time>2009-06-24T16:05:25Z</time>
      </trkpt>
      <trkpt lat="44.91339" lon="5.1044">
        <ele>396.13598632812</ele>
        <time>2009-06-24T16:05:30Z</time>
      </trkpt>
      <trkpt lat="44.91344" lon="5.10414">
        <ele>396.75799560547</ele>
        <time>2009-06-24T16:05:37Z</time>
      </trkpt>
      <trkpt lat="44.91336" lon="5.10453">
        <ele>395.75299072266</ele>
        <time>2009-06-24T16:06:29Z</time>
      </trkpt>
      <trkpt lat="44.91366" lon="5.104">
        <ele>393.97299194336</ele>
        <time>2009-06-24T16:06:38Z</time>
      </trkpt>
      <trkpt lat="44.91371" lon="5.10397">
        <ele>393.62399291992</ele>
        <time>2009-06-24T16:06:39Z</time>
      </trkpt>
      <trkpt lat="44.91382" lon="5.1039">
        <ele>393.78298950195</ele>
        <time>2009-06-24T16:06:46Z</time>
      </trkpt>
      <trkpt lat="44.91391" lon="5.10384">
        <ele>392.77499389648</ele>
        <time>2009-06-24T16:06:53Z</time>
      </trkpt>
      <trkpt lat="44.91391" lon="5.10319">
        <ele>390.26599121094</ele>
        <time>2009-06-24T16:06:59Z</time>
      </trkpt>
      <trkpt lat="44.91393" lon="5.10222">
        <ele>386.58099365234</ele>
        <time>2009-06-24T16:07:07Z</time>
      </trkpt>
      <trkpt lat="44.91406" lon="5.10152">
        <ele>383.41198730469</ele>
        <time>2009-06-24T16:07:12Z</time>
      </trkpt>
      <trkpt lat="44.91434" lon="5.09989">
        <ele>378.6780090332</ele>
        <time>2009-06-24T16:07:25Z</time>
      </trkpt>
      <trkpt lat="44.91456" lon="5.09893">
        <ele>376.89498901367</ele>
        <time>2009-06-24T16:07:30Z</time>
      </trkpt>
      <trkpt lat="44.91458" lon="5.09878">
        <ele>376.74899291992</ele>
        <time>2009-06-24T16:07:31Z</time>
      </trkpt>
      <trkpt lat="44.91434" lon="5.09736">
        <ele>373.57598876953</ele>
        <time>2009-06-24T16:07:41Z</time>
      </trkpt>
      <trkpt lat="44.91385" lon="5.09565">
        <ele>368.79299926758</ele>
        <time>2009-06-24T16:07:53Z</time>
      </trkpt>
      <trkpt lat="44.91382" lon="5.09549">
        <ele>368.51501464844</ele>
        <time>2009-06-24T16:07:54Z</time>
      </trkpt>
      <trkpt lat="44.91368" lon="5.09486">
        <ele>366.52801513672</ele>
        <time>2009-06-24T16:07:58Z</time>
      </trkpt>
      <trkpt lat="44.9135" lon="5.09405">
        <ele>364.4460144043</ele>
        <time>2009-06-24T16:08:03Z</time>
      </trkpt>
      <trkpt lat="44.91331" lon="5.09323">
        <ele>361.47601318359</ele>
        <time>2009-06-24T16:08:08Z</time>
      </trkpt>
      <trkpt lat="44.91268" lon="5.09144">
        <ele>356.33599853516</ele>
        <time>2009-06-24T16:08:20Z</time>
      </trkpt>
      <trkpt lat="44.9124" lon="5.09071">
        <ele>354.56201171875</ele>
        <time>2009-06-24T16:08:25Z</time>
      </trkpt>
      <trkpt lat="44.91171" lon="5.08835">
        <ele>349.37701416016</ele>
        <time>2009-06-24T16:08:41Z</time>
      </trkpt>
      <trkpt lat="44.91125" lon="5.08554">
        <ele>342.46301269531</ele>
        <time>2009-06-24T16:08:59Z</time>
      </trkpt>
      <trkpt lat="44.91127" lon="5.08422">
        <ele>339.35800170898</ele>
        <time>2009-06-24T16:09:07Z</time>
      </trkpt>
      <trkpt lat="44.91129" lon="5.08371">
        <ele>338.08099365234</ele>
        <time>2009-06-24T16:09:10Z</time>
      </trkpt>
      <trkpt lat="44.9113" lon="5.0827">
        <ele>335.75799560547</ele>
        <time>2009-06-24T16:09:16Z</time>
      </trkpt>
      <trkpt lat="44.91132" lon="5.08203">
        <ele>334.18899536133</ele>
        <time>2009-06-24T16:09:20Z</time>
      </trkpt>
      <trkpt lat="44.91137" lon="5.07901">
        <ele>328.27398681641</ele>
        <time>2009-06-24T16:09:38Z</time>
      </trkpt>
      <trkpt lat="44.91112" lon="5.07702">
        <ele>325.05999755859</ele>
        <time>2009-06-24T16:09:51Z</time>
      </trkpt>
      <trkpt lat="44.91064" lon="5.0742">
        <ele>318.52899169922</ele>
        <time>2009-06-24T16:10:10Z</time>
      </trkpt>
      <trkpt lat="44.91046" lon="5.07263">
        <ele>315.26901245117</ele>
        <time>2009-06-24T16:10:20Z</time>
      </trkpt>
      <trkpt lat="44.91051" lon="5.07201">
        <ele>314.58599853516</ele>
        <time>2009-06-24T16:10:24Z</time>
      </trkpt>
      <trkpt lat="44.91064" lon="5.07142">
        <ele>312.57400512695</ele>
        <time>2009-06-24T16:10:28Z</time>
      </trkpt>
      <trkpt lat="44.91083" lon="5.07056">
        <ele>310.43899536133</ele>
        <time>2009-06-24T16:10:34Z</time>
      </trkpt>
      <trkpt lat="44.91087" lon="5.06985">
        <ele>307.83801269531</ele>
        <time>2009-06-24T16:10:40Z</time>
      </trkpt>
      <trkpt lat="44.91065" lon="5.0661">
        <ele>302.14001464844</ele>
        <time>2009-06-24T16:11:03Z</time>
      </trkpt>
      <trkpt lat="44.91047" lon="5.0627">
        <ele>295.09899902344</ele>
        <time>2009-06-24T16:11:26Z</time>
      </trkpt>
      <trkpt lat="44.91035" lon="5.06046">
        <ele>290.33401489258</ele>
        <time>2009-06-24T16:11:40Z</time>
      </trkpt>
      <trkpt lat="44.91024" lon="5.0579">
        <ele>286.19900512695</ele>
        <time>2009-06-24T16:11:56Z</time>
      </trkpt>
      <trkpt lat="44.91038" lon="5.05619">
        <ele>283.16400146484</ele>
        <time>2009-06-24T16:12:08Z</time>
      </trkpt>
      <trkpt lat="44.91039" lon="5.05607">
        <ele>283.14001464844</ele>
        <time>2009-06-24T16:12:09Z</time>
      </trkpt>
      <trkpt lat="44.91068" lon="5.05561">
        <ele>282.53298950195</ele>
        <time>2009-06-24T16:12:15Z</time>
      </trkpt>
      <trkpt lat="44.91074" lon="5.05565">
        <ele>282.56698608398</ele>
        <time>2009-06-24T16:12:16Z</time>
      </trkpt>
      <trkpt lat="44.91116" lon="5.0559">
        <ele>284.15100097656</ele>
        <time>2009-06-24T16:12:23Z</time>
      </trkpt>
      <trkpt lat="44.91168" lon="5.05616">
        <ele>285.38000488281</ele>
        <time>2009-06-24T16:12:33Z</time>
      </trkpt>
      <trkpt lat="44.91196" lon="5.05614">
        <ele>285.59899902344</ele>
        <time>2009-06-24T16:12:38Z</time>
      </trkpt>
      <trkpt lat="44.91216" lon="5.056">
        <ele>285.38299560547</ele>
        <time>2009-06-24T16:12:42Z</time>
      </trkpt>
      <trkpt lat="44.91231" lon="5.0558">
        <ele>285.00201416016</ele>
        <time>2009-06-24T16:12:47Z</time>
      </trkpt>
      <trkpt lat="44.91253" lon="5.05502">
        <ele>284.24301147461</ele>
        <time>2009-06-24T16:13:00Z</time>
      </trkpt>
      <trkpt lat="44.91257" lon="5.05487">
        <ele>283.94799804688</ele>
        <time>2009-06-24T16:13:02Z</time>
      </trkpt>
      <trkpt lat="44.91299" lon="5.0544">
        <ele>281.1369934082</ele>
        <time>2009-06-24T16:13:10Z</time>
      </trkpt>
      <trkpt lat="44.91311" lon="5.05443">
        <ele>281.11199951172</ele>
        <time>2009-06-24T16:13:12Z</time>
      </trkpt>
      <trkpt lat="44.91396" lon="5.05474">
        <ele>281.20999145508</ele>
        <time>2009-06-24T16:13:28Z</time>
      </trkpt>
      <trkpt lat="44.91461" lon="5.05502">
        <ele>280.73699951172</ele>
        <time>2009-06-24T16:13:41Z</time>
      </trkpt>
      <trkpt lat="44.91486" lon="5.05513">
        <ele>282.03601074219</ele>
        <time>2009-06-24T16:13:46Z</time>
      </trkpt>
      <trkpt lat="44.9153" lon="5.05529">
        <ele>281.69799804688</ele>
        <time>2009-06-24T16:13:51Z</time>
      </trkpt>
      <trkpt lat="44.91605" lon="5.05555">
        <ele>282.2619934082</ele>
        <time>2009-06-24T16:14:02Z</time>
      </trkpt>
      <trkpt lat="44.91736" lon="5.05603">
        <ele>282.69000244141</ele>
        <time>2009-06-24T16:14:21Z</time>
      </trkpt>
      <trkpt lat="44.91873" lon="5.05626">
        <ele>282.95700073242</ele>
        <time>2009-06-24T16:14:41Z</time>
      </trkpt>
      <trkpt lat="44.91887" lon="5.05622">
        <ele>282.74499511719</ele>
        <time>2009-06-24T16:14:43Z</time>
      </trkpt>
      <trkpt lat="44.91983" lon="5.05565">
        <ele>280.69100952148</ele>
        <time>2009-06-24T16:14:57Z</time>
      </trkpt>
      <trkpt lat="44.92025" lon="5.05539">
        <ele>279.84298706055</ele>
        <time>2009-06-24T16:15:03Z</time>
      </trkpt>
      <trkpt lat="44.92078" lon="5.05457">
        <ele>277.18701171875</ele>
        <time>2009-06-24T16:15:13Z</time>
      </trkpt>
      <trkpt lat="44.9212" lon="5.05381">
        <ele>275.2919921875</ele>
        <time>2009-06-24T16:15:23Z</time>
      </trkpt>
      <trkpt lat="44.92122" lon="5.05377">
        <ele>275.1780090332</ele>
        <time>2009-06-24T16:15:24Z</time>
      </trkpt>
      <trkpt lat="44.92125" lon="5.05371">
        <ele>275.03698730469</ele>
        <time>2009-06-24T16:15:27Z</time>
      </trkpt>
      <trkpt lat="44.92188" lon="5.05287">
        <ele>273.69198608398</ele>
        <time>2009-06-24T16:15:40Z</time>
      </trkpt>
      <trkpt lat="44.92297" lon="5.05134">
        <ele>271.77499389648</ele>
        <time>2009-06-24T16:16:00Z</time>
      </trkpt>
      <trkpt lat="44.92355" lon="5.05033">
        <ele>270.03399658203</ele>
        <time>2009-06-24T16:16:11Z</time>
      </trkpt>
      <trkpt lat="44.92456" lon="5.04837">
        <ele>265.0710144043</ele>
        <time>2009-06-24T16:16:30Z</time>
      </trkpt>
      <trkpt lat="44.92542" lon="5.04696">
        <ele>262.05700683594</ele>
        <time>2009-06-24T16:16:44Z</time>
      </trkpt>
      <trkpt lat="44.92659" lon="5.04495">
        <ele>257.53201293945</ele>
        <time>2009-06-24T16:17:04Z</time>
      </trkpt>
      <trkpt lat="44.92709" lon="5.04441">
        <ele>256.16598510742</ele>
        <time>2009-06-24T16:17:11Z</time>
      </trkpt>
      <trkpt lat="44.92813" lon="5.04369">
        <ele>253.73100280762</ele>
        <time>2009-06-24T16:17:24Z</time>
      </trkpt>
      <trkpt lat="44.92926" lon="5.04286">
        <ele>250.07499694824</ele>
        <time>2009-06-24T16:17:38Z</time>
      </trkpt>
      <trkpt lat="44.93029" lon="5.04149">
        <ele>245.74800109863</ele>
        <time>2009-06-24T16:17:53Z</time>
      </trkpt>
      <trkpt lat="44.93147" lon="5.03958">
        <ele>241.75900268555</ele>
        <time>2009-06-24T16:18:12Z</time>
      </trkpt>
      <trkpt lat="44.93213" lon="5.03783">
        <ele>239.11599731445</ele>
        <time>2009-06-24T16:18:27Z</time>
      </trkpt>
      <trkpt lat="44.93267" lon="5.03607">
        <ele>235.87899780273</ele>
        <time>2009-06-24T16:18:43Z</time>
      </trkpt>
      <trkpt lat="44.93292" lon="5.03551">
        <ele>234.6609954834</ele>
        <time>2009-06-24T16:18:48Z</time>
      </trkpt>
      <trkpt lat="44.93321" lon="5.0338">
        <ele>231.66999816894</ele>
        <time>2009-06-24T16:19:01Z</time>
      </trkpt>
      <trkpt lat="44.93348" lon="5.03233">
        <ele>229.27000427246</ele>
        <time>2009-06-24T16:19:13Z</time>
      </trkpt>
      <trkpt lat="44.93402" lon="5.03006">
        <ele>226.5359954834</ele>
        <time>2009-06-24T16:19:32Z</time>
      </trkpt>
      <trkpt lat="44.93472" lon="5.02763">
        <ele>222.88900756836</ele>
        <time>2009-06-24T16:19:53Z</time>
      </trkpt>
      <trkpt lat="44.93514" lon="5.0264">
        <ele>220.6190032959</ele>
        <time>2009-06-24T16:20:04Z</time>
      </trkpt>
      <trkpt lat="44.93548" lon="5.02602">
        <ele>220.66600036621</ele>
        <time>2009-06-24T16:20:10Z</time>
      </trkpt>
      <trkpt lat="44.9355" lon="5.02599">
        <ele>220.3869934082</ele>
        <time>2009-06-24T16:20:12Z</time>
      </trkpt>
      <trkpt lat="44.9355" lon="5.02528">
        <ele>219.28500366211</ele>
        <time>2009-06-24T16:20:17Z</time>
      </trkpt>
      <trkpt lat="44.93576" lon="5.02435">
        <ele>218.34800720215</ele>
        <time>2009-06-24T16:20:25Z</time>
      </trkpt>
      <trkpt lat="44.93583" lon="5.02412">
        <ele>218.99299621582</ele>
        <time>2009-06-24T16:20:27Z</time>
      </trkpt>
      <trkpt lat="44.93603" lon="5.02376">
        <ele>218.07099914551</ele>
        <time>2009-06-24T16:20:31Z</time>
      </trkpt>
      <trkpt lat="44.93739" lon="5.02289">
        <ele>216.39700317383</ele>
        <time>2009-06-24T16:20:49Z</time>
      </trkpt>
      <trkpt lat="44.9381" lon="5.02231">
        <ele>215.07000732422</ele>
        <time>2009-06-24T16:20:59Z</time>
      </trkpt>
      <trkpt lat="44.93836" lon="5.02157">
        <ele>213.60000610352</ele>
        <time>2009-06-24T16:21:06Z</time>
      </trkpt>
      <trkpt lat="44.93835" lon="5.02101">
        <ele>212.59300231934</ele>
        <time>2009-06-24T16:21:11Z</time>
      </trkpt>
      <trkpt lat="44.93804" lon="5.01911">
        <ele>210.82800292969</ele>
        <time>2009-06-24T16:21:26Z</time>
      </trkpt>
      <trkpt lat="44.93816" lon="5.01632">
        <ele>209.02299499512</ele>
        <time>2009-06-24T16:21:49Z</time>
      </trkpt>
      <trkpt lat="44.93819" lon="5.01609">
        <ele>208.76600646973</ele>
        <time>2009-06-24T16:21:51Z</time>
      </trkpt>
      <trkpt lat="44.93864" lon="5.01421">
        <ele>207.16999816894</ele>
        <time>2009-06-24T16:22:09Z</time>
      </trkpt>
      <trkpt lat="44.9391" lon="5.01213">
        <ele>205.02900695801</ele>
        <time>2009-06-24T16:22:29Z</time>
      </trkpt>
      <trkpt lat="44.93982" lon="5.00971">
        <ele>201.98100280762</ele>
        <time>2009-06-24T16:22:53Z</time>
      </trkpt>
      <trkpt lat="44.94042" lon="5.00751">
        <ele>199.77000427246</ele>
        <time>2009-06-24T16:23:14Z</time>
      </trkpt>
      <trkpt lat="44.94078" lon="5.00627">
        <ele>197.6549987793</ele>
        <time>2009-06-24T16:23:28Z</time>
      </trkpt>
      <trkpt lat="44.94135" lon="5.00437">
        <ele>195.53999328613</ele>
        <time>2009-06-24T16:23:47Z</time>
      </trkpt>
      <trkpt lat="44.94195" lon="5.00344">
        <ele>194.11999511719</ele>
        <time>2009-06-24T16:23:58Z</time>
      </trkpt>
      <trkpt lat="44.94238" lon="5.00288">
        <ele>192.66299438477</ele>
        <time>2009-06-24T16:24:06Z</time>
      </trkpt>
      <trkpt lat="44.94323" lon="5.00177">
        <ele>191.40699768066</ele>
        <time>2009-06-24T16:24:22Z</time>
      </trkpt>
      <trkpt lat="44.9438" lon="5.00082">
        <ele>190.67999267578</ele>
        <time>2009-06-24T16:24:34Z</time>
      </trkpt>
      <trkpt lat="44.94428" lon="4.9989">
        <ele>188.9700012207</ele>
        <time>2009-06-24T16:24:53Z</time>
      </trkpt>
      <trkpt lat="44.9446" lon="4.99758">
        <ele>190.50999450684</ele>
        <time>2009-06-24T16:25:08Z</time>
      </trkpt>
      <trkpt lat="44.94468" lon="4.99695">
        <ele>192.03900146484</ele>
        <time>2009-06-24T16:25:17Z</time>
      </trkpt>
      <trkpt lat="44.9449" lon="4.99572">
        <ele>191.04899597168</ele>
        <time>2009-06-24T16:25:32Z</time>
      </trkpt>
      <trkpt lat="44.94492" lon="4.99562">
        <ele>190.77299499512</ele>
        <time>2009-06-24T16:25:33Z</time>
      </trkpt>
      <trkpt lat="44.94497" lon="4.99542">
        <ele>189.82200622559</ele>
        <time>2009-06-24T16:25:35Z</time>
      </trkpt>
      <trkpt lat="44.94524" lon="4.99446">
        <ele>184.3690032959</ele>
        <time>2009-06-24T16:25:43Z</time>
      </trkpt>
      <trkpt lat="44.94565" lon="4.99316">
        <ele>183.08799743652</ele>
        <time>2009-06-24T16:25:54Z</time>
      </trkpt>
      <trkpt lat="44.94603" lon="4.99254">
        <ele>182.42199707031</ele>
        <time>2009-06-24T16:26:01Z</time>
      </trkpt>
      <trkpt lat="44.94707" lon="4.99073">
        <ele>180.87399291992</ele>
        <time>2009-06-24T16:26:21Z</time>
      </trkpt>
      <trkpt lat="44.94754" lon="4.9899">
        <ele>180.14199829102</ele>
        <time>2009-06-24T16:26:30Z</time>
      </trkpt>
      <trkpt lat="44.94768" lon="4.98951">
        <ele>179.93200683594</ele>
        <time>2009-06-24T16:26:34Z</time>
      </trkpt>
      <trkpt lat="44.9478" lon="4.98778">
        <ele>179.08999633789</ele>
        <time>2009-06-24T16:26:49Z</time>
      </trkpt>
      <trkpt lat="44.94779" lon="4.98587">
        <ele>178.92100524902</ele>
        <time>2009-06-24T16:27:06Z</time>
      </trkpt>
      <trkpt lat="44.94779" lon="4.98382">
        <ele>177.66200256348</ele>
        <time>2009-06-24T16:27:24Z</time>
      </trkpt>
      <trkpt lat="44.94773" lon="4.98277">
        <ele>176.7619934082</ele>
        <time>2009-06-24T16:27:35Z</time>
      </trkpt>
      <trkpt lat="44.94773" lon="4.98277">
        <ele>176.60299682617</ele>
        <time>2009-06-24T16:27:36Z</time>
      </trkpt>
      <trkpt lat="44.94769" lon="4.98251">
        <ele>176.51300048828</ele>
        <time>2009-06-24T16:27:39Z</time>
      </trkpt>
      <trkpt lat="44.94769" lon="4.98183">
        <ele>176.79800415039</ele>
        <time>2009-06-24T16:27:45Z</time>
      </trkpt>
      <trkpt lat="44.94792" lon="4.98187">
        <ele>176.36199951172</ele>
        <time>2009-06-24T16:27:47Z</time>
      </trkpt>
      <trkpt lat="44.94878" lon="4.98213">
        <ele>177.0890045166</ele>
        <time>2009-06-24T16:28:02Z</time>
      </trkpt>
      <trkpt lat="44.94983" lon="4.98272">
        <ele>177.79600524902</ele>
        <time>2009-06-24T16:28:21Z</time>
      </trkpt>
      <trkpt lat="44.95005" lon="4.98295">
        <ele>177.97999572754</ele>
        <time>2009-06-24T16:28:26Z</time>
      </trkpt>
      <trkpt lat="44.95026" lon="4.98274">
        <ele>178.06199645996</ele>
        <time>2009-06-24T16:28:32Z</time>
      </trkpt>
      <trkpt lat="44.95044" lon="4.98228">
        <ele>177.38299560547</ele>
        <time>2009-06-24T16:28:38Z</time>
      </trkpt>
      <trkpt lat="44.9508" lon="4.98133">
        <ele>177.39199829102</ele>
        <time>2009-06-24T16:28:49Z</time>
      </trkpt>
      <trkpt lat="44.95126" lon="4.97982">
        <ele>176.96299743652</ele>
        <time>2009-06-24T16:29:06Z</time>
      </trkpt>
      <trkpt lat="44.95169" lon="4.97815">
        <ele>176.76600646973</ele>
        <time>2009-06-24T16:29:23Z</time>
      </trkpt>
      <trkpt lat="44.95193" lon="4.97775">
        <ele>176.57499694824</ele>
        <time>2009-06-24T16:29:30Z</time>
      </trkpt>
      <trkpt lat="44.95297" lon="4.97711">
        <ele>176.79499816894</ele>
        <time>2009-06-24T16:29:46Z</time>
      </trkpt>
      <trkpt lat="44.95308" lon="4.97704">
        <ele>177.33799743652</ele>
        <time>2009-06-24T16:29:48Z</time>
      </trkpt>
      <trkpt lat="44.95327" lon="4.97685">
        <ele>178.07000732422</ele>
        <time>2009-06-24T16:29:52Z</time>
      </trkpt>
      <trkpt lat="44.95367" lon="4.97572">
        <ele>177.98100280762</ele>
        <time>2009-06-24T16:30:08Z</time>
      </trkpt>
      <trkpt lat="44.95418" lon="4.97415">
        <ele>176.87600708008</ele>
        <time>2009-06-24T16:30:27Z</time>
      </trkpt>
      <trkpt lat="44.95432" lon="4.9738">
        <ele>175.82099914551</ele>
        <time>2009-06-24T16:30:31Z</time>
      </trkpt>
      <trkpt lat="44.95473" lon="4.97344">
        <ele>176.03199768066</ele>
        <time>2009-06-24T16:30:38Z</time>
      </trkpt>
      <trkpt lat="44.95572" lon="4.97305">
        <ele>176.43200683594</ele>
        <time>2009-06-24T16:30:56Z</time>
      </trkpt>
      <trkpt lat="44.95652" lon="4.97276">
        <ele>176.01100158691</ele>
        <time>2009-06-24T16:31:11Z</time>
      </trkpt>
      <trkpt lat="44.95754" lon="4.97239">
        <ele>175.31300354004</ele>
        <time>2009-06-24T16:31:28Z</time>
      </trkpt>
      <trkpt lat="44.9587" lon="4.97195">
        <ele>176.6130065918</ele>
        <time>2009-06-24T16:31:48Z</time>
      </trkpt>
      <trkpt lat="44.95977" lon="4.97153">
        <ele>177.19500732422</ele>
        <time>2009-06-24T16:32:07Z</time>
      </trkpt>
      <trkpt lat="44.96051" lon="4.9712">
        <ele>176.91600036621</ele>
        <time>2009-06-24T16:32:20Z</time>
      </trkpt>
      <trkpt lat="44.96092" lon="4.97119">
        <ele>176.63400268555</ele>
        <time>2009-06-24T16:32:28Z</time>
      </trkpt>
      <trkpt lat="44.96163" lon="4.97056">
        <ele>175.55099487305</ele>
        <time>2009-06-24T16:32:42Z</time>
      </trkpt>
      <trkpt lat="44.96259" lon="4.96971">
        <ele>174.27200317383</ele>
        <time>2009-06-24T16:32:58Z</time>
      </trkpt>
      <trkpt lat="44.96288" lon="4.96896">
        <ele>174.09899902344</ele>
        <time>2009-06-24T16:33:07Z</time>
      </trkpt>
      <trkpt lat="44.96327" lon="4.96857">
        <ele>174.04499816894</ele>
        <time>2009-06-24T16:33:15Z</time>
      </trkpt>
      <trkpt lat="44.96427" lon="4.96788">
        <ele>173.62899780273</ele>
        <time>2009-06-24T16:33:32Z</time>
      </trkpt>
      <trkpt lat="44.96545" lon="4.96703">
        <ele>173.43499755859</ele>
        <time>2009-06-24T16:33:52Z</time>
      </trkpt>
      <trkpt lat="44.96593" lon="4.96674">
        <ele>173.99200439453</ele>
        <time>2009-06-24T16:34:00Z</time>
      </trkpt>
      <trkpt lat="44.96671" lon="4.96577">
        <ele>174.41200256348</ele>
        <time>2009-06-24T16:34:16Z</time>
      </trkpt>
      <trkpt lat="44.96763" lon="4.96439">
        <ele>173.71800231934</ele>
        <time>2009-06-24T16:34:36Z</time>
      </trkpt>
      <trkpt lat="44.96835" lon="4.9632">
        <ele>173.375</ele>
        <time>2009-06-24T16:34:52Z</time>
      </trkpt>
      <trkpt lat="44.96895" lon="4.96201">
        <ele>173.67399597168</ele>
        <time>2009-06-24T16:35:08Z</time>
      </trkpt>
      <trkpt lat="44.96902" lon="4.96185">
        <ele>172.90699768066</ele>
        <time>2009-06-24T16:35:10Z</time>
      </trkpt>
      <trkpt lat="44.96914" lon="4.9616">
        <ele>172.03300476074</ele>
        <time>2009-06-24T16:35:13Z</time>
      </trkpt>
      <trkpt lat="44.96979" lon="4.96041">
        <ele>170.2859954834</ele>
        <time>2009-06-24T16:35:28Z</time>
      </trkpt>
      <trkpt lat="44.97001" lon="4.95997">
        <ele>169.00500488281</ele>
        <time>2009-06-24T16:35:33Z</time>
      </trkpt>
      <trkpt lat="44.97011" lon="4.9598">
        <ele>169.16900634766</ele>
        <time>2009-06-24T16:35:35Z</time>
      </trkpt>
      <trkpt lat="44.97032" lon="4.95952">
        <ele>169.01899719238</ele>
        <time>2009-06-24T16:35:39Z</time>
      </trkpt>
      <trkpt lat="44.97099" lon="4.95866">
        <ele>169.54800415039</ele>
        <time>2009-06-24T16:35:53Z</time>
      </trkpt>
      <trkpt lat="44.97157" lon="4.95784">
        <ele>171.00700378418</ele>
        <time>2009-06-24T16:36:08Z</time>
      </trkpt>
      <trkpt lat="44.97204" lon="4.95711">
        <ele>171.31100463867</ele>
        <time>2009-06-24T16:36:22Z</time>
      </trkpt>
      <trkpt lat="44.97205" lon="4.95709">
        <ele>171.37199401856</ele>
        <time>2009-06-24T16:36:25Z</time>
      </trkpt>
      <trkpt lat="44.97203" lon="4.95701">
        <ele>171.2859954834</ele>
        <time>2009-06-24T16:36:29Z</time>
      </trkpt>
      <trkpt lat="44.97137" lon="4.95601">
        <ele>170.89900207519</ele>
        <time>2009-06-24T16:36:44Z</time>
      </trkpt>
      <trkpt lat="44.971" lon="4.95532">
        <ele>170.79299926758</ele>
        <time>2009-06-24T16:36:53Z</time>
      </trkpt>
      <trkpt lat="44.971" lon="4.95493">
        <ele>170.84199523926</ele>
        <time>2009-06-24T16:36:59Z</time>
      </trkpt>
      <trkpt lat="44.97099" lon="4.95454">
        <ele>171.8630065918</ele>
        <time>2009-06-24T16:37:05Z</time>
      </trkpt>
      <trkpt lat="44.97095" lon="4.95449">
        <ele>171.71299743652</ele>
        <time>2009-06-24T16:37:06Z</time>
      </trkpt>
      <trkpt lat="44.97069" lon="4.9541">
        <ele>171.68899536133</ele>
        <time>2009-06-24T16:37:13Z</time>
      </trkpt>
      <trkpt lat="44.97077" lon="4.95373">
        <ele>171.45300292969</ele>
        <time>2009-06-24T16:37:19Z</time>
      </trkpt>
      <trkpt lat="44.9709" lon="4.95353">
        <ele>171.66799926758</ele>
        <time>2009-06-24T16:37:23Z</time>
      </trkpt>
      <trkpt lat="44.971" lon="4.95338">
        <ele>171.47500610352</ele>
        <time>2009-06-24T16:37:26Z</time>
      </trkpt>
      <trkpt lat="44.97144" lon="4.95267">
        <ele>167.03100585938</ele>
        <time>2009-06-24T16:37:36Z</time>
      </trkpt>
      <trkpt lat="44.97149" lon="4.95242">
        <ele>167.23599243164</ele>
        <time>2009-06-24T16:37:38Z</time>
      </trkpt>
      <trkpt lat="44.97169" lon="4.95181">
        <ele>169.27799987793</ele>
        <time>2009-06-24T16:37:44Z</time>
      </trkpt>
      <trkpt lat="44.97193" lon="4.95111">
        <ele>173.1190032959</ele>
        <time>2009-06-24T16:37:57Z</time>
      </trkpt>
      <trkpt lat="44.9722" lon="4.95082">
        <ele>176.28199768066</ele>
        <time>2009-06-24T16:38:09Z</time>
      </trkpt>
      <trkpt lat="44.97223" lon="4.95082">
        <ele>176.63600158691</ele>
        <time>2009-06-24T16:38:10Z</time>
      </trkpt>
      <trkpt lat="44.97256" lon="4.95113">
        <ele>178.59899902344</ele>
        <time>2009-06-24T16:38:21Z</time>
      </trkpt>
      <trkpt lat="44.97296" lon="4.95152">
        <ele>180.39799499512</ele>
        <time>2009-06-24T16:38:33Z</time>
      </trkpt>
      <trkpt lat="44.97329" lon="4.95185">
        <ele>181.85899353027</ele>
        <time>2009-06-24T16:38:43Z</time>
      </trkpt>
      <trkpt lat="44.97358" lon="4.95214">
        <ele>182.88600158691</ele>
        <time>2009-06-24T16:38:51Z</time>
      </trkpt>
      <trkpt lat="44.97411" lon="4.95259">
        <ele>184.93099975586</ele>
        <time>2009-06-24T16:39:05Z</time>
      </trkpt>
      <trkpt lat="44.97423" lon="4.95267">
        <ele>184.8690032959</ele>
        <time>2009-06-24T16:39:08Z</time>
      </trkpt>
      <trkpt lat="44.97439" lon="4.9528">
        <ele>184.72700500488</ele>
        <time>2009-06-24T16:39:12Z</time>
      </trkpt>
      <trkpt lat="44.97462" lon="4.95298">
        <ele>184.46299743652</ele>
        <time>2009-06-24T16:39:18Z</time>
      </trkpt>
      <trkpt lat="44.97522" lon="4.95327">
        <ele>186.60899353027</ele>
        <time>2009-06-24T16:39:32Z</time>
      </trkpt>
      <trkpt lat="44.97581" lon="4.95349">
        <ele>188.04699707031</ele>
        <time>2009-06-24T16:39:48Z</time>
      </trkpt>
      <trkpt lat="44.97653" lon="4.95391">
        <ele>190.51400756836</ele>
        <time>2009-06-24T16:40:06Z</time>
      </trkpt>
      <trkpt lat="44.97722" lon="4.95435">
        <ele>192.69999694824</ele>
        <time>2009-06-24T16:40:23Z</time>
      </trkpt>
      <trkpt lat="44.97795" lon="4.95484">
        <ele>195.42199707031</ele>
        <time>2009-06-24T16:40:41Z</time>
      </trkpt>
      <trkpt lat="44.97827" lon="4.95478">
        <ele>196.63299560547</ele>
        <time>2009-06-24T16:40:49Z</time>
      </trkpt>
      <trkpt lat="44.97916" lon="4.95413">
        <ele>199.68899536133</ele>
        <time>2009-06-24T16:41:11Z</time>
      </trkpt>
      <trkpt lat="44.98001" lon="4.95369">
        <ele>200.92300415039</ele>
        <time>2009-06-24T16:41:29Z</time>
      </trkpt>
      <trkpt lat="44.98059" lon="4.95338">
        <ele>201.2200012207</ele>
        <time>2009-06-24T16:41:40Z</time>
      </trkpt>
      <trkpt lat="44.98095" lon="4.95342">
        <ele>200.38800048828</ele>
        <time>2009-06-24T16:41:49Z</time>
      </trkpt>
      <trkpt lat="44.98095" lon="4.95342">
        <ele>200.4880065918</ele>
        <time>2009-06-24T16:41:50Z</time>
      </trkpt>
      <trkpt lat="44.98111" lon="4.95324">
        <ele>201.00199890137</ele>
        <time>2009-06-24T16:41:52Z</time>
      </trkpt>
      <trkpt lat="44.98195" lon="4.95273">
        <ele>201.11500549316</ele>
        <time>2009-06-24T16:42:08Z</time>
      </trkpt>
      <trkpt lat="44.98325" lon="4.95219">
        <ele>200.88299560547</ele>
        <time>2009-06-24T16:42:29Z</time>
      </trkpt>
      <trkpt lat="44.98344" lon="4.9521">
        <ele>200.83799743652</ele>
        <time>2009-06-24T16:42:32Z</time>
      </trkpt>
      <trkpt lat="44.98404" lon="4.95153">
        <ele>200.86199951172</ele>
        <time>2009-06-24T16:42:45Z</time>
      </trkpt>
      <trkpt lat="44.9848" lon="4.9505">
        <ele>201.58200073242</ele>
        <time>2009-06-24T16:43:00Z</time>
      </trkpt>
      <trkpt lat="44.98554" lon="4.94953">
        <ele>201.68200683594</ele>
        <time>2009-06-24T16:43:16Z</time>
      </trkpt>
      <trkpt lat="44.98619" lon="4.94798">
        <ele>200.00399780273</ele>
        <time>2009-06-24T16:43:34Z</time>
      </trkpt>
      <trkpt lat="44.98644" lon="4.94737">
        <ele>198.53799438477</ele>
        <time>2009-06-24T16:43:41Z</time>
      </trkpt>
      <trkpt lat="44.98692" lon="4.94694">
        <ele>198.42399597168</ele>
        <time>2009-06-24T16:43:48Z</time>
      </trkpt>
      <trkpt lat="44.98699" lon="4.94697">
        <ele>198.30900573731</ele>
        <time>2009-06-24T16:43:49Z</time>
      </trkpt>
      <trkpt lat="44.98768" lon="4.94726">
        <ele>198.71299743652</ele>
        <time>2009-06-24T16:43:59Z</time>
      </trkpt>
      <trkpt lat="44.98819" lon="4.94718">
        <ele>198.22399902344</ele>
        <time>2009-06-24T16:44:06Z</time>
      </trkpt>
      <trkpt lat="44.98929" lon="4.94614">
        <ele>199.68400573731</ele>
        <time>2009-06-24T16:44:25Z</time>
      </trkpt>
      <trkpt lat="44.99027" lon="4.94521">
        <ele>201.92399597168</ele>
        <time>2009-06-24T16:44:45Z</time>
      </trkpt>
      <trkpt lat="44.99073" lon="4.94428">
        <ele>202.68200683594</ele>
        <time>2009-06-24T16:44:59Z</time>
      </trkpt>
      <trkpt lat="44.99115" lon="4.94279">
        <ele>202.30999755859</ele>
        <time>2009-06-24T16:45:16Z</time>
      </trkpt>
      <trkpt lat="44.9915" lon="4.94224">
        <ele>202.16200256348</ele>
        <time>2009-06-24T16:45:24Z</time>
      </trkpt>
      <trkpt lat="44.99221" lon="4.94185">
        <ele>202.98899841309</ele>
        <time>2009-06-24T16:45:36Z</time>
      </trkpt>
      <trkpt lat="44.99279" lon="4.94106">
        <ele>202.60699462891</ele>
        <time>2009-06-24T16:45:51Z</time>
      </trkpt>
      <trkpt lat="44.99395" lon="4.9392">
        <ele>201.79800415039</ele>
        <time>2009-06-24T16:46:14Z</time>
      </trkpt>
      <trkpt lat="44.99406" lon="4.93907">
        <ele>202.22700500488</ele>
        <time>2009-06-24T16:46:16Z</time>
      </trkpt>
      <trkpt lat="44.99502" lon="4.93849">
        <ele>200.91700744629</ele>
        <time>2009-06-24T16:46:32Z</time>
      </trkpt>
      <trkpt lat="44.99595" lon="4.93795">
        <ele>200.04100036621</ele>
        <time>2009-06-24T16:46:49Z</time>
      </trkpt>
      <trkpt lat="44.99685" lon="4.93744">
        <ele>201.07099914551</ele>
        <time>2009-06-24T16:47:06Z</time>
      </trkpt>
      <trkpt lat="44.99807" lon="4.93669">
        <ele>200.54499816894</ele>
        <time>2009-06-24T16:47:27Z</time>
      </trkpt>
      <trkpt lat="44.99959" lon="4.93563">
        <ele>200.17500305176</ele>
        <time>2009-06-24T16:47:52Z</time>
      </trkpt>
      <trkpt lat="45.00098" lon="4.93469">
        <ele>199.24200439453</ele>
        <time>2009-06-24T16:48:15Z</time>
      </trkpt>
      <trkpt lat="45.00203" lon="4.93424">
        <ele>196.66600036621</ele>
        <time>2009-06-24T16:48:32Z</time>
      </trkpt>
      <trkpt lat="45.00299" lon="4.93401">
        <ele>191.86799621582</ele>
        <time>2009-06-24T16:48:45Z</time>
      </trkpt>
      <trkpt lat="45.00315" lon="4.93397">
        <ele>190.33500671387</ele>
        <time>2009-06-24T16:48:47Z</time>
      </trkpt>
      <trkpt lat="45.00338" lon="4.93382">
        <ele>188.66900634766</ele>
        <time>2009-06-24T16:48:50Z</time>
      </trkpt>
      <trkpt lat="45.00351" lon="4.93364">
        <ele>187.68899536133</ele>
        <time>2009-06-24T16:48:52Z</time>
      </trkpt>
      <trkpt lat="45.00357" lon="4.93355">
        <ele>187.25799560547</ele>
        <time>2009-06-24T16:48:53Z</time>
      </trkpt>
      <trkpt lat="45.00396" lon="4.93319">
        <ele>184.6369934082</ele>
        <time>2009-06-24T16:48:58Z</time>
      </trkpt>
      <trkpt lat="45.00406" lon="4.93318">
        <ele>184.04699707031</ele>
        <time>2009-06-24T16:48:59Z</time>
      </trkpt>
      <trkpt lat="45.00505" lon="4.93318">
        <ele>178.21699523926</ele>
        <time>2009-06-24T16:49:08Z</time>
      </trkpt>
      <trkpt lat="45.00558" lon="4.93297">
        <ele>172.99899291992</ele>
        <time>2009-06-24T16:49:13Z</time>
      </trkpt>
      <trkpt lat="45.00589" lon="4.93282">
        <ele>171.75900268555</ele>
        <time>2009-06-24T16:49:16Z</time>
      </trkpt>
      <trkpt lat="45.00656" lon="4.93198">
        <ele>166.29200744629</ele>
        <time>2009-06-24T16:49:25Z</time>
      </trkpt>
      <trkpt lat="45.00671" lon="4.93131">
        <ele>163.30799865723</ele>
        <time>2009-06-24T16:49:30Z</time>
      </trkpt>
      <trkpt lat="45.00682" lon="4.9301">
        <ele>159.125</ele>
        <time>2009-06-24T16:49:38Z</time>
      </trkpt>
      <trkpt lat="45.00714" lon="4.92835">
        <ele>155.56900024414</ele>
        <time>2009-06-24T16:49:51Z</time>
      </trkpt>
      <trkpt lat="45.00717" lon="4.92824">
        <ele>155.39700317383</ele>
        <time>2009-06-24T16:49:52Z</time>
      </trkpt>
      <trkpt lat="45.00732" lon="4.92776">
        <ele>155.06300354004</ele>
        <time>2009-06-24T16:49:57Z</time>
      </trkpt>
      <trkpt lat="45.00759" lon="4.92763">
        <ele>154.76800537109</ele>
        <time>2009-06-24T16:50:01Z</time>
      </trkpt>
      <trkpt lat="45.00812" lon="4.92802">
        <ele>155.7200012207</ele>
        <time>2009-06-24T16:50:09Z</time>
      </trkpt>
      <trkpt lat="45.00915" lon="4.929">
        <ele>155.35800170898</ele>
        <time>2009-06-24T16:50:29Z</time>
      </trkpt>
      <trkpt lat="45.00967" lon="4.92952">
        <ele>155.47599792481</ele>
        <time>2009-06-24T16:50:39Z</time>
      </trkpt>
      <trkpt lat="45.0102" lon="4.9301">
        <ele>155.43600463867</ele>
        <time>2009-06-24T16:50:49Z</time>
      </trkpt>
      <trkpt lat="45.01112" lon="4.93104">
        <ele>155.92500305176</ele>
        <time>2009-06-24T16:51:06Z</time>
      </trkpt>
      <trkpt lat="45.01183" lon="4.93173">
        <ele>155.45300292969</ele>
        <time>2009-06-24T16:51:20Z</time>
      </trkpt>
      <trkpt lat="45.01273" lon="4.93229">
        <ele>153.86199951172</ele>
        <time>2009-06-24T16:51:34Z</time>
      </trkpt>
      <trkpt lat="45.01295" lon="4.9324">
        <ele>153.42999267578</ele>
        <time>2009-06-24T16:51:37Z</time>
      </trkpt>
      <trkpt lat="45.01331" lon="4.9327">
        <ele>151.18400573731</ele>
        <time>2009-06-24T16:51:42Z</time>
      </trkpt>
      <trkpt lat="45.01373" lon="4.93356">
        <ele>147.30900573731</ele>
        <time>2009-06-24T16:51:50Z</time>
      </trkpt>
      <trkpt lat="45.01397" lon="4.93413">
        <ele>145.46499633789</ele>
        <time>2009-06-24T16:51:55Z</time>
      </trkpt>
      <trkpt lat="45.01402" lon="4.93424">
        <ele>145.24499511719</ele>
        <time>2009-06-24T16:51:56Z</time>
      </trkpt>
      <trkpt lat="45.01425" lon="4.93473">
        <ele>144.83000183106</ele>
        <time>2009-06-24T16:52:01Z</time>
      </trkpt>
      <trkpt lat="45.01432" lon="4.93491">
        <ele>143.48599243164</ele>
        <time>2009-06-24T16:52:03Z</time>
      </trkpt>
      <trkpt lat="45.01467" lon="4.9361">
        <ele>142.51699829102</ele>
        <time>2009-06-24T16:52:15Z</time>
      </trkpt>
      <trkpt lat="45.01476" lon="4.93711">
        <ele>141.37399291992</ele>
        <time>2009-06-24T16:52:26Z</time>
      </trkpt>
      <trkpt lat="45.01491" lon="4.93766">
        <ele>141.00999450684</ele>
        <time>2009-06-24T16:52:33Z</time>
      </trkpt>
      <trkpt lat="45.01494" lon="4.93777">
        <ele>141.14300537109</ele>
        <time>2009-06-24T16:52:35Z</time>
      </trkpt>
      <trkpt lat="45.01503" lon="4.93813">
        <ele>140.78199768066</ele>
        <time>2009-06-24T16:52:40Z</time>
      </trkpt>
      <trkpt lat="45.01508" lon="4.93829">
        <ele>141.04899597168</ele>
        <time>2009-06-24T16:52:42Z</time>
      </trkpt>
      <trkpt lat="45.01523" lon="4.93858">
        <ele>141.58599853516</ele>
        <time>2009-06-24T16:52:46Z</time>
      </trkpt>
      <trkpt lat="45.01548" lon="4.93914">
        <ele>142.28999328613</ele>
        <time>2009-06-24T16:52:54Z</time>
      </trkpt>
      <trkpt lat="45.01561" lon="4.93928">
        <ele>141.43400573731</ele>
        <time>2009-06-24T16:53:00Z</time>
      </trkpt>
      <trkpt lat="45.01645" lon="4.93859">
        <ele>139.3390045166</ele>
        <time>2009-06-24T16:53:14Z</time>
      </trkpt>
      <trkpt lat="45.01728" lon="4.93783">
        <ele>139.91000366211</ele>
        <time>2009-06-24T16:53:28Z</time>
      </trkpt>
      <trkpt lat="45.01781" lon="4.93735">
        <ele>139.61099243164</ele>
        <time>2009-06-24T16:53:37Z</time>
      </trkpt>
      <trkpt lat="45.01854" lon="4.93684">
        <ele>141.2619934082</ele>
        <time>2009-06-24T16:53:51Z</time>
      </trkpt>
      <trkpt lat="45.01923" lon="4.93617">
        <ele>141.18699645996</ele>
        <time>2009-06-24T16:54:05Z</time>
      </trkpt>
      <trkpt lat="45.02005" lon="4.93532">
        <ele>143.89700317383</ele>
        <time>2009-06-24T16:54:23Z</time>
      </trkpt>
      <trkpt lat="45.02102" lon="4.9345">
        <ele>145.42900085449</ele>
        <time>2009-06-24T16:54:45Z</time>
      </trkpt>
      <trkpt lat="45.02213" lon="4.93368">
        <ele>145.43600463867</ele>
        <time>2009-06-24T16:55:07Z</time>
      </trkpt>
      <trkpt lat="45.02304" lon="4.93358">
        <ele>145.22900390625</ele>
        <time>2009-06-24T16:55:22Z</time>
      </trkpt>
      <trkpt lat="45.02439" lon="4.93367">
        <ele>145.03100585938</ele>
        <time>2009-06-24T16:55:44Z</time>
      </trkpt>
      <trkpt lat="45.02558" lon="4.93354">
        <ele>144.94400024414</ele>
        <time>2009-06-24T16:56:03Z</time>
      </trkpt>
      <trkpt lat="45.02679" lon="4.93283">
        <ele>144.0950012207</ele>
        <time>2009-06-24T16:56:24Z</time>
      </trkpt>
      <trkpt lat="45.0276" lon="4.93226">
        <ele>144.85699462891</ele>
        <time>2009-06-24T16:56:39Z</time>
      </trkpt>
      <trkpt lat="45.02875" lon="4.93149">
        <ele>146.64199829102</ele>
        <time>2009-06-24T16:57:00Z</time>
      </trkpt>
      <trkpt lat="45.02994" lon="4.93097">
        <ele>146.84899902344</ele>
        <time>2009-06-24T16:57:19Z</time>
      </trkpt>
      <trkpt lat="45.03093" lon="4.93079">
        <ele>147.49000549316</ele>
        <time>2009-06-24T16:57:35Z</time>
      </trkpt>
      <trkpt lat="45.03173" lon="4.93064">
        <ele>147.10899353027</ele>
        <time>2009-06-24T16:57:49Z</time>
      </trkpt>
      <trkpt lat="45.03198" lon="4.93088">
        <ele>146.7440032959</ele>
        <time>2009-06-24T16:57:53Z</time>
      </trkpt>
      <trkpt lat="45.03202" lon="4.93089">
        <ele>146.55499267578</ele>
        <time>2009-06-24T16:57:55Z</time>
      </trkpt>
      <trkpt lat="45.03232" lon="4.93108">
        <ele>147.02299499512</ele>
        <time>2009-06-24T16:58:01Z</time>
      </trkpt>
      <trkpt lat="45.03237" lon="4.93111">
        <ele>147.02900695801</ele>
        <time>2009-06-24T16:58:06Z</time>
      </trkpt>
      <trkpt lat="45.03236" lon="4.9311">
        <ele>147.24499511719</ele>
        <time>2009-06-24T16:58:09Z</time>
      </trkpt>
      <trkpt lat="45.0321" lon="4.9306">
        <ele>146.98199462891</ele>
        <time>2009-06-24T16:58:14Z</time>
      </trkpt>
      <trkpt lat="45.0321" lon="4.93054">
        <ele>147.33299255371</ele>
        <time>2009-06-24T16:58:15Z</time>
      </trkpt>
      <trkpt lat="45.03244" lon="4.93045">
        <ele>146.89999389648</ele>
        <time>2009-06-24T16:58:20Z</time>
      </trkpt>
      <trkpt lat="45.03271" lon="4.93071">
        <ele>147.13900756836</ele>
        <time>2009-06-24T16:58:30Z</time>
      </trkpt>
      <trkpt lat="45.03272" lon="4.93072">
        <ele>147.25799560547</ele>
        <time>2009-06-24T16:58:35Z</time>
      </trkpt>
      <trkpt lat="45.03265" lon="4.93065">
        <ele>147.08099365234</ele>
        <time>2009-06-24T16:58:37Z</time>
      </trkpt>
      <trkpt lat="45.03252" lon="4.93053">
        <ele>147.07600402832</ele>
        <time>2009-06-24T16:58:40Z</time>
      </trkpt>
      <trkpt lat="45.03229" lon="4.93042">
        <ele>147.03700256348</ele>
        <time>2009-06-24T16:58:45Z</time>
      </trkpt>
      <trkpt lat="45.03219" lon="4.93044">
        <ele>146.89900207519</ele>
        <time>2009-06-24T16:58:47Z</time>
      </trkpt>
      <trkpt lat="45.0321" lon="4.9305">
        <ele>146.84300231934</ele>
        <time>2009-06-24T16:58:49Z</time>
      </trkpt>
      <trkpt lat="45.03176" lon="4.93063">
        <ele>147.63200378418</ele>
        <time>2009-06-24T16:58:56Z</time>
      </trkpt>
      <trkpt lat="45.03194" lon="4.93087">
        <ele>147.55499267578</ele>
        <time>2009-06-24T16:59:00Z</time>
      </trkpt>
      <trkpt lat="45.03293" lon="4.93153">
        <ele>147.32800292969</ele>
        <time>2009-06-24T16:59:19Z</time>
      </trkpt>
      <trkpt lat="45.03372" lon="4.93224">
        <ele>146.86500549316</ele>
        <time>2009-06-24T16:59:35Z</time>
      </trkpt>
      <trkpt lat="45.03444" lon="4.93316">
        <ele>147.00300598144</ele>
        <time>2009-06-24T16:59:51Z</time>
      </trkpt>
      <trkpt lat="45.03523" lon="4.93419">
        <ele>148.05599975586</ele>
        <time>2009-06-24T17:00:09Z</time>
      </trkpt>
      <trkpt lat="45.03621" lon="4.93523">
        <ele>149.11500549316</ele>
        <time>2009-06-24T17:00:30Z</time>
      </trkpt>
      <trkpt lat="45.03733" lon="4.93637">
        <ele>148.61700439453</ele>
        <time>2009-06-24T17:00:53Z</time>
      </trkpt>
      <trkpt lat="45.03849" lon="4.93733">
        <ele>148.98399353027</ele>
        <time>2009-06-24T17:01:15Z</time>
      </trkpt>
      <trkpt lat="45.03943" lon="4.93829">
        <ele>149.21800231934</ele>
        <time>2009-06-24T17:01:34Z</time>
      </trkpt>
      <trkpt lat="45.04025" lon="4.93927">
        <ele>149.26899719238</ele>
        <time>2009-06-24T17:01:53Z</time>
      </trkpt>
      <trkpt lat="45.04104" lon="4.94008">
        <ele>149.21800231934</ele>
        <time>2009-06-24T17:02:10Z</time>
      </trkpt>
      <trkpt lat="45.04186" lon="4.94091">
        <ele>149.58999633789</ele>
        <time>2009-06-24T17:02:28Z</time>
      </trkpt>
      <trkpt lat="45.04287" lon="4.94188">
        <ele>150.72300720215</ele>
        <time>2009-06-24T17:02:51Z</time>
      </trkpt>
      <trkpt lat="45.0438" lon="4.94278">
        <ele>152.15699768066</ele>
        <time>2009-06-24T17:03:12Z</time>
      </trkpt>
      <trkpt lat="45.04489" lon="4.94366">
        <ele>151.0359954834</ele>
        <time>2009-06-24T17:03:33Z</time>
      </trkpt>
      <trkpt lat="45.04588" lon="4.94423">
        <ele>151.42599487305</ele>
        <time>2009-06-24T17:03:53Z</time>
      </trkpt>
      <trkpt lat="45.04712" lon="4.94487">
        <ele>151.03399658203</ele>
        <time>2009-06-24T17:04:15Z</time>
      </trkpt>
      <trkpt lat="45.04772" lon="4.94533">
        <ele>151.80999755859</ele>
        <time>2009-06-24T17:04:29Z</time>
      </trkpt>
      <trkpt lat="45.04865" lon="4.94603">
        <ele>152.15800476074</ele>
        <time>2009-06-24T17:04:48Z</time>
      </trkpt>
      <trkpt lat="45.04965" lon="4.94679">
        <ele>151.98199462891</ele>
        <time>2009-06-24T17:05:07Z</time>
      </trkpt>
      <trkpt lat="45.05045" lon="4.94727">
        <ele>153.02400207519</ele>
        <time>2009-06-24T17:05:22Z</time>
      </trkpt>
      <trkpt lat="45.05098" lon="4.94736">
        <ele>153.68600463867</ele>
        <time>2009-06-24T17:05:33Z</time>
      </trkpt>
      <trkpt lat="45.05174" lon="4.94752">
        <ele>154.40899658203</ele>
        <time>2009-06-24T17:05:49Z</time>
      </trkpt>
      <trkpt lat="45.05209" lon="4.94771">
        <ele>154.96099853516</ele>
        <time>2009-06-24T17:05:57Z</time>
      </trkpt>
      <trkpt lat="45.05223" lon="4.94773">
        <ele>154.83299255371</ele>
        <time>2009-06-24T17:06:00Z</time>
      </trkpt>
      <trkpt lat="45.05244" lon="4.94775">
        <ele>154.29400634766</ele>
        <time>2009-06-24T17:06:09Z</time>
      </trkpt>
      <trkpt lat="45.05244" lon="4.94775">
        <ele>153.85000610352</ele>
        <time>2009-06-24T17:06:11Z</time>
      </trkpt>
      <trkpt lat="45.05268" lon="4.94793">
        <ele>152.96600341797</ele>
        <time>2009-06-24T17:06:15Z</time>
      </trkpt>
      <trkpt lat="45.05273" lon="4.9482">
        <ele>152.16200256348</ele>
        <time>2009-06-24T17:06:19Z</time>
      </trkpt>
      <trkpt lat="45.05278" lon="4.94852">
        <ele>150.96299743652</ele>
        <time>2009-06-24T17:06:23Z</time>
      </trkpt>
      <trkpt lat="45.053" lon="4.94886">
        <ele>150.51499938965</ele>
        <time>2009-06-24T17:06:28Z</time>
      </trkpt>
      <trkpt lat="45.05317" lon="4.94908">
        <ele>150.56199645996</ele>
        <time>2009-06-24T17:06:33Z</time>
      </trkpt>
      <trkpt lat="45.05349" lon="4.94947">
        <ele>150.75900268555</ele>
        <time>2009-06-24T17:06:40Z</time>
      </trkpt>
      <trkpt lat="45.05357" lon="4.94956">
        <ele>151.0950012207</ele>
        <time>2009-06-24T17:06:42Z</time>
      </trkpt>
      <trkpt lat="45.05381" lon="4.94969">
        <ele>150.81199645996</ele>
        <time>2009-06-24T17:06:47Z</time>
      </trkpt>
      <trkpt lat="45.05398" lon="4.94982">
        <ele>151.00500488281</ele>
        <time>2009-06-24T17:06:51Z</time>
      </trkpt>
      <trkpt lat="45.05434" lon="4.94995">
        <ele>152.87399291992</ele>
        <time>2009-06-24T17:06:59Z</time>
      </trkpt>
      <trkpt lat="45.05458" lon="4.95">
        <ele>153.58799743652</ele>
        <time>2009-06-24T17:07:05Z</time>
      </trkpt>
      <trkpt lat="45.05467" lon="4.95001">
        <ele>153.47099304199</ele>
        <time>2009-06-24T17:07:07Z</time>
      </trkpt>
      <trkpt lat="45.05477" lon="4.95003">
        <ele>152.93099975586</ele>
        <time>2009-06-24T17:07:09Z</time>
      </trkpt>
      <trkpt lat="45.05497" lon="4.95007">
        <ele>152.22700500488</ele>
        <time>2009-06-24T17:07:13Z</time>
      </trkpt>
      <trkpt lat="45.05582" lon="4.95055">
        <ele>148.40699768066</ele>
        <time>2009-06-24T17:07:26Z</time>
      </trkpt>
      <trkpt lat="45.0564" lon="4.95088">
        <ele>151.3630065918</ele>
        <time>2009-06-24T17:07:37Z</time>
      </trkpt>
      <trkpt lat="45.05667" lon="4.95103">
        <ele>153.87399291992</ele>
        <time>2009-06-24T17:07:45Z</time>
      </trkpt>
      <trkpt lat="45.05693" lon="4.95115">
        <ele>155.67100524902</ele>
        <time>2009-06-24T17:07:53Z</time>
      </trkpt>
      <trkpt lat="45.05732" lon="4.95124">
        <ele>156.43899536133</ele>
        <time>2009-06-24T17:08:03Z</time>
      </trkpt>
      <trkpt lat="45.05748" lon="4.95129">
        <ele>156.23599243164</ele>
        <time>2009-06-24T17:08:07Z</time>
      </trkpt>
      <trkpt lat="45.05785" lon="4.95175">
        <ele>154.25999450684</ele>
        <time>2009-06-24T17:08:17Z</time>
      </trkpt>
      <trkpt lat="45.05809" lon="4.9521">
        <ele>153.08200073242</ele>
        <time>2009-06-24T17:08:23Z</time>
      </trkpt>
      <trkpt lat="45.05833" lon="4.95233">
        <ele>152.45199584961</ele>
        <time>2009-06-24T17:08:28Z</time>
      </trkpt>
      <trkpt lat="45.0586" lon="4.9525">
        <ele>152.75999450684</ele>
        <time>2009-06-24T17:08:33Z</time>
      </trkpt>
      <trkpt lat="45.0588" lon="4.95262">
        <ele>154.39500427246</ele>
        <time>2009-06-24T17:08:37Z</time>
      </trkpt>
      <trkpt lat="45.05904" lon="4.95278">
        <ele>156.05900573731</ele>
        <time>2009-06-24T17:08:43Z</time>
      </trkpt>
      <trkpt lat="45.0592" lon="4.95287">
        <ele>156.55599975586</ele>
        <time>2009-06-24T17:08:47Z</time>
      </trkpt>
      <trkpt lat="45.05993" lon="4.95332">
        <ele>156.35299682617</ele>
        <time>2009-06-24T17:09:02Z</time>
      </trkpt>
      <trkpt lat="45.06008" lon="4.95342">
        <ele>156.99200439453</ele>
        <time>2009-06-24T17:09:05Z</time>
      </trkpt>
      <trkpt lat="45.06031" lon="4.95356">
        <ele>157.71000671387</ele>
        <time>2009-06-24T17:09:10Z</time>
      </trkpt>
      <trkpt lat="45.06047" lon="4.95363">
        <ele>156.53500366211</ele>
        <time>2009-06-24T17:09:14Z</time>
      </trkpt>
      <trkpt lat="45.06058" lon="4.95362">
        <ele>156.46699523926</ele>
        <time>2009-06-24T17:09:16Z</time>
      </trkpt>
      <trkpt lat="45.06142" lon="4.95357">
        <ele>157.18600463867</ele>
        <time>2009-06-24T17:09:31Z</time>
      </trkpt>
      <trkpt lat="45.06175" lon="4.95355">
        <ele>157.16900634766</ele>
        <time>2009-06-24T17:09:37Z</time>
      </trkpt>
      <trkpt lat="45.062" lon="4.95371">
        <ele>155.51899719238</ele>
        <time>2009-06-24T17:09:42Z</time>
      </trkpt>
      <trkpt lat="45.06209" lon="4.95383">
        <ele>154.72500610352</ele>
        <time>2009-06-24T17:09:44Z</time>
      </trkpt>
      <trkpt lat="45.06237" lon="4.95404">
        <ele>155.45399475098</ele>
        <time>2009-06-24T17:09:51Z</time>
      </trkpt>
      <trkpt lat="45.06237" lon="4.95404">
        <ele>155.43400573731</ele>
        <time>2009-06-24T17:09:52Z</time>
      </trkpt>
      <trkpt lat="45.06237" lon="4.95404">
        <ele>155.17399597168</ele>
        <time>2009-06-24T17:10:25Z</time>
      </trkpt>
      <trkpt lat="45.06237" lon="4.95404">
        <ele>155.2619934082</ele>
        <time>2009-06-24T17:10:26Z</time>
      </trkpt>
      <trkpt lat="45.06237" lon="4.95404">
        <ele>155.37600708008</ele>
        <time>2009-06-24T17:10:28Z</time>
      </trkpt>
      <trkpt lat="45.06247" lon="4.95403">
        <ele>155.25199890137</ele>
        <time>2009-06-24T17:11:09Z</time>
      </trkpt>
      <trkpt lat="45.06255" lon="4.95401">
        <ele>155.14399719238</ele>
        <time>2009-06-24T17:11:20Z</time>
      </trkpt>
      <trkpt lat="45.06255" lon="4.95401">
        <ele>155.27400207519</ele>
        <time>2009-06-24T17:11:33Z</time>
      </trkpt>
      <trkpt lat="45.06255" lon="4.95401">
        <ele>155.29100036621</ele>
        <time>2009-06-24T17:11:51Z</time>
      </trkpt>
      <trkpt lat="45.06255" lon="4.95401">
        <ele>155.39700317383</ele>
        <time>2009-06-24T17:12:38Z</time>
      </trkpt>
      <trkpt lat="45.06255" lon="4.95401">
        <ele>155.44500732422</ele>
        <time>2009-06-24T17:12:39Z</time>
      </trkpt>
      <trkpt lat="45.06255" lon="4.95401">
        <ele>155.71600341797</ele>
        <time>2009-06-24T17:12:46Z</time>
      </trkpt>
      <trkpt lat="45.06278" lon="4.95394">
        <ele>155.37600708008</ele>
        <time>2009-06-24T17:12:58Z</time>
      </trkpt>
      <trkpt lat="45.06278" lon="4.95394">
        <ele>155.43899536133</ele>
        <time>2009-06-24T17:13:12Z</time>
      </trkpt>
      <trkpt lat="45.06278" lon="4.95394">
        <ele>155.54499816894</ele>
        <time>2009-06-24T17:13:20Z</time>
      </trkpt>
      <trkpt lat="45.06296" lon="4.95388">
        <ele>155.3390045166</ele>
        <time>2009-06-24T17:13:37Z</time>
      </trkpt>
      <trkpt lat="45.06296" lon="4.95388">
        <ele>155.30299377441</ele>
        <time>2009-06-24T17:13:44Z</time>
      </trkpt>
      <trkpt lat="45.06296" lon="4.95388">
        <ele>155.46699523926</ele>
        <time>2009-06-24T17:13:45Z</time>
      </trkpt>
    </trkseg>
  </trk>
</gpx>